[[{"header":{"parameterUnit":"m.s-1","parameterCategory":1,"la1":30.6,"la2":28.766,"lo1":-90.7593,"lo2":-88.6598,"dy":0.0162,"dx":0.0183,"nx":116,"ny":114,"refTime":"2024-03-25T12:00:00:Z","depth":0,"parameterNumber":2,"parameterNumberName":"U-component_of_WINDS"},"data":[0.0,0.0,0.0,0.0,0.0,0.0,0.0,0.0,0.0,0.0,0.0,0.0,0.0,0.0,0.0,0.0,0.0,0.0,0.0,0.0,0.0,0.0,0.0,0.0,0.0,0.0,0.0,0.0,0.0,0.0,0.0,0.0,0.0,0.0,0.0,0.0,0.0,0.0,0.0,0.0,0.0,0.0,0.0,0.0,0.0,0.0,0.0,0.0,0.0,0.0,0.0,0.0,0.0,0.0,0.0,0.0,0.0,0.0,0.0,0.0,0.0,0.0,0.0,0.0,0.0,0.0,0.0,0.0,0.0,0.0,0.0,0.0,0.0,0.0,0.0,0.0,0.0,0.0,0.0,0.0,0.0,0.0,0.0,0.0,0.0,0.0,0.0,0.0,0.0,0.0,0.0,0.0,0.0,0.0,0.0,0.0,0.0,0.0,0.0,0.0,0.0,0.0,0.0,0.0,0.0,0.0,0.0,0.0,0.0,0.0,0.0,0.0,0.0,0.0,0.0,0.0,0.0,0.0,0.0,0.0,0.0,0.0,0.0,0.0,0.0,0.0,0.0,0.0,0.0,0.0,0.0,0.0,0.0,0.0,0.0,0.0,0.0,0.0,0.0,0.0,0.0,0.0,0.0,0.0,0.0,0.0,0.0,0.0,0.0,0.0,0.0,0.0,0.0,0.0,0.0,0.0,0.0,0.0,0.0,0.0,0.0,0.0,0.0,0.0,0.0,0.0,0.0,0.0,0.0,0.0,0.0,0.0,0.0,0.0,0.0,0.0,0.0,0.0,0.0,0.0,0.0,0.0,0.0,0.0,0.0,0.0,0.0,0.0,0.0,0.0,0.0,0.0,0.0,0.0,0.0,0.0,0.0,0.0,0.0,0.0,0.0,0.0,0.0,0.0,0.0,0.0,0.0,0.0,0.0,0.0,0.0,0.0,0.0,0.0,0.0,0.0,0.0,0.0,0.0,0.0,0.0,0.0,0.0,0.0,0.0,0.0,0.0,0.0,0.0,0.0,0.0,0.0,0.0,0.0,0.0,0.0,0.0,0.0,0.0,0.0,0.0,0.0,0.0,0.0,0.0,0.0,0.0,0.0,0.0,0.0,0.0,0.0,0.0,0.0,0.0,0.0,0.0,0.0,0.0,0.0,0.0,0.0,0.0,0.0,0.0,0.0,0.0,0.0,0.0,0.0,0.0,0.0,0.0,0.0,0.0,0.0,0.0,0.0,0.0,0.0,0.0,0.0,0.0,0.0,0.0,0.0,0.0,0.0,0.0,0.0,0.0,0.0,0.0,0.0,0.0,0.0,0.0,0.0,0.0,0.0,0.0,0.0,0.0,0.0,0.0,0.0,0.0,0.0,0.0,0.0,0.0,0.0,0.0,0.0,0.0,0.0,0.0,0.0,0.0,0.0,0.0,0.0,0.0,0.0,0.0,0.0,0.0,0.0,0.0,0.0,0.0,0.0,0.0,0.0,0.0,0.0,0.0,0.0,0.0,0.0,0.0,0.0,0.0,0.0,0.0,0.0,0.0,0.0,0.0,0.0,0.0,0.0,0.0,0.0,0.0,0.0,0.0,0.0,0.0,0.0,0.0,0.0,0.0,0.0,0.0,0.0,0.0,0.0,0.0,0.0,0.0,0.0,0.0,0.0,0.0,0.0,0.0,0.0,0.0,0.0,0.0,0.0,0.0,0.0,0.0,0.0,0.0,0.0,0.0,0.0,0.0,0.0,0.0,0.0,0.0,0.0,0.0,0.0,0.0,0.0,0.0,0.0,0.0,0.0,0.0,0.0,0.0,0.0,0.0,0.0,0.0,0.0,0.0,0.0,0.0,0.0,0.0,0.0,0.0,0.0,0.0,0.0,0.0,0.0,0.0,0.0,0.0,0.0,0.0,0.0,0.0,0.0,0.0,0.0,0.0,0.0,0.0,0.0,0.0,0.0,0.0,0.0,0.0,0.0,0.0,0.0,0.0,0.0,0.0,0.0,0.0,0.0,0.0,0.0,0.0,0.0,0.0,0.0,0.0,0.0,0.0,0.0,0.0,0.0,0.0,0.0,0.0,0.0,0.0,0.0,0.0,0.0,0.0,0.0,0.0,0.0,0.0,0.0,0.0,0.0,0.0,0.0,0.0,0.0,0.0,0.0,0.0,0.0,0.0,0.0,0.0,0.0,0.0,0.0,0.0,0.0,0.0,0.0,0.0,0.0,0.0,0.0,0.0,0.0,0.0,0.0,0.0,0.0,0.0,0.0,0.0,0.0,0.0,0.0,0.0,0.0,0.0,0.0,0.0,0.0,0.0,0.0,0.0,0.0,0.0,0.0,0.0,0.0,0.0,0.0,0.0,0.0,0.0,0.0,0.0,0.0,0.0,0.0,0.0,0.0,0.0,0.0,0.0,0.0,0.0,0.0,0.0,0.0,0.0,0.0,0.0,0.0,0.0,0.0,0.0,0.0,0.0,0.0,0.0,0.0,0.0,0.0,0.0,0.0,0.0,0.0,0.0,0.0,0.0,0.0,0.0,0.0,0.0,0.0,0.0,0.0,0.0,0.0,0.0,0.0,0.0,0.0,0.0,0.0,0.0,0.0,0.0,0.0,0.0,0.0,0.0,0.0,0.0,0.0,0.0,0.0,0.0,0.0,0.0,0.0,0.0,0.0,0.0,0.0,0.0,0.0,0.0,0.0,0.0,0.0,0.0,0.0,0.0,0.0,0.0,0.0,0.0,0.0,0.0,0.0,0.0,0.0,0.0,0.0,0.0,0.0,0.0,0.0,0.0,0.0,0.0,0.0,0.0,0.0,0.0,0.0,0.0,0.0,0.0,0.0,0.0,0.0,0.0,0.0,0.0,0.0,0.0,0.0,0.0,0.0,0.0,0.0,0.0,0.0,0.0,0.0,0.0,0.0,0.0,0.0,0.0,0.0,0.0,0.0,0.0,0.0,0.0,0.0,0.0,0.0,0.0,0.0,0.0,0.0,0.0,0.0,0.0,0.0,0.0,0.0,0.0,0.0,0.0,0.0,0.0,0.0,0.0,0.0,0.0,0.0,0.0,0.0,0.0,0.0,0.0,0.0,0.0,0.0,0.0,0.0,0.0,0.0,0.0,0.0,0.0,0.0,0.0,0.0,0.0,0.0,0.0,0.0,0.0,0.0,0.0,0.0,0.0,0.0,0.0,0.0,0.0,0.0,0.0,0.0,0.0,0.0,0.0,0.0,0.0,0.0,0.0,0.0,0.0,0.0,0.0,0.0,0.0,0.0,0.0,0.0,0.0,0.0,0.0,0.0,0.0,0.0,0.0,0.0,0.0,0.0,0.0,0.0,0.0,0.0,0.0,0.0,0.0,0.0,0.0,0.0,0.0,0.0,0.0,0.0,0.0,0.0,0.0,0.0,0.0,0.0,0.0,0.0,0.0,0.0,0.0,0.0,0.0,0.0,0.0,0.0,0.0,0.0,0.0,0.0,0.0,0.0,0.0,0.0,0.0,0.0,0.0,0.0,0.0,0.0,0.0,0.0,0.0,0.0,0.0,0.0,0.0,0.0,0.0,0.0,0.0,0.0,0.0,0.0,0.0,0.0,0.0,0.0,0.0,0.0,0.0,0.0,0.0,0.0,0.0,0.0,0.0,0.0,0.0,0.0,0.0,0.0,0.0,0.0,0.0,0.0,0.0,0.0,0.0,0.0,0.0,0.0,0.0,0.0,0.0,0.0,0.0,0.0,0.0,0.0,0.0,0.0,0.0,0.0,0.0,0.0,0.0,0.0,0.0,0.0,0.0,0.0,0.0,0.0,0.0,0.0,0.0,0.0,0.0,0.0,0.0,0.0,0.0,0.0,0.0,0.0,0.0,0.0,0.0,0.0,0.0,0.0,0.0,0.0,0.0,0.0,0.0,0.0,0.0,0.0,0.0,0.0,0.0,0.0,0.0,0.0,0.0,0.0,0.0,0.0,0.0,0.0,0.0,0.0,0.0,0.0,0.0,0.0,0.0,0.0,0.0,0.0,0.0,0.0,0.0,0.0,0.0,0.0,0.0,0.0,0.0,0.0,0.0,0.0,0.0,0.0,0.0,0.0,0.0,0.0,0.0,0.0,0.0,0.0,0.0,0.0,0.0,0.0,0.0,0.0,0.0,0.0,0.0,0.0,0.0,0.0,0.0,0.0,0.0,0.0,0.0,0.0,0.0,0.0,0.0,0.0,0.0,0.0,0.0,0.0,0.0,0.0,0.0,0.0,0.0,0.0,0.0,0.0,0.0,0.0,0.0,0.0,0.0,0.0,0.0,0.0,0.0,0.0,0.0,0.0,0.0,0.0,0.0,0.0,0.0,0.0,0.0,0.0,0.0,0.0,0.0,0.0,0.0,0.0,0.0,0.0,0.0,0.0,0.0,0.0,0.0,0.0,0.0,0.0,0.0,0.0,0.0,0.0,0.0,0.0,0.0,0.0,0.0,0.0,0.0,0.0,0.0,0.0,0.0,0.0,0.0,0.0,0.0,0.0,0.0,0.0,0.0,0.0,0.0,0.0,0.0,0.0,0.0,0.0,0.0,0.0,0.0,0.0,0.0,0.0,0.0,0.0,0.0,0.0,0.0,0.0,0.0,0.0,0.0,0.0,0.0,0.0,0.0,0.0,0.0,0.0,0.0,0.0,0.0,0.0,0.0,0.0,0.0,0.0,0.0,0.0,0.0,0.0,0.0,0.0,0.0,0.0,0.0,0.0,0.0,0.0,0.0,0.0,0.0,0.0,0.0,0.0,0.0,0.0,0.0,0.0,0.0,0.0,0.0,0.0,0.0,0.0,0.0,0.0,0.0,0.0,0.0,0.0,0.0,0.0,0.0,0.0,0.0,0.0,0.0,0.0,0.0,0.0,0.0,0.0,0.0,0.0,0.0,0.0,0.0,0.0,0.0,0.0,0.0,0.0,0.0,0.0,0.0,0.0,0.0,0.0,0.0,0.0,0.0,0.0,0.0,0.0,0.0,0.0,0.0,0.0,0.0,0.0,0.0,0.0,0.0,0.0,0.0,0.0,0.0,0.0,0.0,0.0,0.0,0.0,0.0,0.0,0.0,0.0,0.0,0.0,0.0,0.0,0.0,0.0,0.0,0.0,0.0,0.0,0.0,0.0,0.0,0.0,0.0,0.0,0.0,0.0,0.0,0.0,0.0,0.0,0.0,0.0,0.0,0.0,0.0,0.0,0.0,0.0,0.0,0.0,0.0,0.0,0.0,0.0,0.0,0.0,0.0,0.0,0.0,0.0,0.0,0.0,0.0,0.0,0.0,0.0,0.0,0.0,0.0,0.0,0.0,0.0,0.0,0.0,0.0,0.0,0.0,0.0,0.0,0.0,0.0,0.0,0.0,0.0,0.0,0.0,0.0,0.0,0.0,0.0,0.0,0.0,0.0,0.0,0.0,0.0,0.0,0.0,0.0,0.0,0.0,0.0,0.0,0.0,0.0,0.0,0.0,0.0,0.0,0.0,0.0,0.0,0.0,0.0,0.0,0.0,0.0,0.0,0.0,0.0,0.0,0.0,0.0,0.0,0.0,0.0,0.0,0.0,0.0,0.0,0.0,0.0,0.0,0.0,0.0,0.0,0.0,0.0,0.0,0.0,0.0,0.0,0.0,0.0,0.0,0.0,0.0,0.0,0.0,0.0,0.0,0.0,0.0,0.0,0.0,0.0,0.0,0.0,0.0,0.0,0.0,0.0,0.0,0.0,0.0,0.0,0.0,0.0,0.0,0.0,0.0,0.0,0.0,0.0,0.0,0.0,0.0,0.0,0.0,0.0,0.0,0.0,0.0,0.0,0.0,0.0,0.0,0.0,0.0,0.0,0.0,0.0,0.0,0.0,0.0,0.0,0.0,0.0,0.0,0.0,0.0,0.0,0.0,0.0,0.0,0.0,0.0,0.0,0.0,0.0,0.0,0.0,0.0,0.0,0.0,0.0,0.0,0.0,0.0,0.0,0.0,0.0,0.0,0.0,0.0,0.0,0.0,0.0,0.0,0.0,0.0,0.0,0.0,0.0,0.0,0.0,0.0,0.0,0.0,0.0,0.0,0.0,0.0,0.0,0.0,0.0,0.0,0.0,0.0,0.0,1.3691,0.0,0.0,0.0,0.0,0.0,0.0,0.0,0.0,0.0,0.0,0.0,0.0,0.0,0.0,0.0,0.0,0.0,0.0,0.0,0.0,0.0,0.0,0.0,0.0,2.5303,2.5303,2.5303,2.5303,2.5303,2.5303,2.5303,2.5303,2.5303,2.5303,2.5303,2.5303,2.537,2.5408,2.539,2.5014,2.482,2.483,2.5224,2.5406,2.539,0.0,0.0,0.0,0.0,0.0,0.0,0.0,0.0,0.0,0.0,0.0,0.0,0.0,0.0,0.0,0.0,0.0,0.0,0.0,0.0,0.0,0.0,0.0,0.0,0.0,0.0,0.0,0.0,0.0,0.0,0.0,0.0,0.0,0.0,0.0,0.0,0.0,0.0,0.0,0.0,0.0,0.0,0.0,0.0,0.0,0.0,0.0,0.0,0.0,0.0,0.0,0.0,0.0,0.0,0.0,0.0,0.0,0.0,0.0,0.0,0.0,0.0,0.0,0.0,0.0,0.0,0.0,0.0,0.0,0.0,0.0,1.3842,0.0,0.0,0.0,0.0,0.0,0.0,0.0,0.0,0.0,0.0,0.0,0.0,0.0,0.0,0.0,0.0,0.0,0.0,0.0,0.0,0.0,2.5303,2.5303,2.5303,2.5303,2.5303,2.5303,2.5303,2.5303,2.5303,2.5303,2.5303,2.5303,2.5303,2.5303,2.5341,2.539,2.5409,2.4908,2.52,2.6201,2.6133,2.6231,2.642,2.5707,0.0,0.0,0.0,0.0,0.0,0.0,0.0,0.0,0.0,0.0,0.0,0.0,0.0,0.0,0.0,0.0,0.0,0.0,0.0,0.0,0.0,0.0,0.0,0.0,0.0,0.0,0.0,0.0,0.0,0.0,0.0,0.0,0.0,0.0,0.0,0.0,0.0,0.0,0.0,0.0,0.0,0.0,0.0,0.0,0.0,0.0,0.0,0.0,0.0,0.0,0.0,0.0,0.0,0.0,0.0,0.0,0.0,0.0,0.0,0.0,0.0,0.0,0.0,1.2267,1.2039,1.1707,1.191,1.1829,1.156,1.2114,1.2011,1.1571,1.275,0.0,0.0,0.0,0.0,0.0,0.0,0.0,0.0,0.0,0.0,0.0,0.0,0.0,0.0,0.0,0.0,0.0,0.0,0.0,2.5303,2.5303,2.5303,2.5303,2.5303,2.5303,2.5303,2.5303,2.5303,2.5303,2.5303,2.5303,2.5303,2.5303,2.5303,2.5341,2.5409,2.6179,2.7383,2.8974,2.8965,2.9396,3.0057,2.6834,2.588,2.667,0.0,0.0,0.0,0.0,0.0,0.0,0.0,0.0,0.0,0.0,0.0,0.0,0.0,0.0,0.0,0.0,0.0,0.0,0.0,0.0,0.0,0.0,0.0,0.0,0.0,0.0,0.0,0.0,0.0,0.0,0.0,0.0,0.0,0.0,0.0,0.0,0.0,0.0,0.0,0.0,0.0,1.0693,1.4798,0.0,0.0,0.0,0.0,0.0,0.0,0.0,0.0,0.0,0.0,0.0,0.0,0.0,1.293,1.3277,1.253,1.2172,1.2228,1.1754,1.1037,1.0118,1.0594,1.0545,1.009,1.0417,0.0,1.1815,1.1546,0.0,0.0,0.0,0.0,0.0,0.0,0.0,0.0,0.0,0.0,0.0,0.0,0.0,0.0,0.0,0.0,0.0,0.0,0.0,0.0,0.0,2.6506,2.6824,2.6823,2.8132,2.8142,2.6217,2.6939,2.6794,2.536,2.5303,2.5303,2.5303,2.5341,2.564,2.6237,2.8155,2.9757,3.1033,3.0989,3.1446,3.2184,2.9583,2.8152,2.7624,2.6762,0.0,0.0,0.0,0.0,0.0,0.0,0.0,0.0,0.0,0.0,0.0,0.0,0.0,0.0,0.0,0.0,0.0,0.0,0.0,0.0,0.0,0.0,0.0,0.0,0.0,0.0,0.0,0.0,0.0,0.0,0.0,0.0,0.0,0.0,0.0,0.0,0.0,0.0,0.0,1.2048,1.1926,1.2483,1.1294,1.0388,0.0,0.0,0.0,0.0,0.0,0.0,0.0,0.0,0.0,1.2446,1.2401,1.236,1.2317,1.1647,1.133,1.1338,1.104,1.0783,1.0586,1.0592,1.0563,1.054,1.0644,1.1028,1.1537,1.1229,1.1726,1.2789,0.0,0.0,0.0,0.0,1.6329,1.5993,0.0,0.0,0.0,0.0,0.0,0.0,0.0,0.0,0.0,0.0,0.0,0.0,2.6813,2.7941,2.8713,2.8953,3.0502,3.0375,2.7862,2.7978,2.7371,2.5707,2.5418,2.5303,2.5303,2.6043,2.7015,2.8242,3.0851,3.2601,3.351,3.3676,3.412,3.4656,3.2899,3.0944,2.8887,2.7793,2.6953,2.6328,0.0,0.0,0.0,0.0,0.0,0.0,0.0,0.0,0.0,0.0,0.0,0.0,0.0,0.0,0.0,0.0,0.0,0.0,0.0,0.0,0.0,0.0,0.0,0.0,0.0,0.0,0.0,0.0,0.0,0.0,0.0,0.0,0.0,0.0,0.0,0.0,0.0,1.1631,1.1574,0.8904,0.8537,0.8316,0.0,0.0,0.0,0.0,0.0,0.0,1.3725,1.3275,1.2733,1.2218,1.1976,1.171,1.146,1.0943,1.0752,1.0847,1.0879,1.1039,1.126,1.1153,1.1226,1.1424,1.145,1.1521,1.1565,1.1438,1.1822,1.2604,1.3678,1.4589,1.5343,1.5802,1.5834,1.561,0.0,0.0,0.0,0.0,0.0,0.0,0.0,0.0,0.0,0.0,0.0,2.5947,2.764,2.9294,3.0645,3.1518,3.0895,3.0456,3.04,2.7311,2.5813,2.6505,2.5726,2.5303,2.5303,2.7861,3.0063,3.1835,3.4452,3.6191,3.7069,3.789,3.8301,3.826,3.6521,3.3887,3.0664,2.8965,2.8203,2.8027,2.6367,0.0,0.0,0.0,0.0,0.0,0.0,0.0,0.0,0.0,0.0,0.0,0.0,0.0,0.0,0.0,0.0,0.0,0.0,0.0,0.0,0.0,0.0,0.0,0.0,0.0,0.0,0.0,0.0,0.0,0.0,0.0,0.0,0.0,0.0,0.0,0.0,0.0,0.0,0.3961,0.5191,0.0,0.0,0.0,0.0,0.9958,1.2199,1.3348,1.2891,1.324,1.3078,1.2229,1.1351,1.1109,1.1597,1.0999,1.0897,1.1285,1.1769,1.1841,1.1497,1.2196,1.2433,1.2342,1.2409,1.2394,1.2331,1.2199,1.2622,1.3391,1.3895,1.4589,1.53,1.5339,1.5223,1.4962,0.0,0.0,0.0,0.0,0.0,2.5091,2.4422,2.4774,2.5099,2.5099,2.6087,2.7692,3.0071,3.2391,3.4334,3.5724,3.5551,3.4455,3.2295,2.9906,2.8467,2.8217,2.6919,2.6776,2.7981,2.9502,3.1437,3.377,3.6382,3.8125,3.8984,3.9297,3.9141,3.8574,3.7951,3.6372,3.4004,3.1172,2.9336,2.8203,2.7012,2.6167,0.0,0.0,0.0,0.0,0.0,0.0,0.0,0.0,0.0,0.0,0.0,0.0,0.0,0.0,0.0,0.0,0.0,0.0,0.0,0.0,0.0,0.0,0.0,0.0,0.0,0.0,0.0,0.0,0.0,0.0,0.0,0.0,0.0,0.0,0.0,0.0,0.0,0.4798,0.4903,0.0,0.574,0.7555,0.9227,1.0439,1.2071,1.2911,1.267,1.2344,1.2131,1.2062,1.1042,1.0391,1.0199,1.0099,1.0007,0.99,1.0954,1.1829,1.2539,1.2794,1.3105,1.3412,1.3262,1.3198,1.3177,1.3393,1.3439,1.3358,1.3527,1.4083,1.4794,1.4794,1.466,1.4468,0.0,0.0,0.0,0.0,0.0,2.4884,2.3942,2.4484,2.501,2.501,2.7064,2.9436,3.184,3.5199,3.7723,3.8881,3.8166,3.6551,3.4045,3.1179,2.9313,2.8744,2.8009,2.8479,3.0337,3.2368,3.4264,3.6016,3.8613,4.0039,4.0332,4.0332,4.0039,3.9473,3.9473,3.8848,3.7578,3.4707,3.2148,2.9863,2.8144,2.7396,2.7226,0.0,0.0,0.0,0.0,0.0,0.0,0.0,0.0,0.0,0.0,0.0,0.0,0.0,0.0,0.0,0.0,0.0,0.0,0.0,0.0,0.0,0.0,0.0,0.0,0.0,0.0,0.0,0.0,0.0,0.0,0.0,0.0,0.0,0.0,0.0,0.5521,0.4472,0.4561,0.5146,0.6284,0.8041,0.9622,1.0865,1.222,1.2898,1.2654,1.2085,1.1593,1.1242,0.9933,0.8892,0.8203,0.8264,0.854,0.9006,1.0386,1.1854,1.3412,1.3572,1.3863,1.4267,1.4115,1.3952,1.3782,1.4077,1.3956,1.3596,1.3596,1.3977,1.4517,1.4556,1.4474,1.4398,0.0,0.0,0.0,0.0,0.0,2.4732,2.3931,2.4484,2.4998,2.5049,2.8203,3.1109,3.2833,3.7526,4.0639,4.0812,3.8296,3.6406,3.5682,3.076,2.7928,2.8041,2.9011,3.04,3.2213,3.6377,3.8598,3.8711,4.1191,4.1992,4.123,4.1211,4.1191,4.1191,4.123,4.123,4.1133,3.9434,3.6758,3.334,2.9863,2.9394,3.0428,0.0,0.0,0.0,0.0,0.0,0.0,0.0,0.0,0.0,0.0,0.0,0.0,0.0,0.0,0.0,0.0,0.0,0.0,0.0,0.0,0.0,0.0,0.0,0.0,0.0,0.0,0.0,0.0,0.0,0.0,0.0,0.0,0.0,0.5266,0.3891,0.2868,0.2581,0.3972,0.5382,0.6407,0.8842,1.0584,1.1106,1.2675,1.3324,1.2684,1.2472,1.1518,0.9654,0.7891,0.6555,0.5696,0.5628,0.6666,0.8754,1.0228,1.1999,1.4015,1.4501,1.4745,1.4818,1.4863,1.4602,1.4118,1.4183,1.4188,1.4188,1.4188,1.432,1.4511,1.4656,1.4707,1.4728,0.0,0.0,0.0,2.4245,2.4596,2.4732,2.3931,2.4404,2.5118,2.5844,2.9473,3.2924,3.5397,3.9681,4.2624,4.3258,3.9258,3.6603,3.6406,3.0525,2.7661,2.9022,3.1714,3.401,3.5835,3.8261,4.0129,4.1367,4.2051,4.2285,4.2051,4.1465,4.1191,4.123,4.1816,4.207,4.2031,4.1562,4.0469,3.8633,3.3906,3.1523,3.0566,0.0,0.0,0.0,0.0,0.0,0.0,0.0,0.0,0.0,0.0,0.0,0.0,0.0,0.0,0.0,0.0,0.0,0.0,0.0,0.0,0.0,0.0,0.0,0.0,0.0,0.0,0.0,0.0,0.0,0.0,0.0,0.6227,0.4123,0.0971,0.1776,0.2839,0.3179,0.5285,0.7275,0.8714,1.0664,1.1932,1.2236,1.2994,1.2936,1.1743,0.9943,0.8536,0.7616,0.5398,0.3951,0.3403,0.49,0.6242,0.7379,1.0113,1.2266,1.3885,1.4497,1.486,1.5014,1.493,1.4671,1.4301,1.4087,1.3983,1.3997,1.4149,1.432,1.4511,1.4656,1.4766,1.4859,0.0,0.0,0.0,2.4187,2.4596,2.4732,2.3931,2.4429,2.5221,2.6181,3.0685,3.4544,3.6493,4.0527,4.2854,4.2258,3.8527,3.5603,3.416,3.05,2.9351,3.1543,3.4622,3.7102,3.8887,4.0976,4.2324,4.2949,4.3301,4.3301,4.293,4.2461,4.2246,4.2285,4.3125,4.3496,4.3496,4.3496,4.3223,4.2422,3.832,3.5391,3.3262,3.0859,2.955,2.8828,2.7135,2.6343,2.6033,2.5515,0.0,0.0,0.0,0.0,0.0,0.0,0.0,0.0,0.0,0.0,0.0,0.0,0.0,0.0,0.0,0.0,0.0,0.0,0.0,0.0,0.0,0.0,0.0,0.0,0.428,0.192,-0.0283,0.1228,0.3147,0.4683,0.6884,0.8855,1.0287,1.1559,1.2107,1.1724,1.1631,1.0869,0.9219,0.7055,0.5271,0.3921,0.2399,0.1644,0.1798,0.393,0.5965,0.7966,1.062,1.2699,1.4203,1.4756,1.4976,1.4942,1.5272,1.4937,1.4203,1.4432,1.4342,1.4024,0.0,0.0,0.0,0.0,1.5995,1.612,0.0,0.0,0.0,2.411,2.4596,2.4762,2.4068,2.4553,2.5316,2.6218,3.1507,3.5488,3.6199,4.0008,4.1604,3.9354,3.6738,3.3891,3.0768,3.0931,3.2268,3.4796,3.7558,3.9805,4.1445,4.3887,4.4766,4.3984,4.4668,4.4609,4.3848,4.375,4.375,4.3887,4.4648,4.5058,4.5156,4.5156,4.5098,4.4805,4.2539,3.9998,3.7218,3.3877,3.2414,3.1885,3.0121,2.8373,2.6901,2.667,0.0,0.0,0.0,0.0,0.0,0.0,0.0,0.0,0.0,0.0,0.0,0.0,0.0,0.0,0.0,0.0,0.0,0.0,0.0,0.0,0.0,0.0,0.0,0.0,0.1673,0.0072,0.0578,0.1954,0.3938,0.6671,0.8627,1.0159,1.1253,1.1666,1.1355,1.0144,0.9169,0.776,0.5732,0.0,0.0,0.0,0.0,-0.0037,0.0921,0.3191,0.6104,0.9554,1.1525,1.333,1.4885,1.5275,1.5297,1.5089,1.5922,1.5518,1.4337,1.5216,1.5166,1.448,1.4199,1.4831,1.6026,1.7151,1.7662,1.7793,0.0,0.0,0.0,2.411,2.4596,2.5008,2.5003,2.5004,2.5382,2.6414,3.0552,3.3468,3.3622,3.6834,3.8796,3.8296,3.5276,3.289,3.1679,3.3014,3.4722,3.6682,3.992,4.2148,4.3183,4.5078,4.5976,4.5801,4.5254,4.4902,4.4726,4.4023,4.4082,4.4766,4.4922,4.5391,4.6055,4.6055,4.5644,4.4961,4.4453,4.2242,3.8936,3.6228,3.4234,3.2563,3.012,2.8618,2.7514,2.5907,2.5231,2.4937,2.3953,2.3384,0.0,0.0,0.0,0.0,0.0,0.0,0.0,0.0,0.0,0.0,0.0,0.0,0.0,0.0,0.0,0.0,0.0,0.0,0.0,0.0219,-0.1366,-0.1062,0.1844,0.4057,0.6151,0.8106,1.008,1.1391,1.1669,1.0908,0.9912,0.8701,0.6756,0.4815,0.2894,0.1187,-0.011,-0.0904,-0.0645,0.0185,0.1579,0.4908,0.7629,0.9706,0.0,0.0,1.5996,1.617,1.6581,1.7128,1.7254,1.699,1.6499,1.669,1.6608,1.6311,1.5611,1.6028,1.7023,1.7263,1.7551,1.7793,0.0,0.0,0.0,2.3956,2.4341,2.4724,2.5216,2.5214,2.551,2.6476,2.9544,3.1814,3.2256,3.418,3.5103,3.4276,3.1896,3.1051,3.2466,3.4652,3.7082,3.9746,4.2324,4.4101,4.498,4.5859,4.6308,4.6308,4.5859,4.5644,4.5644,4.5195,4.5234,4.5644,4.5644,4.5898,4.6308,4.6308,4.6055,4.5605,4.5098,4.3549,4.1323,3.9244,3.6479,3.3528,3.2228,3.011,2.7791,2.6795,2.5592,2.4441,2.3833,2.3195,2.2708,0.0,0.0,0.0,0.0,0.0,0.0,0.0,0.0,0.0,0.0,0.0,0.0,0.0,0.0,1.03,0.8528,0.0,-0.0648,-0.2889,-0.3569,-0.2503,0.1287,0.4525,0.7605,1.0469,1.1187,1.1381,1.1163,0.9302,0.7414,0.5769,0.3667,0.1879,0.0524,-0.0854,-0.1583,-0.1544,-0.063,0.0832,0.2878,0.5968,0.887,1.1622,1.2992,1.4781,1.6893,1.6686,1.7028,1.7768,1.8095,1.7895,1.7305,1.7305,1.7491,1.7791,1.7807,1.7865,1.8,1.8487,1.8837,1.9167,0.0,0.0,0.0,2.3321,2.3879,2.4322,2.4966,2.5187,2.5553,2.6255,2.8429,3.0121,3.066,3.1448,3.1371,3.0025,2.9222,3.0248,3.3725,3.6312,3.9271,4.2754,4.4414,4.5586,4.6289,4.6308,4.6308,4.6308,4.6308,4.6387,4.6543,4.6387,4.6387,4.6543,4.6387,4.6308,4.6308,4.6308,4.6285,4.6191,4.5369,4.4365,4.318,4.1561,3.8368,3.4699,3.4199,3.1275,2.7629,2.7566,2.5773,2.361,2.3669,2.3065,2.2369,2.2621,2.1036,0.0,0.0,0.0,0.0,0.0,0.0,0.0,0.0,1.5297,1.6034,1.6038,1.1375,0.7096,0.6505,-0.0124,-0.5664,-0.6159,-0.5826,-0.3968,0.0421,0.4093,0.7825,1.1799,1.157,1.0737,0.9865,0.7202,0.4698,0.2682,0.0791,-0.0557,-0.1204,-0.1925,-0.2007,-0.1324,0.0122,0.2089,0.4552,0.7231,1.018,1.3388,1.3905,1.5428,1.7731,1.735,1.7599,1.8371,1.8921,1.8731,1.8046,1.8042,1.8413,1.9033,1.9696,1.9498,1.8995,1.9916,2.0316,2.0504,0.0,0.0,0.0,0.0,0.0,2.4129,2.4225,2.4832,2.5341,2.5418,2.7044,2.7909,2.7236,2.7948,2.8371,2.8198,3.0183,3.2938,3.6443,3.8509,4.1131,4.4551,4.5644,4.6191,4.6308,4.6308,4.6308,4.6308,4.6308,4.6699,4.7441,4.666,4.6719,4.7422,4.6641,4.6308,4.6308,4.6308,4.6228,4.6101,4.5984,4.4848,4.3027,4.1373,3.8941,3.6142,3.3872,3.0333,2.6694,2.6317,2.4739,2.2959,2.3263,2.2596,2.1883,2.2773,2.0149,1.697,1.7028,1.3082,0.8729,0.7781,0.9717,1.1801,0.0,1.3597,1.5612,1.6084,1.1385,0.6089,0.2421,-0.3196,-0.8208,-1.0989,-0.9066,-0.5164,0.0685,0.2931,0.5505,0.9578,1.042,0.9765,0.7443,0.4711,0.2341,0.0558,-0.0827,-0.1637,-0.1735,-0.1332,-0.0348,0.1231,0.2588,0.4375,0.6642,0.9781,1.189,1.2999,1.5437,1.7291,1.8575,1.8818,1.9392,2.0191,2.0153,2.0076,1.9999,1.9998,1.9968,1.9962,2.0042,2.0027,2.0042,2.0849,2.0833,2.0403,0.0,0.0,0.0,0.0,0.0,2.2928,2.3956,2.4399,2.4774,2.5245,2.5928,2.6255,2.589,2.6178,2.6339,2.6224,2.8764,3.2087,3.6072,3.8543,4.1601,4.5586,4.6113,4.6308,4.6308,4.6308,4.6308,4.6308,4.6816,4.7246,4.7598,4.7754,4.7734,4.7617,4.7754,4.7539,4.705,4.6975,4.6907,4.6756,4.562,4.41,4.2194,3.9292,3.6305,3.3489,3.2407,2.9615,0.0,2.5023,2.3593,2.2218,2.1541,2.1343,2.0973,1.8965,1.7041,1.4689,1.0676,0.6386,0.3143,0.352,0.5921,0.8223,0.8396,1.181,1.398,1.0662,0.5488,0.0318,-0.3724,-0.8737,-1.2586,-1.3579,-1.0119,-0.6095,-0.2549,0.1107,0.4215,0.6364,0.6452,0.583,0.4539,0.2093,0.0181,-0.0798,-0.1381,-0.1416,-0.0775,-0.0175,0.1042,0.3045,0.4124,0.5687,0.7749,1.0295,1.2378,1.3971,1.5592,1.7431,1.938,1.9252,1.9618,2.0327,2.0303,2.0283,2.0245,2.0283,2.028,2.0271,2.0818,2.0698,2.0308,2.1129,2.1273,2.1251,0.0,0.0,0.0,0.0,0.0,0.0,0.0,0.0,2.3986,2.4782,2.4847,2.4913,2.5194,2.5264,2.5234,2.5099,2.7456,3.0684,3.4808,3.7582,4.1035,4.5391,4.6035,4.6406,4.6641,4.6894,4.7012,4.7012,4.7402,4.7715,4.7969,4.8359,4.8203,4.7637,4.8262,4.8066,4.7225,4.71,4.6889,4.6504,4.4812,4.2848,4.0485,3.6795,3.3391,3.0538,3.024,2.7951,2.4921,2.3915,2.2794,2.1721,2.1272,2.1456,2.1054,1.7073,1.3581,0.969,0.3605,-0.0333,-0.2529,-0.1503,0.0925,0.3288,0.4079,0.8233,1.0628,0.6199,0.0561,-0.4443,-0.7259,-1.2084,-1.547,-1.4907,-1.1094,-0.7349,-0.5006,-0.0998,0.2175,0.3552,0.281,0.207,0.1776,0.0144,-0.1043,-0.143,-0.1283,-0.0671,0.0471,0.104,0.2392,0.4673,0.5298,0.6498,0.8422,1.077,1.2842,1.4584,1.6034,1.7819,1.9805,1.9469,1.9573,2.0012,2.0059,2.0098,2.0148,2.0205,2.0244,2.0371,2.105,2.0898,2.0435,2.151,2.1794,2.1833,0.0,0.0,0.0,0.0,0.0,0.0,0.0,0.0,0.0,2.3747,2.3682,2.3935,2.4903,2.5173,2.5303,2.5284,2.6988,2.9525,3.3053,3.5795,3.9219,4.3594,4.5391,4.6699,4.7539,4.8398,4.8828,4.8828,4.8008,4.8027,4.8848,4.8027,4.7637,4.7598,4.7637,4.7168,4.6327,4.6203,4.562,4.4694,4.3657,4.1178,3.7723,3.417,3.1009,2.8342,2.7317,2.4785,2.2107,2.3155,2.2532,2.1661,2.3639,2.3872,2.2737,1.923,1.0274,0.0649,-0.335,-0.6246,-0.8169,-0.8182,-0.6078,-0.3524,-0.1772,0.1986,0.5044,0.477,-0.114,-0.6251,-0.6169,-1.1442,-1.5591,-1.4901,-1.2491,-0.9273,-0.5163,-0.3353,-0.1317,0.1611,0.0465,-0.0572,0.0,-0.0775,-0.0962,-0.1087,-0.0447,0.053,0.1864,0.2285,0.3652,0.6343,0.6215,0.6937,0.8782,1.1802,1.3619,1.424,1.7334,1.9103,1.9618,1.9591,1.9564,1.9516,1.9516,1.9712,2.0012,2.0012,2.0124,2.03,2.0327,2.0336,2.0511,2.2294,2.2425,2.181,0.0,0.0,0.0,0.0,0.0,0.0,0.0,0.0,0.0,0.0,0.0,0.0,0.0,0.0,0.0,0.0,2.632,2.8318,3.1284,3.4396,3.7371,4.0137,4.3535,4.5254,4.5019,4.6426,4.7168,4.7168,4.7461,4.7754,4.8047,4.832,4.8144,4.7637,4.8203,4.7927,4.6993,4.6313,4.5467,4.4286,4.1058,3.8373,3.5806,3.0958,2.8055,2.6255,0.0,2.2912,2.2398,2.16,2.0973,2.046,1.9872,2.063,2.0234,1.2733,0.198,-0.7641,-0.845,-1.0682,-1.2673,-1.2133,-1.1411,-0.9859,-0.6269,-0.4419,-0.2586,0.0583,-0.4412,-1.0285,-1.3255,-1.5481,-1.6806,-1.6627,-1.319,-0.9848,-0.7942,-0.4728,-0.2027,-0.0401,-0.0241,-0.0248,-0.0248,0.0,0.0,-0.0407,0.0225,0.1274,0.2786,0.2976,0.4202,0.6752,0.6707,0.7631,0.9706,1.2497,1.4213,1.4913,1.7558,1.9073,1.9532,1.9847,2.0026,2.0131,2.0704,2.0796,2.0584,2.1347,2.1377,2.1015,2.1597,2.1502,2.1166,2.2217,2.2424,2.2373,0.0,0.0,0.0,0.0,0.0,0.0,0.0,0.0,0.0,0.0,0.0,0.0,0.0,0.0,0.0,0.0,0.0,2.7132,2.9525,3.199,3.4323,3.6518,3.9845,4.1554,4.1359,4.2747,4.3489,4.3489,4.4061,4.4355,4.4375,4.5254,4.5391,4.4883,4.5714,4.5559,4.4616,4.3629,4.2323,4.0616,3.7377,3.4548,3.1799,2.7619,2.5256,0.0,2.1509,2.1062,2.1487,2.0473,2.0303,2.0137,1.7579,1.5856,1.3114,0.476,-0.4349,-1.1801,-1.2333,-1.4233,-1.5843,-1.4888,-1.4804,-1.3805,-0.9445,-0.8757,-0.8314,-0.551,-0.8724,-1.288,-1.5612,-1.6412,-1.6732,-1.6989,-1.3975,-1.0959,-0.9149,-0.6071,-0.3128,-0.0783,-0.0223,0.0076,0.03,-0.0369,0.0,0.0399,0.095,0.1958,0.359,0.3644,0.4701,0.7072,0.7306,0.8301,1.0166,1.2835,1.495,1.6502,1.8277,1.9381,1.9813,1.9866,2.0137,2.059,2.0895,2.1099,2.1291,2.202,2.2035,2.1677,2.223,2.2147,2.1779,2.2515,2.2801,2.2961,0.0,0.0,0.0,0.0,0.0,0.0,0.0,0.0,0.0,0.0,0.0,0.0,0.0,0.0,0.0,0.0,0.0,0.0,2.773,2.8743,3.0372,3.2807,3.4719,3.6094,3.6879,3.78,3.8268,3.8268,3.8329,3.8359,3.8379,3.9277,3.9687,3.9726,4.0412,4.0301,3.9526,3.8427,3.6559,3.4183,3.2842,2.9917,2.6143,2.4213,2.2715,2.1422,1.9772,1.926,1.9404,1.9859,2.0378,2.0224,1.6752,1.011,0.2425,-0.3686,-0.8461,-1.2339,-1.5212,-1.7014,-1.7819,-1.6631,-1.6421,-1.5424,-1.1265,-1.0673,-1.1344,-1.2576,-1.3469,-1.3916,-1.3458,-1.4448,-1.5543,-1.6158,-1.4831,-1.2507,-0.8994,-0.7361,-0.4702,0.0195,0.0329,0.0208,0.0791,0.033,0.0,0.1258,0.0,0.2555,0.4311,0.4334,0.5262,0.737,0.8035,0.9,1.0205,1.3002,1.5857,1.8778,1.936,1.9905,2.0325,1.9682,1.9935,2.0905,2.0256,2.0771,2.2049,2.2086,2.2156,2.2224,2.2248,2.2229,2.2304,2.3121,2.3422,2.3422,0.0,0.0,0.0,0.0,0.0,0.0,0.0,0.0,0.0,0.0,0.0,0.0,0.0,0.0,0.0,0.0,0.0,0.0,2.5742,2.7887,2.9135,2.9098,3.2734,3.4584,3.4212,3.5685,3.6451,3.6451,3.6491,3.6495,3.6485,3.6723,3.6859,3.6856,3.7046,3.6957,3.66,3.5589,3.4338,3.279,2.9668,2.739,2.5512,2.199,2.0659,2.039,1.8335,1.8044,1.8812,1.9638,1.8192,1.5664,1.3294,0.6676,-0.1043,-0.5399,-1.0542,-1.5566,-1.8793,-1.9487,-1.9161,-1.8395,-1.7496,-1.5662,-1.1284,-0.6482,-0.4661,-1.0684,-1.2654,-1.3508,-1.4211,-1.5233,-1.6226,-1.7035,-1.5439,-1.309,-1.0267,-0.7923,-0.5077,-0.1201,-0.0309,0.0046,0.0218,0.009,0.0,0.0,0.161,0.2419,0.4152,0.4917,0.6073,0.7736,0.8943,0.9939,1.073,1.3931,1.6502,1.8352,1.8808,1.918,1.9472,2.0238,2.0862,2.1389,2.2321,2.2732,2.2793,2.3271,2.316,2.2696,2.3033,2.2793,2.2282,2.2361,2.2371,2.2429,0.0,0.0,0.0,0.0,0.0,0.0,0.0,0.0,0.0,0.0,0.0,0.0,0.0,0.0,0.0,0.0,0.0,0.0,0.0,2.6527,2.7168,2.654,2.9008,3.0199,2.9738,3.0685,3.1178,3.1178,3.1594,3.1767,3.1685,3.2186,3.2577,3.2849,3.2893,3.2879,3.276,3.1541,3.0273,0.0,0.0,2.4026,2.2636,1.9894,1.8839,1.865,1.7151,1.7015,1.7258,1.5267,1.2549,0.9468,0.6166,0.0391,-0.597,-1.0174,-1.3697,-1.6735,-1.9134,-1.9884,-1.956,-1.7699,-1.7064,-1.5456,-0.9942,-0.4185,-0.1223,-0.5611,-0.9745,-1.2957,-1.41,-1.4953,-1.5811,-1.6812,-1.4579,-1.1869,-0.9417,-0.6935,-0.4197,-0.1093,-0.054,-0.0278,-0.0045,-0.0233,0.0094,0.121,0.1897,0.2993,0.4679,0.6038,0.7251,0.8377,0.9878,1.1266,1.2491,1.4849,1.667,1.8021,1.8654,1.9243,1.9871,2.0505,2.123,2.2052,2.2553,2.2883,2.31,2.3282,2.3113,2.2712,2.2794,2.2511,2.2136,2.2235,2.2359,2.2521,0.0,0.0,0.0,0.0,0.0,0.0,0.0,0.0,0.0,0.0,0.0,0.0,0.0,0.0,0.0,0.0,0.0,0.0,0.0,0.0,2.5203,2.4998,2.5192,2.5303,2.5303,2.5303,2.5284,2.5264,2.6083,2.6387,2.6206,2.7201,2.797,2.855,2.8615,2.8593,2.8448,2.7082,2.557,2.3946,2.2142,2.0525,1.9059,0.0,1.7301,1.6659,1.6006,1.5474,1.4239,0.9103,0.6115,0.3633,-0.1666,-0.6322,-1.0726,-1.544,-1.6761,-1.6947,-1.8222,-1.9474,-1.9659,-1.6363,-1.613,-1.5078,-0.8877,-0.3604,-0.0,-0.0,-0.6336,-1.2296,-1.3776,-1.4561,-1.5182,-1.5847,-1.3209,-1.0154,-0.7477,-0.5329,-0.3035,-0.0441,-0.0671,-0.0804,-0.0178,-0.0603,-0.0375,0.0905,0.2293,0.3778,0.527,0.7082,0.8526,0.9408,1.0912,1.2645,1.4597,1.557,1.6673,1.782,1.868,1.9617,2.0655,2.0652,2.1312,2.2426,2.1935,2.2178,2.2884,2.2505,2.2314,2.22,2.1737,2.1623,2.1725,2.2207,2.2582,2.2964,0.0,0.0,0.0,0.0,0.0,0.0,0.0,0.0,0.0,0.0,2.4195,2.4388,0.0,0.0,0.0,0.0,0.0,0.0,0.0,0.0,0.0,2.5006,2.5201,2.5303,2.5303,2.5303,2.5226,2.5053,2.5226,2.5216,2.5079,2.5285,2.5487,2.5707,2.5726,2.5267,2.4455,2.3708,2.2648,2.1314,1.9677,1.8601,1.789,1.6932,0.0,0.0,1.4463,1.1184,0.704,0.5628,0.4772,0.3121,-0.3403,-0.7751,-1.1241,-1.5286,-1.6975,-1.7918,-1.9949,-2.0855,-2.0656,-1.8398,-1.6689,-1.4961,-1.26,-0.5789,-0.0,-0.0,-0.5651,-1.1575,-1.4791,-1.6248,-1.6354,-1.4389,-1.3203,-1.0893,-0.6163,-0.5011,-0.3691,-0.1051,-0.1295,-0.1424,-0.0804,-0.0836,0.0,0.0,0.2553,0.3533,0.4557,0.6842,0.902,1.1041,1.2278,1.346,1.4597,1.5827,1.6896,1.7906,1.8593,1.9279,1.9914,2.0893,2.1245,2.1173,2.2051,0.0,2.1444,2.1147,2.078,2.032,1.9971,2.0082,2.0557,2.0956,2.1434,2.1972,0.0,0.0,0.0,0.0,0.0,0.0,0.0,2.406,2.4983,2.6317,2.7161,2.6968,2.5143,2.5157,2.5303,0.0,0.0,0.0,0.0,0.0,0.0,2.5013,2.519,2.5303,2.5303,2.5303,2.5207,2.5005,0.0,2.4929,2.4803,2.4869,2.4903,2.4884,2.4541,2.3995,2.3248,2.1589,2.0477,1.9614,1.7381,1.6604,1.6705,1.5698,0.0,0.0,1.5101,1.1284,0.6013,0.4173,0.1592,-0.1597,-0.5949,-0.9485,-1.2587,-1.5184,-1.6691,-1.7801,-1.8924,-2.0123,-2.0364,-1.7382,-1.3051,-0.9873,-1.1186,-0.5532,-0.0,-0.0,-0.2627,-0.7665,-1.6599,-1.8017,-1.7356,-1.5968,-1.2731,-0.9535,-0.7023,-0.4425,-0.2434,-0.1498,-0.1916,-0.2049,-0.1429,-0.1366,-0.0598,0.1197,0.2425,0.3678,0.5018,0.7517,0.9935,1.2151,1.3183,1.3979,1.4634,1.589,1.6741,1.7169,1.8313,1.9082,1.9576,2.0701,2.1084,2.0815,2.1187,2.0906,2.0189,1.9848,1.9567,1.9304,1.9192,1.9453,1.9963,2.0636,2.1318,2.1943,0.0,0.0,0.0,0.0,0.0,0.0,0.0,2.612,2.756,2.8933,2.949,2.8992,2.7016,2.6225,2.5707,0.0,0.0,0.0,0.0,0.0,0.0,0.0,2.5212,2.5303,2.5303,0.0,0.0,2.5005,2.4977,0.0,0.0,0.0,0.0,0.0,2.3983,2.3256,2.2407,1.9924,1.855,0.0,0.0,1.4818,1.5438,0.0,0.0,0.0,0.0,1.1753,0.5752,0.3492,-0.1461,-0.6932,-0.8289,-1.0671,-1.3269,-1.489,-1.6125,-1.6983,-1.7075,-1.7872,-1.8205,-1.6363,-1.0006,-0.4533,-0.5795,-0.2943,-0.0,-0.0,-0.0,-0.2981,-1.2749,-1.5363,-1.566,-1.4401,-1.0141,-0.6892,-0.657,-0.3614,-0.1592,-0.1905,-0.2492,-0.2605,-0.1876,-0.1818,0.0,0.0952,0.2619,0.4291,0.5929,0.8381,1.0559,1.231,1.3472,1.4183,1.4514,1.5688,1.6367,1.6497,1.7839,1.8688,1.9148,2.0085,2.0438,2.0211,2.0005,1.9536,1.8928,1.8612,1.8412,1.8296,1.8352,1.8736,1.939,2.0234,2.1101,2.1927,0.0,0.0,0.0,0.0,0.0,0.0,0.0,2.6299,2.8124,3.0466,2.9519,2.8839,2.9317,2.8338,2.7024,0.0,0.0,0.0,0.0,0.0,0.0,0.0,0.0,0.0,0.0,0.0,0.0,2.5005,2.4882,0.0,0.0,0.0,0.0,0.0,0.0,2.2251,2.0438,1.8346,0.0,0.0,0.0,0.0,0.0,0.0,0.0,0.0,0.0,0.9716,0.2634,0.3016,-0.2923,-1.0386,-0.9712,-1.0425,-1.1952,-1.4272,-1.5253,-1.5562,-1.5538,-1.3658,-1.2864,-1.7619,-1.1448,-0.2358,0.4658,0.3003,-0.0,-0.0,-0.0,0.1046,0.4483,-0.2887,-0.8015,-0.3536,-0.3182,-0.2984,-0.1568,-0.2484,-0.3069,-0.2493,-0.3078,-0.3084,-0.1927,-0.1784,-0.0801,0.1557,0.3812,0.5644,0.6889,0.889,1.0162,1.0615,1.2691,1.3878,1.3862,1.5084,1.5928,1.6434,1.712,1.7693,1.8235,1.8769,1.8769,1.8377,1.8754,1.8373,0.0,1.745,1.7146,1.671,1.671,1.734,1.8313,1.8792,1.9878,2.1118,0.0,0.0,0.0,0.0,0.0,0.0,2.4851,2.6327,2.8055,3.0124,3.0173,2.9918,2.9678,2.8821,2.742,2.5291,0.0,0.0,0.0,0.0,0.0,0.0,0.0,0.0,0.0,0.0,2.4901,2.4707,2.4762,0.0,0.0,0.0,0.0,0.0,0.0,2.0027,1.7658,1.5037,0.0,0.0,0.0,0.0,0.0,0.0,0.0,0.0,0.0,0.0,0.371,0.2427,-0.26,-0.8424,-0.9139,-0.8925,-0.8898,-1.1409,-1.2088,-1.1975,-1.169,-0.986,-0.7645,-0.6053,-0.2555,0.1802,0.6761,0.5023,0.3257,0.6435,0.8253,0.8261,0.4986,-0.0464,-0.4771,-0.5773,-0.5308,-0.5073,-0.5895,-0.4566,-0.34,-0.315,-0.336,-0.3083,0.0,0.0,0.0236,0.2322,0.3982,0.5288,0.6225,0.807,0.969,1.0974,1.2212,1.3372,1.4329,1.5186,1.5896,1.6484,1.73,1.7839,1.8076,1.8565,1.8527,1.8037,1.7932,1.7287,0.0,1.6655,1.6484,1.6051,1.6685,1.7599,1.8579,1.9067,1.9995,2.1014,0.0,0.0,0.0,0.0,0.0,2.2661,2.4442,2.6021,2.7637,2.9408,2.9962,3.0,2.9588,2.8162,2.6785,2.565,2.5189,0.0,0.0,0.0,0.0,0.0,0.0,0.0,0.0,0.0,2.4798,2.4652,2.476,2.4564,0.0,0.0,2.3793,2.2282,0.0,0.0,0.0,0.0,0.0,0.0,0.0,0.0,0.0,0.0,0.0,0.0,0.0,0.0,0.0,0.0,0.0,-0.5133,-0.73,-0.701,-0.6364,-0.8705,-0.9315,-0.8993,-0.8009,-0.5703,-0.2524,0.2148,0.4749,0.6668,0.8613,0.6985,0.6537,1.1777,1.3946,1.2955,0.6733,0.3521,0.0433,-0.3946,-0.4296,-0.4828,-0.7141,-0.5558,-0.4011,-0.3614,0.0,-0.3176,-0.1633,0.0048,0.1553,0.2753,0.4181,0.519,0.554,0.7395,0.9273,1.1069,1.1686,1.2679,1.4154,1.4823,1.5445,1.5976,1.704,1.7558,1.7558,1.7958,1.7918,1.7518,1.7216,1.66,0.0,1.6337,1.6238,1.5952,1.6769,1.7706,1.8655,1.8855,1.9634,2.0565,0.0,0.0,0.0,0.0,0.0,0.0,2.3586,2.522,2.6918,2.8605,2.8468,2.8521,2.9324,2.6319,2.4967,2.673,2.5605,0.0,0.0,0.0,0.0,0.0,0.0,0.0,0.0,0.0,2.467,2.5003,2.4874,2.4995,2.536,2.4173,2.3869,2.424,0.0,0.0,0.0,0.0,0.0,0.0,0.0,0.0,1.1068,0.0,0.0,0.0,0.0,0.0,0.0,0.0,0.0,0.0,0.0,-0.4859,-0.4878,-0.6712,-0.7506,-0.7286,-0.4896,-0.1008,0.2564,0.3146,0.7793,1.2123,1.1819,0.9685,0.9209,1.43,1.4427,1.3584,1.3507,1.1659,0.9152,0.6065,0.2831,-0.008,-0.2464,-0.4457,-0.5227,-0.3932,-0.4131,-0.3407,-0.0976,0.1574,0.2985,0.2716,0.4734,0.0,0.5333,0.7201,0.8966,1.0356,1.0945,1.1779,1.292,1.3701,1.4327,1.4744,1.592,1.6522,1.6522,1.6522,1.6522,1.6522,1.6522,1.6522,0.0,1.6522,1.6522,1.6479,1.6522,1.7196,1.813,1.7523,1.8316,1.9569,0.0,0.0,0.0,0.0,0.0,0.0,0.0,2.3173,2.4625,2.5712,2.5631,2.5965,2.735,2.5019,2.4062,2.5723,2.4579,0.0,0.0,0.0,0.0,0.0,0.0,0.0,0.0,2.4524,2.4535,2.4664,2.474,2.4678,2.443,2.4151,2.3243,2.1744,1.8991,1.4338,0.0,0.0,0.0,0.0,0.0,1.0218,1.1169,0.0,0.0,0.0,0.0,0.0,0.0,0.0,0.0,0.0,0.0,0.0,0.0,-0.2985,-0.3679,-0.3951,-0.2587,0.0,0.2372,0.2725,0.5703,0.9338,1.24,1.0818,0.9813,1.3756,1.4052,1.347,1.301,0.9989,0.6669,0.3966,0.1066,-0.1763,-0.4373,-0.4369,-0.3895,-0.3519,-0.2241,-0.0731,0.0,0.0,0.315,0.355,0.5109,0.5981,0.5968,0.7276,0.8548,0.9595,1.0471,1.1626,1.3032,1.4023,1.4778,1.532,1.5688,1.6095,1.6466,1.5656,1.57,1.6479,1.6051,1.5864,1.5908,1.6324,1.6238,1.5908,1.6337,1.7196,1.8109,1.7439,1.7958,1.8903,0.0,0.0,0.0,0.0,0.0,0.0,0.0,2.1984,2.3116,2.3936,2.4155,2.4704,2.6007,2.4263,2.3657,2.5274,2.4041,0.0,0.0,0.0,0.0,0.0,0.0,0.0,2.4011,2.3894,2.3979,2.4309,2.4214,2.4264,2.4434,2.3542,2.2273,2.0495,1.5928,1.1617,0.0,0.0,0.0,0.0,0.8766,0.9447,1.051,0.0,0.0,0.0,0.0,0.0,0.0,0.0,0.0,0.0,0.0,0.0,0.0,0.0,-0.0199,-0.0584,-0.0246,0.1066,0.2481,0.3058,0.5318,0.804,1.0504,1.0814,1.1177,1.3278,1.3521,1.3089,1.216,0.8778,0.5375,0.3101,0.02,-0.2359,-0.4053,-0.3817,0.0,-0.3108,0.0,0.0,0.0,0.2619,0.3598,0.4263,0.5392,0.6198,0.6591,0.7504,0.8352,0.9064,0.9939,1.1157,1.2726,1.3643,1.436,1.4903,1.5365,1.5688,1.5788,1.5287,1.5332,1.5832,1.5676,1.5588,0.0,1.6238,1.6417,1.63,1.6424,1.7131,1.8017,1.7418,1.7542,1.7972,0.0,0.0,0.0,0.0,0.0,0.0,0.0,2.1522,2.221,2.2989,2.3583,2.4208,2.498,2.3676,2.3382,2.498,0.0,0.0,0.0,0.0,0.0,0.0,0.0,0.0,2.3165,2.2868,2.3134,2.3983,2.3499,2.3936,2.5173,2.2675,2.1234,2.0407,1.3077,0.9924,1.0026,0.8688,0.8187,0.829,0.8364,0.8784,0.0,0.0,0.0,0.0,0.0,0.0,0.0,0.0,0.0,0.0,0.0,0.0,0.0,0.0,0.0,0.0,0.0,0.2246,0.2993,0.3909,0.6145,0.7894,0.7073,0.9879,0.0,1.2858,1.2859,1.2408,1.1028,0.8056,0.5188,0.3365,0.0308,-0.1843,-0.1877,-0.2812,0.0,0.0,-0.0322,0.0,0.0975,0.2818,0.4248,0.4883,0.5567,0.6315,0.7092,0.7871,0.8423,0.8667,0.9328,1.0455,1.2124,1.2756,1.3338,1.3815,1.4949,1.5231,1.4789,1.5231,1.5186,0.0,1.532,1.5588,1.572,1.6331,1.6898,1.7325,1.6785,1.7125,1.7924,1.7523,1.717,1.7002,0.0,0.0,0.0,0.0,0.0,0.0,0.0,0.0,0.0,0.0,2.1287,2.1455,2.1639,2.0758,2.0737,0.0,0.0,0.0,0.0,0.0,0.0,0.0,0.0,0.0,2.2813,2.2888,2.3271,2.3928,2.45,2.5018,2.5453,2.3476,2.2,2.0797,1.5963,1.2148,0.9254,0.8709,0.8403,0.835,0.8854,0.9425,0.0,0.0,0.0,0.0,0.822,0.6201,0.0,0.0,0.0,0.0,0.0,0.0,0.0,0.0,0.2599,0.2959,0.2144,0.0,0.4342,0.3626,0.4381,0.5909,0.0,0.9111,1.0233,1.2325,1.1864,1.0608,0.9068,0.694,0.4867,0.3155,0.1093,-0.0412,-0.0726,-0.1152,0.0,-0.0685,0.0818,0.175,0.158,0.3061,0.4295,0.4982,0.5654,0.6455,0.7449,0.7795,0.8227,0.8696,0.919,1.0107,1.1434,1.2376,1.3162,1.3815,1.4086,1.463,1.5365,1.4107,1.4468,1.602,1.5242,1.5421,1.6318,1.6942,1.7262,1.7363,1.7237,1.7834,1.861,1.7581,1.7645,1.81,0.0,0.0,0.0,0.0,0.0,0.0,0.0,0.0,0.0,0.0,0.0,2.2061,2.1676,2.1149,0.0,0.0,0.0,0.0,0.0,0.0,0.0,0.0,2.2048,2.1949,2.2188,2.2389,2.2986,2.3984,2.4312,2.4591,2.4745,2.3172,2.1649,2.0058,1.625,1.2893,1.007,0.9573,0.9229,0.9007,0.9346,0.0,0.0,0.0,0.0,0.0,0.7851,0.5617,0.0,0.249,0.1993,0.165,0.0,0.0,0.0,0.0,0.4297,0.4484,0.402,0.3768,0.3612,0.3266,0.3982,0.5401,0.7968,0.9071,0.9991,1.1488,1.096,0.9845,0.8574,0.6721,0.494,0.3605,0.2099,0.078,-0.0276,0.0,-0.0254,0.0042,0.12,0.2102,0.0,0.3354,0.4412,0.5438,0.5687,0.634,0.7652,0.7736,0.7965,0.8543,0.9107,0.9923,1.1021,1.1901,1.2696,1.3372,1.3684,1.4003,1.4329,1.3931,1.4294,1.5242,1.5152,1.5596,1.6487,1.7147,1.7677,1.8091,1.7576,1.8001,1.8702,1.7553,1.7557,1.8058,0.0,0.0,0.0,0.0,0.0,0.0,0.0,0.0,0.0,0.0,0.0,0.0,0.0,0.0,0.0,0.0,0.0,0.0,0.0,0.0,0.0,2.143,2.1446,2.1476,2.1547,2.1697,2.2468,2.3908,2.3647,2.3725,2.4038,2.2431,2.0495,1.8268,1.5111,1.2767,1.114,1.0738,1.0331,0.9944,1.0094,0.0,0.0,0.0,0.0,0.0,0.0,0.0,0.0,0.2814,0.2469,0.2432,0.317,0.0,0.0,0.0,0.0,0.0,0.5922,0.4209,0.2642,0.3411,0.4652,0.6127,0.7871,0.9511,1.0685,1.0781,1.0326,0.9585,0.8492,0.6846,0.5285,0.4194,0.302,0.1738,0.0203,0.0203,0.037,0.0459,0.1494,0.0,0.2838,0.3581,0.4576,0.5833,0.5719,0.6269,0.7755,0.7655,0.7795,0.8272,0.8996,0.9811,1.075,1.1454,1.2187,1.2929,1.3505,1.36,1.32,1.4247,1.4514,1.4272,1.5174,0.0,1.645,1.7231,1.8053,1.8819,1.7965,1.8166,1.8766,1.7745,1.7524,1.7743,0.0,0.0,0.0,0.0,0.0,0.0,0.0,0.0,0.0,0.0,0.0,0.0,0.0,0.0,0.0,0.0,0.0,0.0,0.0,0.0,0.0,2.0436,2.0941,2.1266,2.1332,2.1189,2.1748,2.3009,2.3463,2.4268,2.5336,2.2125,1.8512,1.4662,1.3784,1.2169,1.02,1.1337,1.1341,1.0668,1.1722,0.0,0.0,0.0,0.0,0.0,0.0,0.0,0.0,0.2616,0.2789,0.3623,0.3756,0.0,0.0,0.0,0.0,0.0,0.5046,0.4785,0.4595,0.5232,0.6825,0.8526,0.9676,1.0234,1.0672,1.1117,1.0563,0.9343,0.7287,0.6638,0.5805,0.3917,0.3066,0.2438,0.0,0.0,0.1824,0.1715,0.0,0.286,0.2764,0.3607,0.4607,0.5666,0.5951,0.6531,0.7516,0.7742,0.7782,0.7654,0.8805,0.9737,1.044,1.1345,1.2187,1.2929,1.3505,1.4003,1.4433,1.4617,1.5197,1.6064,0.0,1.5957,1.6579,1.7631,1.8179,1.8355,1.8656,1.9096,1.9569,1.8958,1.8639,1.8447,0.0,0.0,0.0,0.0,0.0,0.0,0.0,0.0,0.0,0.0,0.0,0.0,0.0,0.0,0.0,0.0,0.0,0.0,0.0,2.1317,2.1384,2.128,2.1444,2.1342,2.0933,2.19,2.2615,2.3013,1.9575,1.8166,1.876,1.7876,1.6473,1.4618,1.3896,1.2687,1.1256,1.2052,1.2195,1.1826,0.0,0.0,0.0,0.0,0.0,0.0,0.0,0.0,0.0,0.0,0.3455,0.4371,0.4872,0.0,0.0,0.0,0.0,0.0,0.5872,0.5778,0.5592,0.5758,0.6764,0.8081,0.9504,0.985,0.9975,1.0218,1.0092,0.9389,0.7526,0.7175,0.6331,0.3914,0.0,0.2539,0.1717,0.1969,0.2171,0.0,0.0,0.3131,0.3264,0.3774,0.4492,0.5493,0.5741,0.6255,0.7167,0.7542,0.763,0.7522,0.9081,1.01,1.0381,1.2042,1.2871,1.2929,1.3505,1.3956,1.4236,1.4869,1.5499,1.6008,0.0,1.6584,1.7451,1.7664,1.8116,1.8643,1.8593,1.8907,1.9384,1.9434,1.9111,1.8715,0.0,0.0,0.0,0.0,0.0,0.0,0.0,0.0,0.0,0.0,0.0,0.0,0.0,0.0,0.0,0.0,0.0,0.0,0.0,2.1216,2.1446,2.1755,2.1817,2.1407,2.0462,2.2104,2.2101,2.0367,1.6425,1.4073,1.323,1.4064,1.455,1.4673,1.3689,1.2756,1.2016,1.2543,1.2758,1.2793,0.0,0.0,0.0,0.0,0.0,0.0,0.0,0.0,0.0,0.0,0.0,0.0,0.0,0.0,0.0,0.7918,0.7283,0.6224,0.6697,0.654,0.6198,0.6139,0.6668,0.7566,0.9004,0.9531,0.9747,0.9826,0.9903,0.9527,0.8036,0.7213,0.0,0.3751,0.3167,0.2687,0.1739,0.2193,0.256,0.2492,0.2941,0.3451,0.3884,0.4073,0.4576,0.5601,0.5731,0.615,0.6957,0.7317,0.7546,0.7699,0.9305,1.0339,1.0794,1.2706,1.3449,1.3104,1.3873,1.4226,1.4272,1.532,1.582,1.582,1.6281,1.7011,1.7802,1.7639,1.8078,1.8819,1.8643,1.8844,1.9208,1.9443,1.9307,1.898,0.0,0.0,0.0,0.0,0.0,0.0,0.0,0.0,0.0,0.0,0.0,2.0981,0.0,0.0,0.0,0.0,0.0,0.0,0.0,2.001,2.0234,2.0527,2.1455,2.1346,1.9979,2.0687,1.8106,1.1976,1.6844,1.7502,1.4201,1.325,1.285,1.2939,1.1996,1.1364,1.1075,1.2362,1.2954,1.315,1.4011,0.0,0.0,0.0,0.0,0.0,0.0,0.0,0.0,0.0,0.0,0.0,0.0,0.0,0.6291,0.6799,0.6581,0.6266,0.6541,0.6599,0.6659,0.7019,0.7753,0.8513,0.9003,0.9931,1.0795,1.11,1.0646,0.9728,0.8248,0.5886,0.3927,0.3236,0.3243,0.3299,0.3159,0.0,0.3871,0.3875,0.377,0.3907,0.43,0.4523,0.5072,0.6068,0.6476,0.6772,0.698,0.7337,0.7748,0.8209,0.8995,1.0206,1.1972,1.2771,1.3338,1.3732,1.4903,1.5487,1.5499,1.6139,1.6423,1.6423,1.6466,1.6559,1.6722,1.7727,1.8191,1.8355,1.9309,1.971,1.9645,1.9032,1.9202,1.9631,0.0,0.0,0.0,0.0,0.0,0.0,0.0,0.0,0.0,0.0,0.0,2.0027,1.999,1.9615,1.9443,0.0,0.0,0.0,1.9842,1.9836,2.0142,2.088,2.089,2.0267,1.8932,1.9571,1.6752,1.0366,1.2126,1.3775,1.5188,1.3849,1.3061,1.2754,1.1995,1.1465,1.1228,1.2486,1.3274,1.3672,1.3953,1.3901,0.0,0.0,0.0,0.0,0.0,0.0,0.0,0.0,0.5371,0.5852,0.6155,0.6403,0.6749,0.7656,0.7399,0.6898,0.7255,0.7063,0.6718,0.6404,0.6692,0.7221,0.7792,0.8444,0.8895,0.8731,0.8934,0.8661,0.7063,0.5279,0.3629,0.2208,0.2919,0.3342,0.2468,0.3364,0.4023,0.3798,0.3765,0.3844,0.391,0.3963,0.4453,0.5551,0.5777,0.6194,0.6943,0.7497,0.7972,0.8479,0.9662,1.0922,1.2279,1.352,1.4425,1.4903,1.5365,1.5588,1.5632,1.6238,1.6522,1.6522,1.6522,1.6722,1.7061,1.7124,1.7576,1.8279,1.9032,1.9522,1.9747,1.9475,1.9579,1.9747,0.0,0.0,0.0,0.0,0.0,0.0,0.0,0.0,1.9365,0.0,0.0,0.0,0.0,1.9516,1.9489,0.0,0.0,0.0,1.948,1.9433,1.9738,2.0504,2.0396,1.9882,1.8944,1.9216,1.6213,0.9781,1.0999,1.3165,1.6123,1.5032,1.4072,1.332,1.2589,1.2145,1.1966,1.2805,1.3492,1.4007,1.3992,1.3919,0.0,0.0,0.0,0.0,0.0,0.0,0.0,0.0,0.5448,0.5646,0.6042,0.6331,0.6727,0.7836,0.7661,0.7162,0.744,0.7178,0.6619,0.5843,0.582,0.6048,0.6232,0.689,0.7338,0.692,0.7211,0.7089,0.5727,0.4695,0.3504,0.0,0.282,0.3296,0.2311,0.3246,0.3929,0.3674,0.3854,0.4039,0.4131,0.4314,0.48,0.5765,0.6029,0.6458,0.7258,0.7962,0.8579,0.9074,1.0282,1.1561,1.2905,1.4046,1.5018,1.5864,1.5864,1.5864,1.5908,1.6293,1.6522,1.6522,1.6522,1.6735,1.7099,1.6886,1.7451,1.8505,1.8882,1.9346,1.9798,1.9798,1.9798,1.9798,0.0,0.0,0.0,0.0,0.0,0.0,1.9945,1.9682,1.9527,1.932,1.9305,0.0,0.0,0.0,0.0,0.0,1.8825,0.0,1.8422,1.8579,1.8818,1.9082,2.0059,2.0479,2.0285,1.9736,1.6236,0.9591,1.4839,1.7207,1.6864,1.6591,1.5765,1.447,1.3664,1.3265,1.3198,1.3285,1.3575,1.4037,1.4286,1.4485,1.4537,0.0,0.0,0.0,0.0,0.0,0.0,0.0,0.5543,0.5195,0.5735,0.59,0.6071,0.6932,0.7056,0.6899,0.6885,0.6728,0.638,0.5495,0.5438,0.5343,0.4488,0.5529,0.6619,0.6332,0.5824,0.5195,0.4509,0.3966,0.3349,0.262,0.2991,0.3273,0.2951,0.3283,0.367,0.3806,0.4176,0.4639,0.5247,0.582,0.6402,0.6938,0.7552,0.7898,0.7898,0.8853,0.9667,1.0203,1.066,1.1927,1.4086,1.4098,1.4935,1.6522,1.6522,1.6522,1.6522,1.6522,1.6522,1.6522,1.6522,1.6522,1.6559,1.7137,1.8028,1.897,1.8983,1.9346,1.9798,1.9798,1.9798,1.9798,0.0,0.0,0.0,0.0,0.0,0.0,1.9851,1.9682,1.9569,1.9513,1.9505,0.0,0.0,0.0,0.0,0.0,0.0,1.8494,1.8876,1.811,1.7816,1.8164,1.8795,1.8928,1.847,1.7653,1.6326,1.4495,1.6545,1.682,1.5426,1.5393,1.4887,1.3978,1.3421,1.3237,1.3361,1.362,1.3917,1.4219,1.4441,1.4427,1.4226,0.0,0.0,0.0,0.0,0.0,0.0,0.0,0.0,0.0,0.5792,0.6,0.6189,0.665,0.6693,0.6517,0.6099,0.58,0.5411,0.4536,0.4182,0.3898,0.3303,0.4453,0.5581,0.5291,0.4969,0.4567,0.4055,0.3858,0.0,0.2617,0.3096,0.3357,0.2818,0.3318,0.3854,0.4176,0.4317,0.4644,0.5262,0.5295,0.576,0.6894,0.697,0.7529,0.8873,0.9582,1.0362,1.1222,1.1754,1.2861,1.4646,1.4658,1.5284,1.6522,1.6522,1.6522,1.6522,1.6522,1.6522,1.6522,1.6522,1.6522,1.6559,1.7137,1.7802,1.848,1.8833,1.9346,1.9798,1.9798,2.0105,2.0497,0.0,0.0,0.0,0.0,0.0,0.0,1.9901,1.9802,1.9748,1.9692,1.968,1.9736,0.0,0.0,0.0,1.9941,1.8751,1.8106,1.8329,1.7427,1.716,1.7772,1.8397,1.8757,1.8774,1.7762,1.7136,1.6922,1.7031,1.6495,1.539,1.5664,1.5351,1.4536,1.4101,1.4024,1.4219,1.4001,1.4044,1.4295,1.4293,1.4259,1.4198,0.0,0.0,0.0,0.0,0.0,0.0,0.0,0.0,0.0,0.5917,0.5896,0.5966,0.6223,0.6024,0.5673,0.5298,0.4856,0.429,0.3446,0.3039,0.2779,0.2498,0.3336,0.4257,0.4388,0.412,0.3871,0.3742,0.3652,0.0,0.3025,0.3327,0.349,0.3087,0.3448,0.381,0.4039,0.4491,0.4919,0.5271,0.5576,0.6169,0.7284,0.7551,0.8254,0.9635,1.0615,1.14,1.1997,1.252,1.3361,1.4576,1.4802,1.5316,1.6195,1.6409,1.6522,1.6522,1.6522,1.6522,1.6522,1.6522,1.6522,1.6547,1.6898,1.7375,1.7903,1.8242,1.8832,1.9484,1.9774,2.0252,2.0845,0.0,0.0,1.9649,1.9762,0.0,1.9993,1.9983,1.9984,1.9934,1.9838,1.9829,1.989,0.0,0.0,0.0,1.9785,1.8488,1.755,1.7265,1.6634,1.6664,1.7512,1.8457,1.9352,2.0196,1.9088,1.8052,1.7157,1.658,1.624,1.6168,1.6675,1.647,1.5625,1.5233,1.5235,1.5415,1.4391,1.4088,1.4247,1.3971,1.4032,1.4271,1.3992,0.0,0.0,0.0,0.0,0.0,0.0,0.0,0.0,0.6137,0.5746,0.5496,0.5624,0.51,0.4455,0.4374,0.3809,0.3046,0.2365,0.2137,0.2068,0.2001,0.2374,0.2912,0.3577,0.3403,0.3184,0.3512,0.3395,0.3341,0.3524,0.3568,0.3571,0.3554,0.3588,0.3632,0.3727,0.4638,0.5308,0.5423,0.6362,0.7225,0.7888,0.8767,0.9581,1.0262,1.1635,1.2487,1.256,1.2973,1.3496,1.4072,1.4626,1.5153,1.5706,1.6258,1.6522,1.6522,1.6522,1.6522,1.6522,1.6522,1.6522,1.6522,1.6522,1.6861,1.7388,1.7388,1.8028,1.9006,1.9734,2.0364,2.0913,0.0,0.0,1.9609,1.9636,0.0,0.0,1.9912,1.9888,1.9884,2.0017,2.0042,2.0093,2.0231,2.0155,0.0,2.0234,1.8649,1.7592,1.7519,1.6179,1.5475,1.5664,1.7117,1.822,1.8831,1.7596,1.6444,1.5349,1.5832,1.5698,1.4973,1.5355,1.5392,1.5137,1.4958,1.5037,1.5297,1.4701,1.4296,1.4065,1.4222,1.3965,1.3551,1.3806,1.3806,0.0,0.0,0.0,0.0,0.0,0.0,0.0,0.6632,0.5977,0.5244,0.47,0.4048,0.3355,0.2729,0.225,0.1934,0.2028,0.2284,0.2441,0.207,0.2374,0.2785,0.3039,0.3111,0.3117,0.3205,0.3169,0.3168,0.321,0.3301,0.3346,0.3364,0.3398,0.3738,0.4532,0.4914,0.5481,0.6392,0.67,0.719,0.8055,0.8376,0.9229,1.0818,1.1507,1.2238,1.3007,1.3138,1.3496,1.4072,1.4626,1.5153,1.5706,1.6258,1.6522,1.6522,1.6522,1.6522,1.6522,1.6522,1.6522,1.6522,1.6522,1.6861,1.7388,1.7388,1.779,1.8526,1.959,2.0382,2.1024,0.0,0.0,0.0,0.0,0.0,0.0,0.0,0.0,2.0089,2.0224,2.0248,2.0283,2.0371,2.0305,0.0,0.0,1.8795,1.7723,1.7655,1.5983,1.519,1.5555,1.7317,1.819,1.8015,1.6619,1.5674,1.5295,1.4659,1.4389,1.4474,1.4902,1.5082,1.5057,1.5043,1.5098,1.5176,1.4772,1.4485,1.4274,1.4082,1.3835,1.3609,1.3715,1.3641,1.3241,1.1639,0.0,0.0,0.0,0.0,0.0,0.0,0.0,0.4662,0.3873,0.3111,0.2407,0.1813,0.1326,0.1029,0.1316,0.1876,0.2311,0.207,0.2374,0.2703,0.2781,0.2917,0.3039,0.3068,0.3086,0.3083,0.3083,0.3164,0.3197,0.3219,0.3434,0.3787,0.4294,0.5019,0.5725,0.6298,0.6801,0.7458,0.838,0.8714,0.9491,1.0888,1.1631,1.2278,1.2796,1.3069,1.3336,1.3659,1.4236,1.4664,1.4953,1.5731,1.6258,1.6522,1.6522,1.6522,1.6522,1.6522,1.6522,1.6522,1.6522,1.6697,1.7005,1.7255,1.7887,1.8799,1.9989,2.1011,2.1875,0.0,0.0,0.0,0.0,0.0,0.0,0.0,0.0,0.0,2.0274,2.029,2.0336,2.0472,2.0441,2.0435,0.0,0.0,0.0,1.7638,1.6007,1.5368,1.6044,1.781,1.8305,1.732,1.5823,1.5071,1.5125,1.326,1.2806,1.3704,1.4504,1.4926,1.4991,1.5191,1.5235,1.5109,1.4791,1.4619,1.4488,1.3922,1.3736,1.3774,1.3578,1.3405,1.3089,1.1914,1.1092,1.032,0.8813,0.0,0.0,0.0,0.0,0.4186,0.3279,0.2384,0.1609,0.1241,0.085,0.0565,0.0683,0.1401,0.2111,0.2004,0.2374,0.2712,0.2712,0.2781,0.2907,0.3025,0.3046,0.3046,0.3046,0.3066,0.3083,0.3159,0.3502,0.3842,0.4062,0.5139,0.5972,0.6207,0.7018,0.7842,0.8643,0.9204,0.9829,1.0654,1.1702,1.231,1.2412,1.2914,1.3198,1.3198,1.3808,1.4085,1.4097,1.5205,1.5982,1.6522,1.6522,1.6522,1.6522,1.6522,1.6522,1.6522,1.6522,1.6522,1.6552,1.6993,1.7916,1.9119,2.0331,2.1557,2.264,0.0,0.0,0.0,0.0,0.0,0.0,0.0,0.0,0.0,0.0,1.9827,1.9979,2.0441,2.0448,2.0429,2.0499,1.9538,1.8457,1.7338,0.0,0.0,1.5924,1.7178,1.7327,1.6149,1.5002,1.3765,1.2427,1.1735,1.132,1.1227,1.317,1.4228,1.4506,1.501,1.5247,1.5268,1.5037,1.4717,1.4329,1.4119,1.3777,1.3365,1.3159,1.3076,1.2757,1.0671,1.0461,1.0876,0.8945,0.8314,0.0,0.0,0.0,0.4447,0.3399,0.2196,0.1104,0.0652,0.0853,0.1116,0.0794,0.1665,0.251,0.2103,0.2374,0.2712,0.2712,0.273,0.2717,0.2734,0.274,0.274,0.274,0.2852,0.3079,0.3468,0.358,0.4028,0.516,0.5537,0.6176,0.7356,0.7772,0.8238,0.8739,0.9186,0.967,1.0247,1.1201,1.192,1.2398,1.2931,1.3198,1.3198,1.3808,1.4085,1.4097,1.5205,1.5982,1.6522,1.6522,1.6522,1.6522,1.6522,1.6522,1.6522,1.6522,1.6522,1.6522,1.6595,1.7338,1.8558,1.9749,2.0969,2.2149,0.0,0.0,0.0,0.0,0.0,0.0,0.0,0.0,0.0,0.0,0.0,1.9785,2.0438,2.0473,2.0473,2.05,1.9575,1.8465,1.7221,1.6867,1.6467,1.5982,1.7078,1.6958,1.5367,1.4355,1.3325,1.2234,1.1206,1.048,1.0043,1.0992,1.1992,1.3026,1.3821,1.4225,1.431,1.455,1.4618,1.4499,1.4257,1.371,1.3033,1.3259,1.2718,1.1774,1.1002,1.0415,0.9835,0.8779,0.8025,0.7439,0.6793,0.0,0.0,0.0,0.2289,0.1561,0.0876,0.1078,0.1419,0.1256,0.1892,0.2519,0.2323,0.2485,0.2712,0.2712,0.2712,0.2712,0.2712,0.2712,0.2712,0.2712,0.2936,0.3181,0.342,0.4048,0.4709,0.5268,0.6233,0.708,0.7647,0.8216,0.8714,0.9112,0.9289,0.9584,1.0003,1.1024,1.1701,1.1939,1.2747,1.3198,1.3198,1.3471,1.3783,1.4097,1.489,1.5517,1.607,1.6371,1.6522,1.6522,1.6522,1.6522,1.6522,1.6522,1.668,1.6993,1.7271,1.8357,1.9824,2.0278,2.1447,2.2861,0.0,0.0,0.0,0.0,0.0,0.0,0.0,0.0,0.0,0.0,0.0,1.948,2.0254,0.0,0.0,0.0,1.9412,1.8309,1.6855,1.7098,1.6818,1.5744,1.6798,1.6624,1.4984,1.3969,1.3092,1.2313,1.086,0.9735,0.8912,0.891,0.9454,1.0514,1.2169,1.3053,1.3379,1.3913,1.4338,1.4612,1.428,1.3609,1.2788,1.2732,1.2008,1.0994,1.0968,1.0271,0.9273,0.8676,0.7973,0.7202,0.6487,0.5763,0.0,0.0,0.0,0.2046,0.1407,0.1457,0.1735,0.1855,0.2154,0.2434,0.2458,0.2561,0.2632,0.0,0.2679,0.2746,0.2845,0.2779,0.2746,0.2841,0.3101,0.3421,0.3742,0.4599,0.5358,0.5814,0.7115,0.8016,0.8137,0.8801,0.9325,0.9523,0.954,0.9694,1.008,1.1048,1.165,1.1789,1.2697,1.3135,1.2998,1.2998,1.337,1.4097,1.4639,1.5205,1.5718,1.6384,1.671,1.671,1.671,1.671,1.671,1.6837,1.7146,1.7544,1.7947,1.9232,2.0889,2.0799,2.1947,2.3535,0.0,0.0,0.0,0.0,0.0,0.0,0.0,0.0,0.0,0.0,0.0,1.8981,1.984,2.0266,2.0166,1.9335,1.9104,1.8099,1.5999,1.6593,1.6377,1.492,1.5949,0.0,1.5103,1.3974,1.2892,1.1851,1.0431,0.8912,0.7326,0.731,0.7023,0.6652,1.0019,1.2045,1.2944,1.3286,1.3864,1.4478,1.4153,1.3525,1.2626,1.0924,1.0574,1.0839,0.9661,0.9704,1.0136,0.8923,0.8569,0.8569,0.7842,0.6673,0.541,0.0,0.0,0.0,0.2146,0.2046,0.2074,0.2544,0.2442,0.2244,0.2364,0.2455,0.2503,0.2514,0.2613,0.2808,0.3196,0.297,0.2812,0.3196,0.329,0.3709,0.4916,0.5174,0.5814,0.7469,0.8134,0.8715,0.9343,0.984,1.0053,0.9891,0.988,1.0105,1.0618,1.1261,1.1826,1.2354,1.2897,1.2947,1.2467,1.2454,1.2994,1.4097,1.4639,1.5205,1.5759,1.6775,1.7271,1.7271,1.7271,1.7271,1.7312,1.7827,1.8027,1.8066,1.8106,1.9232,2.0905,2.0876,2.2027,2.3595,0.0,0.0,0.0,0.0,0.0,0.0,0.0,0.0,0.0,0.0,0.0,0.0,0.0,2.0097,2.0153,1.927,1.8409,1.7861,1.7738,1.7434,1.6851,1.5937,1.6321,1.6106,1.5121,1.4392,1.3511,1.2438,1.1416,0.9792,0.7634,0.7306,0.6626,0.5809,0.8442,0.9865,1.0437,1.184,1.2648,1.3008,1.3532,1.3082,1.2017,1.1368,1.0329,0.9261,0.9702,0.9519,0.8983,0.8532,0.8252,0.8008,0.7472,0.6801,0.5931,0.4748,0.3856,0.321,0.3067,0.2956,0.2954,0.3159,0.293,0.2672,0.2696,0.2751,0.277,0.2866,0.2994,0.3233,0.3658,0.3397,0.3233,0.3691,0.3978,0.4392,0.5111,0.5904,0.6739,0.7628,0.8908,0.9657,0.9503,1.017,1.0401,0.9942,0.9905,1.0144,1.0669,1.1274,1.1839,1.2391,1.291,1.3098,1.291,1.2897,1.3132,1.3534,1.4123,1.4853,1.5736,1.6455,1.7157,1.7827,1.8185,1.8145,1.7827,1.8027,1.8302,1.8612,1.8612,1.9517,2.0764,2.0764,2.1713,2.3011,0.0,0.0,0.0,1.464,0.0,1.5043,1.4907,1.5013,1.5418,1.6311,0.0,0.0,0.0,0.0,1.9989,1.8792,1.7833,1.7368,1.7515,1.7168,1.6706,1.6119,1.6116,1.5834,1.5188,1.4451,1.3668,1.276,1.1642,0.9961,0.7761,0.7224,0.6324,0.5238,0.6884,0.7919,0.8483,0.9954,1.0837,1.1338,1.2718,1.2205,1.0474,0.9152,0.8341,0.8036,0.9064,0.8926,0.8285,0.836,0.8192,0.7891,0.7433,0.6859,0.6084,0.4837,0.4302,0.41,0.4048,0.3864,0.3731,0.386,0.3491,0.3077,0.2969,0.3057,0.3184,0.3064,0.3189,0.349,0.4086,0.3821,0.3691,0.4118,0.4532,0.4998,0.555,0.649,0.7408,0.828,0.9594,1.03,0.9962,1.0786,1.1003,1.023,1.0182,1.0481,1.1219,1.1475,1.1927,1.2634,1.2835,1.301,1.3198,1.3023,1.3023,1.321,1.395,1.479,1.5708,1.6596,1.7487,1.8419,1.893,1.8855,1.838,1.8574,1.8855,1.9169,1.9169,1.9914,2.1051,2.1051,2.1874,2.2981,1.5662,1.4788,1.4314,1.4975,1.5104,1.4968,1.4596,1.4845,1.5197,1.5502,0.0,0.0,0.0,0.0,0.0,1.7935,1.7485,1.6674,1.5186,1.5712,1.586,1.5324,1.5249,1.5243,1.5307,1.4168,1.3289,1.2737,1.1023,0.9275,0.7557,0.6996,0.6034,0.4775,0.5391,0.6287,0.7357,0.7812,0.8548,0.9606,1.1607,1.0796,0.7972,0.4138,0.456,0.7245,0.7531,0.7851,0.8176,0.8373,0.844,0.8348,0.7832,0.6925,0.5868,0.5069,0.4791,0.481,0.0,0.0,0.0,0.4704,0.4153,0.3483,0.3144,0.3452,0.3653,0.3064,0.3155,0.3575,0.4445,0.4296,0.4145,0.4558,0.496,0.5519,0.6388,0.685,0.7746,0.9475,1.0178,1.0562,1.0767,1.1756,1.1896,1.0756,1.0706,1.1194,1.2296,1.1914,1.2128,1.3173,1.2685,1.2659,1.3185,1.2672,1.2705,1.3232,1.4206,1.5052,1.5781,1.7233,1.8237,1.8968,1.9479,1.9406,1.8968,1.9479,1.969,1.969,1.969,2.0483,2.1635,2.168,2.2473,2.355,1.5458,1.4707,1.4314,1.4975,1.5104,1.5074,1.4937,1.5043,1.5359,0.0,0.0,0.0,1.8735,1.9244,1.9552,1.9586,1.8181,1.7205,1.6963,1.6423,1.5855,1.5324,1.5324,1.5349,1.5368,1.5058,1.4378,1.3343,1.2621,1.1097,0.885,0.8183,0.706,0.5638,0.5321,0.5293,0.5529,0.7021,0.7695,0.7782,0.8071,0.7162,0.5536,0.4827,0.4789,0.5221,0.5889,0.6371,0.6722,0.7086,0.7132,0.7035,0.6865,0.6819,0.6614,0.5785,0.5753,0.5993,0.5977,0.0,0.0,0.0,0.0,0.0,0.4536,0.4261,0.4002,0.3749,0.3831,0.4055,0.4395,0.4527,0.4712,0.5114,0.5488,0.5888,0.6408,0.7134,0.7988,0.8994,0.9842,1.0309,1.0225,1.1185,1.1253,0.0,1.0401,1.0954,1.1361,1.2254,1.2885,1.3185,1.3048,1.3048,1.3198,1.3048,1.3205,1.3702,1.3993,1.5033,1.6732,1.7125,1.8118,1.9479,1.9639,1.9603,1.9479,1.9639,1.969,1.969,1.969,1.9914,2.0363,2.1335,2.1919,2.2353,1.5911,1.4938,1.4309,1.497,1.5084,1.5045,1.489,1.4975,1.5374,0.0,0.0,0.0,1.9141,1.9527,1.9573,1.9288,1.8088,1.7122,1.6622,1.5917,1.5356,1.5023,1.5132,1.5189,1.5182,1.4924,1.4433,1.3777,1.2798,1.1468,0.9844,0.8882,0.7702,0.639,0.587,0.5331,0.4944,0.6063,0.626,0.5848,0.5753,0.5091,0.4202,0.4556,0.4532,0.4411,0.0,0.0,0.6079,0.6356,0.655,0.6595,0.6096,0.6468,0.6933,0.6063,0.6297,0.6803,0.6737,0.6956,0.719,0.7179,0.0,0.0,0.5151,0.4964,0.4766,0.3956,0.4065,0.4298,0.4382,0.4389,0.4671,0.5538,0.5937,0.6299,0.6704,0.7322,0.8109,0.9079,0.9671,1.0179,1.0635,1.1076,1.1058,1.0415,1.0487,1.0762,1.1216,1.2498,1.3198,1.3198,1.3198,1.3198,1.3198,1.3391,1.3648,1.3901,1.4246,1.5193,1.6698,1.714,1.8066,1.9286,1.957,1.969,1.969,1.969,1.969,1.969,1.969,2.0034,2.0617,2.141,2.2039,2.2592,0.0,1.5433,1.4451,1.5008,1.5088,1.4984,1.4674,1.495,1.5506,0.0,1.6915,1.8048,2.0006,2.0316,1.9714,1.8049,1.7603,1.6744,1.5221,1.485,1.4622,1.4559,1.4726,1.4841,1.483,1.4297,1.4004,1.3984,1.2232,1.1092,1.0559,0.9269,0.8137,0.7153,0.6819,0.6128,0.524,0.5299,0.4885,0.4167,0.4445,0.4177,0.3644,0.3733,0.3954,0.4247,0.4567,0.5106,0.5707,0.5952,0.6424,0.0,0.5733,0.6242,0.7062,0.6204,0.6627,0.7357,0.7344,0.7611,0.7842,0.758,0.7277,0.0,0.5438,0.5679,0.5695,0.412,0.4216,0.4568,0.4534,0.4269,0.4539,0.5986,0.6422,0.6678,0.7047,0.7451,0.8136,0.9307,0.9465,0.9928,1.1181,1.1015,1.099,1.1343,1.0695,1.0682,1.1547,1.2634,1.3198,1.3198,1.3198,1.3232,1.3301,1.3682,1.3934,1.4019,1.4752,1.5466,1.6195,1.7223,1.8089,1.8747,1.9405,1.969,1.969,1.969,1.969,1.969,1.969,2.0468,2.1605,2.1665,2.2458,2.3505,1.6854,1.5996,1.527,1.5115,1.5093,1.5159,1.5359,1.5762,1.6309,1.6994,1.8034,1.9276,2.082,2.0588,1.9852,1.8704,1.7871,1.6971,1.5939,1.4987,1.439,1.4283,1.4364,1.4399,1.4346,1.458,1.4442,1.3919,1.2966,1.1995,1.1041,0.9764,0.8788,0.8109,0.7826,0.7125,0.6139,0.6166,0.551,0.4486,0.4349,0.3862,0.3226,0.3467,0.3335,0.3119,0.3706,0.4001,0.4266,0.5211,0.6211,0.702,0.0,0.0,0.0,0.7077,0.0,0.7826,0.7603,0.7769,0.8004,0.0,0.0,0.0,0.681,0.6533,0.6275,0.5704,0.5679,0.568,0.5413,0.5526,0.5954,0.6919,0.7008,0.702,0.7093,0.7443,0.7901,0.8492,0.8558,0.8774,0.9301,0.9672,0.9741,0.9391,1.0285,1.1084,1.1643,1.2666,1.3198,1.3198,1.3198,1.3391,1.3769,1.3835,1.4214,1.4876,1.5013,1.5619,1.6603,1.7352,1.8089,1.8747,1.9405,1.969,1.969,1.969,1.969,1.969,1.969,2.0183,2.0976,2.15,2.2188,2.2936,1.7093,1.6243,1.5491,1.5168,1.5242,1.5418,1.5579,1.613,1.6722,1.7231,1.8374,1.9495,2.0406,2.0354,1.9858,1.8885,1.7889,1.6937,1.6061,1.5281,1.4603,1.4069,1.4436,1.4499,1.4162,1.454,1.4673,1.4509,1.3361,1.2487,1.1853,1.0219,0.9134,0.8537,0.8241,0.7627,0.6775,0.6505,0.5577,0.4249,0.4279,0.3963,0.3467,0.3555,0.3581,0.3589,0.3839,0.407,0.4372,0.5112,0.5983,0.0,0.6964,0.7462,0.7878,0.0,0.7595,0.8112,0.0,0.0,0.0,0.8365,0.0,0.0,0.0,0.7656,0.7647,0.8178,0.754,0.684,0.6693,0.6794,0.7025,0.7423,0.746,0.7412,0.7394,0.7579,0.7851,0.8255,0.8294,0.8527,0.9147,0.905,0.892,0.8795,1.0389,1.1427,1.1631,1.2647,1.3198,1.3198,1.3425,1.3648,1.3901,1.431,1.469,1.5104,1.5359,1.5891,1.6726,1.7399,1.8089,1.8747,1.9405,1.969,1.969,1.969,1.969,1.969,1.969,2.0109,2.0797,2.1455,2.2113,2.2813,1.7396,1.6598,1.5879,1.5495,1.5699,1.5936,1.5983,1.655,1.7167,1.7742,1.865,1.9376,1.9759,1.9881,1.9468,1.8336,1.7503,1.6713,1.5908,1.5603,1.498,1.3931,1.4606,1.4641,1.3871,1.4333,1.4753,1.5108,1.3719,1.2891,1.2583,1.0816,0.9574,0.8829,0.8665,0.8106,0.7267,0.6725,0.5632,0.4335,0.443,0.4125,0.3599,0.3638,0.3889,0.4186,0.4205,0.4458,0.4854,0.527,0.5859,0.6466,0.6876,0.732,0.0,0.0,0.0,0.0,0.0,0.0,0.0,0.0,0.0,0.9028,0.0,0.0,0.0,0.9931,0.0,0.0,0.0,0.0,0.0,0.7822,0.0,0.0,0.0,0.7754,0.0,0.8165,0.8176,0.8452,0.9164,0.8728,0.8546,0.8883,1.052,1.1538,1.1613,1.2529,1.3085,1.3198,1.3648,1.3934,1.4032,1.4752,1.5165,1.5225,1.5743,1.6234,1.6741,1.7518,1.8208,1.8747,1.9405,1.969,1.969,1.969,1.969,1.969,1.969,2.0109,2.0782,2.1321,2.1994,2.2783,1.7783,1.7552,1.7271,1.6706,1.6823,1.7109,1.7434,1.7546,1.81,1.9502,1.9509,1.9501,1.9762,1.9302,1.8222,1.639,1.6388,1.6276,1.576,1.59,1.536,1.3888,1.4633,1.4417,1.2974,1.4035,1.4766,1.5106,1.4272,1.345,1.2676,1.1791,1.064,0.9333,0.9773,0.9103,0.7607,0.7001,0.641,0.5793,0.5043,0.3984,0.0,0.3354,0.3497,0.3497,0.4028,0.4458,0.4912,0.0,0.5882,0.6153,0.0,0.754,0.7695,0.7656,0.0,0.0,0.0,0.0,0.0,0.0,0.7842,0.0,0.0,0.0,0.8453,0.8906,0.0,0.0,0.0,0.0,0.0,0.0,0.0,0.0,0.7695,0.8004,0.8119,0.7803,0.7773,0.7812,0.7901,0.8425,0.8921,0.9289,1.0245,1.1053,1.1563,1.2178,1.2697,1.3185,1.3648,1.4052,1.4438,1.4876,1.5329,1.5712,1.6323,1.6637,1.6756,1.7996,1.8627,1.8747,1.9405,1.969,1.969,1.969,1.969,1.969,1.969,2.0109,2.0722,2.0797,2.1605,2.2724,1.8181,1.7809,1.7517,1.6903,1.7179,1.7552,1.7676,1.8069,1.8628,1.9442,1.9487,1.9482,1.9553,1.9271,1.8566,1.7231,1.6294,1.5949,0.0,1.6028,1.5499,1.4751,1.555,1.5306,1.376,1.4333,1.4792,1.5101,1.4283,1.3333,1.2282,1.1539,1.0604,0.9566,0.9318,0.8162,0.6421,0.6534,0.5803,0.4594,0.4653,0.4019,0.0,0.3937,0.4332,0.4483,0.476,0.4937,0.5171,0.0,0.6285,0.0,0.0,0.0,0.0,0.8105,0.0,0.0,0.0,0.0,0.0,0.0,0.0,0.0,0.8314,0.0,0.8872,0.0,0.0,0.0,0.0,0.0,0.0,0.0,0.8398,0.0,0.0,0.0,0.8244,0.7754,0.0,0.0,0.8816,0.9012,0.9209,0.9381,1.0217,1.0973,1.155,1.2115,1.2634,1.3185,1.3868,1.4342,1.4501,1.5525,1.6143,1.6338,1.6965,1.7473,1.7861,1.8448,1.8912,1.9286,1.957,1.969,1.969,1.969,1.969,1.969,1.969,1.9854,2.0168,2.0572,2.1306,2.2158,1.8668,1.8172,1.782,1.7382,1.7597,1.7868,1.7966,1.8591,1.9103,1.9306,1.9496,1.9471,1.9115,1.8815,1.825,1.7257,1.5821,1.5406,0.0,0.0,1.5796,1.5179,1.6177,1.595,1.4225,1.456,1.4879,1.511,1.4397,1.3424,1.2237,1.1652,1.0778,0.9682,0.8822,0.7495,0.5927,0.6041,0.5288,0.4048,0.4568,0.4494,0.4076,0.4502,0.4931,0.5309,0.5467,0.5435,0.5386,0.5955,0.6427,0.0,0.7985,0.0,0.8271,0.0,0.0,0.0,0.791,0.0,0.0,0.0,0.0,0.0,0.0,0.0,0.0,0.0,0.0,0.0,0.0,0.0,0.9562,0.9282,0.0,0.8448,0.0,0.8541,0.0,0.0,0.0,0.0,0.0,0.9458,0.9434,0.954,1.0108,1.0822,1.155,1.1964,1.2537,1.3378,1.4117,1.4648,1.4942,1.6105,1.6801,1.6995,1.7637,1.8238,1.8717,1.8897,1.9226,1.969,1.969,1.969,1.969,1.969,1.969,1.969,1.969,1.9794,2.0034,2.0528,2.1246,2.2024,1.9309,1.8895,1.8566,1.8547,1.8351,1.8318,1.8717,1.9237,1.9596,1.9662,1.9805,1.9469,0.0,0.0,0.0,0.0,0.0,1.4509,1.5383,0.0,1.6428,1.4604,1.6046,1.5868,1.3675,1.446,1.4965,1.511,1.4812,1.406,1.2873,1.2638,1.1552,0.975,0.8743,0.7792,0.6892,0.5783,0.5289,0.5251,0.5271,0.5491,0.5727,0.0,0.4776,0.5372,0.589,0.0,0.0,0.6084,0.6151,0.0,0.0,0.0,0.0,0.0,0.0,0.0,0.0,0.0,0.0,0.7705,0.0,0.0,0.0,0.0,0.9154,0.0,0.0,0.0,0.0,1.0565,0.9595,0.9574,0.9124,0.0,0.0,0.0,0.0,0.0,0.0,0.0,0.0,0.9408,0.9528,0.0,0.9918,1.042,1.1525,1.16,1.2321,1.3828,1.4278,1.5001,1.6042,1.6465,1.704,1.7667,1.8358,1.8687,1.8732,1.9361,1.966,1.969,1.969,1.969,1.969,1.969,1.969,1.969,1.969,2.0094,2.0677,2.0707,2.1545,2.2694,2.0374,1.909,1.8031,1.8061,1.8146,1.8373,1.886,1.9394,1.9744,0.0,1.9804,0.0,0.0,1.7581,1.6645,0.0,0.0,1.4179,1.5145,1.5695,0.0,0.0,0.0,1.6669,0.0,1.5103,1.5262,1.4776,1.4283,1.3338,1.2039,1.1915,1.0784,0.8787,0.8141,0.7306,0.6344,0.5553,0.4977,0.0,0.0,0.5658,0.6244,0.0,0.5689,0.6121,0.6305,0.6068,0.0,0.6885,0.6983,0.6967,0.8468,0.8586,0.8354,0.9149,0.8926,0.0,0.0,0.0,0.8511,0.856,0.0,0.0,0.0,0.0,0.0,0.0,0.0,0.0,0.0,1.0742,0.9999,1.0003,0.934,0.8955,0.0,1.0282,0.0,0.0,0.0,0.0,0.0,0.0,0.0,0.0,0.9905,0.0,1.1913,1.2007,1.2697,1.4237,1.5113,1.5727,1.6102,1.7368,1.8149,1.8388,1.9031,1.9346,1.9361,1.9585,1.969,1.969,1.969,1.969,1.969,1.969,1.969,1.969,1.969,2.0378,2.1321,2.0872,2.1545,2.281,2.0541,1.9019,1.7815,1.8035,1.831,1.8643,1.9077,1.9555,0.0,0.0,1.9444,0.0,1.7607,0.0,1.6113,0.0,1.3973,1.395,1.492,1.5092,0.0,1.5257,1.6438,0.0,0.0,1.5093,1.505,1.4286,1.3874,1.3007,1.1738,1.1409,1.0321,0.8634,0.7914,0.7099,0.6199,0.551,0.5073,0.0,0.0,0.6184,0.0,0.0,0.6615,0.6771,0.0,0.6969,0.6706,0.7472,0.7572,0.7571,0.8786,0.8931,0.877,0.9619,0.9365,0.8887,0.915,0.9197,0.0,0.9251,0.9182,0.0,0.9133,0.0,0.0,0.0,0.0,0.0,0.0,0.0,1.0606,1.1102,1.0367,0.9985,0.0,1.1487,0.0,0.0,0.0,0.0,0.0,0.0,0.0,0.0,0.0,0.0,0.0,1.2586,1.3331,1.4662,1.5613,1.6282,1.6676,1.8015,1.8822,1.9061,1.948,1.969,1.969,1.969,1.969,1.969,1.969,1.969,1.969,1.969,1.969,1.9705,1.9959,2.0722,2.165,2.1216,2.1994,2.3442,1.9903,1.8794,1.802,1.848,1.8789,1.9081,0.0,0.0,1.9703,0.0,1.8774,1.8124,1.6791,1.5706,1.4923,1.4481,1.3802,1.3786,1.4658,1.4828,0.0,0.0,1.5064,1.4809,1.4111,0.0,0.0,1.3712,1.3662,1.3075,1.2015,1.1201,1.0269,0.9233,0.8091,0.7161,0.6457,0.5672,0.5585,0.6006,0.639,0.708,0.7826,0.7761,0.7534,0.7346,0.8295,0.8268,0.7826,0.7867,0.7872,0.7894,0.8372,0.8724,0.917,1.0067,1.0008,0.9639,0.9695,0.9756,0.9818,0.9807,1.0178,0.0,0.0,0.0,1.0521,0.0,0.0,0.0,0.0,0.0,1.1369,1.2751,1.2161,1.1629,1.1943,1.2442,1.2347,0.0,0.0,0.0,0.0,0.0,0.0,0.0,0.0,0.0,0.0,1.3386,1.4207,1.512,1.5799,1.6676,1.7682,1.8403,1.9076,1.969,1.969,1.969,1.969,1.969,1.969,1.969,1.969,1.969,1.969,1.972,1.9735,1.9809,2.0498,2.1171,2.1739,2.1784,2.2899,2.4552,1.9894,1.9411,1.8726,1.7932,1.8286,1.8842,0.0,0.0,0.0,0.0,1.8078,1.7076,1.5936,1.5296,1.4619,1.3752,1.3515,0.0,0.0,0.0,0.0,1.3992,1.512,1.5201,1.3983,1.483,0.0,1.4075,1.4036,1.352,1.2501,1.1598,1.0353,0.8813,0.7674,0.6895,0.6457,0.5975,0.6152,0.6837,0.7275,0.7789,0.8281,0.0,0.8784,0.8967,0.8926,0.863,0.8333,0.8948,0.8746,0.8417,0.9486,0.944,0.9239,1.046,1.052,1.0339,1.1049,1.1225,1.1205,1.1233,1.1068,1.0904,0.0,0.0,0.0,0.0,0.0,0.0,0.0,0.0,0.0,1.2801,1.2995,1.3134,1.322,0.0,0.0,1.467,0.0,0.0,0.0,0.0,0.0,0.0,0.0,0.0,1.3182,1.4242,1.5125,1.561,1.6707,1.7421,1.7697,1.8867,1.951,1.969,1.969,1.969,1.969,1.969,1.969,1.969,1.969,1.969,1.972,2.0243,2.0453,2.0513,2.1186,2.1844,2.2488,2.2936,2.3675,2.4574,1.9822,1.972,1.9356,1.8596,0.0,0.0,1.892,1.9039,0.0,1.8388,1.763,0.0,1.5625,1.4806,1.4209,1.3922,1.3599,0.0,1.4328,0.0,0.0,1.399,1.4555,1.4503,1.37,1.4463,0.0,1.4155,1.4036,1.3546,1.2726,1.1776,1.0493,0.8932,0.794,0.7259,0.676,0.6518,0.6887,0.7684,0.7959,0.8398,0.0,0.9189,0.9541,0.9883,0.9648,0.9416,0.927,0.951,0.9293,0.9035,0.9769,0.9814,0.9792,1.0735,1.1025,1.1129,1.167,1.193,1.207,1.2105,1.2022,1.1981,1.2021,1.2217,1.2405,0.0,1.2957,1.34,0.0,0.0,0.0,1.343,1.3672,1.3941,0.0,0.0,0.0,0.0,1.4307,0.0,0.0,0.0,0.0,0.0,0.0,0.0,0.0,1.5198,1.5995,1.6204,1.7475,1.8149,1.8149,1.9465,1.9989,1.969,1.969,1.969,1.969,1.969,1.969,1.969,1.969,1.969,1.9735,2.0423,2.0722,2.0812,2.1754,2.2517,2.3161,2.3804,2.4533,2.5377,1.9677,1.9869,0.0,0.0,0.0,0.0,0.0,1.9298,0.0,1.7884,0.0,1.6569,1.5462,1.4268,1.3783,1.431,0.0,1.4091,1.5375,1.4362,1.3937,1.454,1.3885,1.3497,1.348,1.379,1.4038,0.0,1.4062,1.3688,1.3121,1.213,1.0937,0.9557,0.8687,0.796,0.7363,0.7363,0.7807,0.859,0.8564,0.8984,0.9602,0.9661,0.9951,1.0283,1.0283,1.0283,1.0225,0.9844,0.968,0.9717,0.9744,1.0108,1.0576,1.1052,1.1542,1.192,1.1957,1.2282,1.2579,1.2579,1.2908,1.3107,1.2695,1.2851,1.3138,1.3262,1.361,1.415,0.0,0.0,0.0,1.4442,0.0,0.0,0.0,0.0,0.0,0.0,0.0,0.0,0.0,0.0,0.0,0.0,0.0,0.0,0.0,0.0,1.6712,1.6712,1.7939,1.8657,1.8837,2.0004,2.0318,1.9824,1.9735,1.969,1.969,1.969,1.969,1.969,1.969,1.9735,1.9869,2.0557,2.0946,2.1216,2.2353,2.3131,2.367,2.4268,2.5256,2.6439,1.9485,0.0,0.0,0.0,0.0,2.0536,1.9699,1.9291,1.8745,1.7817,1.6689,1.5588,1.4625,1.3859,1.3481,1.3583,1.4022,0.0,0.0,0.0,0.0,1.4998,1.4344,1.3944,1.3903,1.3763,1.4066,1.492,1.5199,1.5173,1.4856,1.3736,1.2465,1.1044,0.9593,0.8885,0.8754,0.8684,0.0,0.9466,0.9392,0.9466,0.9631,1.0029,1.0215,1.0283,1.0283,1.0283,1.0273,1.0195,1.0166,1.0243,1.0641,1.0818,1.1063,1.1959,1.2318,1.2473,1.2838,1.3012,1.3094,1.3094,1.3129,1.3276,1.3585,1.3677,1.3923,1.4583,1.4811,1.5035,1.5595,0.0,0.0,0.0,0.0,0.0,0.0,0.0,0.0,0.0,0.0,1.5115,0.0,0.0,0.0,0.0,0.0,0.0,0.0,0.0,1.6712,0.0,1.7458,1.8418,0.0,0.0,2.0094,2.0528,1.9959,1.969,1.969,1.969,1.969,1.969,1.969,2.0004,2.0587,2.1246,2.2143,2.3116,2.3355,2.3505,2.361,2.3729,2.4917,2.6632,0.0,0.0,0.0,0.0,0.0,0.0,0.0,2.0365,0.0,1.8397,1.7477,1.6621,1.5882,1.5053,1.4626,1.4841,1.4992,1.5163,1.5371,1.5354,1.5197,1.4875,1.4535,1.4336,1.431,1.4185,1.4543,1.5408,1.5439,1.539,1.5278,1.4391,1.319,1.1764,1.0418,0.9793,0.9764,0.0,0.0,0.9975,0.9711,0.9729,0.999,1.0195,1.0283,1.0322,1.0572,1.0649,1.0611,1.039,1.0467,1.0687,1.0943,1.1345,1.1872,1.2354,1.2685,1.2908,1.3129,1.3198,1.3198,1.3198,1.3391,1.3615,1.3835,1.4214,1.4627,1.5013,1.5285,1.5551,1.577,1.5799,0.0,0.0,0.0,0.0,0.0,0.0,0.0,0.0,0.0,0.0,0.0,0.0,0.0,0.0,0.0,0.0,0.0,0.0,1.7219,0.0,0.0,0.0,1.9675,0.0,2.0213,2.0183,1.9839,1.969,1.969,1.969,1.969,1.9705,2.0064,2.0408,2.0797,2.1799,2.2757,2.3595,2.3595,2.3819,2.4178,2.4522,2.5636,2.7081,0.0,2.0783,0.0,0.0,2.2084,0.0,2.2444,2.1311,2.0006,1.8946,1.8351,1.7768,1.7105,1.618,1.5731,1.605,1.5925,1.5946,1.617,1.5808,1.534,1.4828,1.4703,1.4577,1.445,1.431,1.4664,0.0,1.5277,1.5299,1.5506,1.4794,1.3639,1.2161,1.1312,0.0,0.0,0.0,1.0144,1.0399,0.994,0.9971,1.0283,1.0283,1.0283,1.0361,1.0829,1.1019,1.0943,1.0687,1.0878,1.1207,1.1282,1.1872,1.2508,1.2615,1.2908,1.3198,1.3198,1.3198,1.3198,1.3198,1.3547,1.3934,1.4032,1.4596,1.5134,1.5225,1.5551,1.5799,1.5799,1.5799,0.0,0.0,0.0,0.0,0.0,0.0,0.0,0.0,0.0,0.0,1.7216,0.0,0.0,0.0,0.0,0.0,1.5993,0.0,0.0,0.0,0.0,1.9615,1.9899,0.0,2.0288,1.9899,1.975,1.9765,1.9899,1.9899,1.9974,2.0139,2.0677,2.0991,2.1216,2.2383,2.3251,2.3819,2.3819,2.4238,2.4896,2.542,2.6412,2.7501,0.0,0.0,0.0,0.0,0.0,0.0,2.2346,2.1229,1.9941,1.8932,1.8399,1.7682,1.6597,1.594,1.5629,1.564,1.6238,1.6466,1.6203,1.6769,1.6618,1.5538,1.4968,1.4466,1.3969,1.3381,1.365,0.0,1.4964,1.5464,1.6291,1.5358,1.4042,1.2447,0.0,0.0,0.0,1.1089,1.0897,1.0905,1.0417,1.0244,1.0283,1.0283,1.0283,1.0361,1.0829,1.1019,1.1057,1.1516,1.17,1.1811,1.2246,1.2425,1.2579,1.3012,1.3163,1.3198,1.3198,1.3198,1.3198,1.3198,1.3547,1.4,1.4374,1.4783,1.5225,1.5639,1.577,1.5799,1.5799,1.5799,1.5964,0.0,0.0,0.0,0.0,0.0,1.6307,1.5511,0.0,0.0,0.0,1.6305,0.0,0.0,1.618,0.0,0.0,0.0,0.0,1.8568,1.8732,1.939,2.0602,2.0064,2.0064,2.0617,1.9989,2.0019,2.0617,2.0617,2.0946,2.1515,2.1575,2.1934,2.2547,2.3236,2.3924,2.4492,2.4492,2.4941,2.5525,2.5585,2.6412,2.7579,0.0,0.0,0.0,0.0,0.0,0.0,0.0,2.1284,2.0118,1.9584,1.9041,1.836,1.7505,1.7116,1.6763,1.6364,1.6772,1.6844,1.6298,1.6266,1.5985,1.5316,1.4846,1.4465,1.4254,1.3986,1.4095,0.0,0.0,0.0,0.0,1.5527,0.0,0.0,0.0,1.2508,1.1774,1.1579,1.1132,1.0572,1.04,1.0283,1.0283,1.0283,1.0467,1.0802,1.1282,1.1653,1.1982,1.2461,1.2461,1.2246,1.2425,1.2685,1.2943,1.3129,1.3198,1.3198,1.3198,1.3198,1.3267,1.3547,1.3934,1.4374,1.4783,1.5195,1.558,1.577,1.5799,1.5799,1.5799,1.5799,1.5994,0.0,0.0,0.0,0.0,0.0,0.0,0.0,0.0,1.7158,0.0,1.6967,0.0,0.0,0.0,0.0,0.0,0.0,0.0,1.9271,0.0,1.975,2.0707,2.0034,1.9824,2.0094,2.0243,2.0453,2.0722,2.1126,2.1665,2.2308,2.2682,2.3221,2.3894,2.4537,2.4971,2.5211,2.5211,2.5615,2.6246,2.6626,2.7319,2.8218,2.1635,0.0,2.2522,0.0,2.2866,2.2417,2.2983,2.1701,2.0589,2.037,1.959,1.886,1.8303,1.7898,1.7455,1.6977,1.7076,1.686,1.6145,1.5777,1.533,1.4783,1.447,0.0,1.4117,1.4117,1.4117,1.4117,1.5027,0.0,0.0,0.0,0.0,0.0,1.322,1.2544,1.1774,1.1627,1.1067,1.0283,1.0283,1.039,1.0505,1.0505,1.0802,1.133,1.2005,1.2338,1.2603,1.3233,1.3247,1.2926,1.2769,1.2943,1.3198,1.3198,1.3198,1.3198,1.3198,1.3311,1.3525,1.3808,1.4316,1.4786,1.5041,1.5448,1.5858,1.6024,1.6204,1.6353,1.6353,1.6189,1.6338,1.7145,0.0,0.0,0.0,0.0,0.0,0.0,1.7311,1.7591,1.8054,1.7914,0.0,0.0,0.0,0.0,0.0,0.0,0.0,0.0,0.0,0.0,2.0408,1.9929,1.9794,1.9989,2.0483,2.0917,2.1321,2.1964,2.2622,2.3266,2.349,2.4103,2.4941,2.5211,2.5555,2.5899,2.5899,2.6422,2.727,2.7888,2.8638,2.9517,2.195,2.2373,2.288,2.3815,2.371,2.3587,2.3939,2.2565,2.1416,2.1221,1.9908,1.8913,1.8624,1.7815,1.7296,1.728,1.6977,1.6454,1.5662,1.5605,1.5093,0.0,0.0,1.3682,1.3232,1.3232,1.3232,1.3232,0.0,0.0,1.4084,0.0,1.3682,1.3198,1.272,1.2246,1.1774,1.1244,1.0725,1.0283,1.0283,1.0572,1.0981,1.0981,1.1319,1.1915,1.2941,1.2948,1.2651,1.3739,1.4072,1.3984,1.3361,1.3198,1.3198,1.3198,1.3198,1.3198,1.3198,1.3634,1.4042,1.3913,1.4594,1.5266,1.511,1.5448,1.5978,1.6577,1.7219,1.7667,1.7667,1.7145,1.713,1.8463,0.0,0.0,0.0,0.0,0.0,1.8161,1.7879,1.7989,1.872,1.8834,0.0,0.0,0.0,0.0,0.0,0.0,0.0,1.966,1.969,0.0,1.969,1.969,2.0034,2.0707,2.0722,2.1395,2.2724,2.3295,2.3954,2.4522,2.3894,2.4358,2.5555,2.4866,2.5405,2.6572,2.6572,2.7395,2.8666,2.9354,3.0383,3.155,2.2745,2.3239,2.3656,2.3949,2.3861,2.3827,2.3978,2.2532,2.1383,2.1219,2.0267,1.9345,1.8658,1.7815,1.7199,0.0,1.6369,1.5777,0.0,1.4741,1.4269,1.3934,1.3581,1.3357,1.3198,1.3198,1.3198,1.3198,0.0,0.0,0.0,1.4219,1.3724,1.3154,1.3412,1.2865,1.1726,1.153,1.1001,1.0283,1.0283,1.0572,1.1019,1.1019,1.1542,1.2305,1.265,1.3095,1.363,1.3986,1.4337,1.4614,1.4412,1.435,1.435,1.435,1.435,1.435,1.435,1.4236,1.4143,1.4398,1.4594,1.48,1.5056,1.5786,1.6592,1.7249,1.7548,1.7697,1.7697,1.7518,1.7667,1.8568,1.8343,0.0,0.0,0.0,0.0,1.8238,1.8361,1.8558,1.8765,1.8556,0.0,0.0,0.0,0.0,0.0,0.0,0.0,0.0,2.0378,0.0,2.0378,2.0842,2.0946,2.0722,2.162,2.2488,2.3325,2.3999,2.4373,2.4627,2.5345,2.5884,2.6303,2.6542,2.6886,2.726,2.726,2.7814,2.8733,2.9829,3.0783,3.1661,2.3428,2.3771,2.4082,2.4344,2.4356,2.4381,2.4514,2.3018,2.1905,2.196,2.0739,1.968,1.9108,1.8349,0.0,1.6863,1.6176,1.5606,1.5184,1.4572,1.4117,1.3994,1.3696,1.3446,1.3198,1.3198,0.0,1.3198,1.3873,1.4202,1.4202,1.3912,1.3545,1.3118,1.3302,1.2854,1.1912,1.1542,1.1075,1.0508,1.0342,1.0687,1.1341,1.1513,1.223,1.3143,1.3545,1.4013,1.44,1.44,1.4765,1.518,1.4979,1.5205,1.5404,1.5029,1.4765,1.4601,1.4601,1.4349,1.4131,1.4358,1.4493,1.4735,1.5324,1.6491,1.7563,1.7981,1.8283,1.8463,1.8463,1.8268,1.8313,1.8972,1.8867,1.8792,1.9031,0.0,0.0,0.0,0.0,0.0,0.0,1.9044,1.9229,0.0,0.0,0.0,0.0,0.0,0.0,2.0707,2.0961,2.1081,2.1081,2.1485,2.162,2.147,2.2772,2.3465,2.3674,2.4596,2.5136,2.539,2.5974,2.6497,2.6976,2.7141,2.735,2.7655,2.7859,2.8559,2.951,3.0798,3.1854,3.2803,2.3949,2.4063,2.4276,0.0,2.5069,0.0,2.5364,2.3895,2.2882,2.3145,2.1334,1.9944,1.9799,1.9311,1.8406,1.6966,0.0,0.0,0.0,1.4954,1.4556,1.4172,1.4148,1.3909,1.3323,1.3273,1.3235,1.3198,1.3198,1.3198,1.3198,1.3238,1.3204,1.3088,1.2648,1.2384,1.2192,1.1364,1.0979,1.091,1.0607,1.1044,1.1949,1.2415,1.3208,1.4223,1.5255,1.5304,1.4966,1.4966,1.5291,1.5668,1.5153,1.5693,1.6308,1.5291,1.4626,1.4198,1.4198,1.4148,1.4067,1.3931,1.4296,1.4948,1.5976,1.7474,1.8648,1.8678,1.9256,1.969,1.9639,1.9146,1.8972,1.9585,1.9166,1.8986,1.96,0.0,0.0,0.0,0.0,0.0,1.963,2.0035,2.0089,0.0,0.0,0.0,0.0,0.0,2.0714,2.0722,2.1395,2.1739,2.1695,2.1784,2.2158,2.2873,2.4044,2.4354,2.3873,2.5127,2.6019,2.6557,2.5989,2.6437,2.7565,2.6916,2.7036,2.7709,2.8353,2.9453,3.0818,3.2103,3.347,3.4688,0.0,0.0,2.4815,2.4967,2.5225,2.539,2.5405,2.431,2.3398,2.3228,2.1941,2.0725,1.9892,1.9911,1.9276,1.7485,1.668,1.6194,1.6089,1.5312,1.4815,1.4714,1.4714,1.4651,1.4488,1.411,1.3647,1.3198,1.3198,1.3198,1.3223,1.3642,1.3509,1.301,1.2968,1.2484,1.176,1.2035,1.1902,1.161,1.194,1.2411,1.2918,1.2647,1.3192,1.4123,1.4387,1.4928,1.5492,1.5492,1.5869,1.6308,1.617,1.6308,1.6471,1.6208,1.5731,1.5304,1.5304,1.4727,1.4083,1.4052,1.4388,1.5197,1.7036,1.7776,1.8245,1.876,1.9302,1.9566,1.9169,1.9273,1.951,1.966,1.9555,1.951,1.966,1.9555,1.951,0.0,1.9555,1.951,1.9675,1.9782,1.9818,0.0,0.0,0.0,2.0453,2.0607,2.0699,2.0699,2.1844,2.2203,2.1695,2.2652,2.349,2.4163,2.4433,2.479,2.5203,2.6001,2.6437,2.6617,2.6961,2.729,2.761,2.7445,2.7739,2.8368,2.8532,2.9742,3.1436,3.2278,3.347,3.4688,2.4809,2.4943,2.5053,2.5149,2.5358,2.5488,2.5406,2.4332,2.352,2.3474,2.2122,2.0957,2.0393,2.0321,1.9817,1.8612,1.7441,1.6638,1.6305,1.5647,1.5254,1.5254,1.5254,1.5167,1.4916,1.4864,1.4653,1.4356,1.4028,1.3935,1.3998,1.4012,1.3778,1.3397,1.3137,1.2715,1.224,1.2593,1.2647,1.2436,1.2807,1.3235,1.3653,1.3655,1.4144,1.4865,1.513,1.5567,1.6032,1.5781,1.607,1.6471,1.622,1.6308,1.6522,1.6522,1.5957,1.5316,1.5316,1.4513,1.377,1.4022,1.4808,1.5824,1.6982,1.7642,1.8087,1.8464,1.8765,1.8968,1.8893,1.9132,1.9406,1.9639,1.969,1.969,1.969,1.969,1.969,1.969,1.969,1.969,1.969,1.969,1.9809,2.0124,2.0167,0.0,2.069,2.1012,2.1312,2.1595,2.2313,2.2816,2.3041,2.3688,2.3858,2.3625,2.4218,2.4731,2.5127,2.6111,2.6722,2.7066,2.746,2.7625,2.764,2.7919,2.8263,2.8667,2.9235,3.0562,3.2151,3.2809,3.3909,3.5098,2.4981,2.5049,2.5118,2.537,2.5446,2.546,2.537,2.4285,2.3508,2.3652,2.2087,2.0969,2.0879,2.0483,2.0054,1.9639,1.8255,1.718,1.6612,1.6079,1.5819,1.5819,1.5888,1.5674,1.5167,1.5579,1.5787,1.5694,1.5131,1.4818,1.4748,1.4229,1.3914,1.3751,1.3131,1.2914,1.2936,1.3163,1.3299,1.3433,1.3636,1.3999,1.4385,1.4824,1.5278,1.5756,1.622,1.6446,1.6446,1.5969,1.6132,1.6434,1.5969,1.6132,1.6522,1.6522,1.5793,1.5016,1.4928,1.4136,1.3483,1.4072,1.5299,1.6441,1.6599,1.7342,1.7987,1.7987,1.8027,1.8263,1.8688,1.8855,1.908,1.9603,1.969,1.969,1.969,0.0,1.972,1.9824,1.9839,1.9884,1.9974,1.9989,2.0191,2.0644,2.0695,2.0726,2.0827,2.1282,2.1945,2.2759,2.2712,2.3233,2.4427,2.437,2.3807,2.271,2.3838,2.4553,2.4824,2.5973,2.6937,2.7724,2.7724,2.7835,2.797,2.8502,2.8801,2.8996,3.0073,3.1435,3.2816,3.3374,3.4447,3.5622,2.5182,2.5253,2.5283,2.538,2.5415,2.535,2.5176,2.4617,2.3925,2.3146,2.2097,2.114,2.0485,2.0035,1.9588,1.908,1.8373,1.7915,1.7836,1.6905,1.6384,1.6384,1.6822,1.6824,1.6258,1.6335,1.6148,1.5694,1.5615,1.5043,1.4118,1.4006,1.363,1.3131,1.2574,1.2604,1.309,1.3707,1.423,1.473,1.5171,1.5393,1.5396,1.5062,1.5239,1.5706,1.5793,1.612,1.6509,1.6421,1.6446,1.6509,1.6421,1.6446,1.6522,1.6522,1.607,1.5467,1.5029,1.4437,1.4085,1.4639,1.5295,1.6051,1.6993,1.7287,1.7435,1.7435,1.7787,1.8145,1.8224,1.8574,1.908,1.9603,1.969,1.969,1.969,0.0,1.9899,2.0483,2.0557,2.0782,2.1321,2.138,2.1198,2.0703,2.0721,2.0926,2.1453,2.1032,2.1542,2.3256,2.2867,2.295,2.3562,2.3557,2.3758,2.4094,2.4297,2.5003,2.6193,2.64,2.7185,2.8442,2.8442,2.8757,2.928,2.9385,2.9744,3.0223,3.0417,3.1728,3.3438,3.355,3.4447,3.5622,2.5244,2.5303,2.5322,2.5447,2.5449,2.5393,2.5189,2.4567,2.3825,2.3005,2.1916,2.1007,2.0382,1.9929,1.9479,1.8968,1.865,1.8302,1.7706,1.6951,1.6522,1.6522,1.6752,1.7034,1.7353,1.6705,1.6585,1.7011,1.6357,1.5616,1.4856,1.4482,1.4002,1.3407,1.3186,1.3243,1.3535,1.4484,1.5069,1.5372,1.5909,1.6132,1.6107,1.5856,1.5919,1.6132,1.6132,1.6308,1.6522,1.6522,1.6522,1.6522,1.6522,1.6522,1.6522,1.6522,1.6132,1.5567,1.5067,1.4941,1.5029,1.5254,1.5731,1.6237,1.6786,1.6879,1.6879,1.6879,1.7076,1.7353,1.7626,1.8106,1.865,1.9169,1.953,0.0,1.9332,1.9499,1.972,1.9735,2.028,2.0695,2.0654,2.0973,2.1063,2.0781,2.0671,2.0921,2.1555,2.1264,2.1609,2.274,2.3297,2.3494,2.3353,2.3997,2.4123,2.3686,2.4013,2.4709,2.5768,2.6218,2.7181,2.8477,2.894,2.9295,2.9609,2.9939,3.0253,3.0593,3.1329,3.2438,3.3633,3.3987,3.4752,3.5622,2.5264,2.5303,2.537,2.5466,2.5447,2.5318,2.5055,2.4338,2.3508,2.267,2.1653,2.0797,2.0227,1.9874,1.953,1.9132,1.8855,1.838,1.7544,1.6879,1.6522,1.6522,1.6637,1.7105,1.8066,1.7182,1.7089,1.7907,1.6983,1.6128,1.5365,1.4926,1.4376,1.3815,1.3815,1.3956,1.4272,1.5219,1.5676,1.5864,1.6324,1.6522,1.6522,1.6522,1.6522,1.6522,1.6522,1.6522,1.6522,1.6522,1.6522,1.6522,1.6522,1.6522,1.6522,1.6522,1.622,1.5768,1.5255,1.5379,1.5693,1.5693,1.6107,1.6522,1.6522,1.6522,1.6522,1.6522,1.6522,1.668,1.7188,1.7626,1.8106,1.8612,0.0,1.9388,1.8955,1.9379,1.9613,1.9362,2.0147,2.064,2.046,2.0876,2.1159,2.1152,2.1103,2.1263,2.1732,2.1708,2.1933,2.2485,2.3523,2.387,2.3462,2.4359,2.4416,2.3466,2.3979,2.4591,2.5287,2.5977,2.7125,2.8541,2.9263,2.9714,3.0073,3.0552,3.0746,3.0848,3.2112,3.2986,3.37,3.4579,3.5155,3.5639,2.5264,2.5341,2.5409,2.5409,2.5252,2.4977,2.4521,2.3921,2.3076,2.1769,2.1241,2.0665,1.9854,1.9711,1.969,1.9639,1.8727,1.8145,1.8066,1.7076,1.6522,1.6522,1.6993,1.7504,1.8106,1.8011,1.7773,1.7353,1.7272,1.6396,1.4744,1.4698,1.4376,1.3815,1.3815,1.4411,1.5487,1.5543,1.5908,1.6423,1.6466,1.6522,1.6522,1.6522,1.6522,1.6522,1.6522,1.6522,1.6522,1.6522,1.6522,1.6522,1.6522,1.6522,1.6522,1.6522,1.6497,1.6333,1.5781,1.5668,1.5693,1.5693,1.6107,1.6522,1.6522,1.6522,1.6522,1.6522,1.6522,1.668,1.7188,1.7353,1.7544,1.8066,0.0,0.0,1.8893,1.9444,2.0007,2.0602,2.0757,2.1213,2.2297,2.2442,2.2406,2.2287,2.2272,2.2289,2.2274,2.2234,2.2498,2.3002,2.3122,2.3447,2.3928,2.4016,2.4293,2.4695,2.4745,2.5103,2.584,2.5902,2.7141,2.9261,2.9319,3.009,3.1332,3.1377,3.1465,3.1507,3.2312,3.2986,3.3764,3.5152,3.5588,3.5723,2.5284,2.539,2.5443,2.5405,2.5235,2.4946,2.4468,2.3892,2.3013,2.1678,2.1196,2.0673,1.9797,1.969,1.9442,1.8765,1.865,1.8185,1.7146,1.7034,1.6837,1.6522,1.671,1.7034,1.7585,1.7271,1.7146,1.7312,1.6951,1.6256,1.5276,1.5276,1.496,1.4376,1.4732,1.5174,1.5632,1.6008,1.6281,1.6522,1.6522,1.6522,1.6522,1.6522,1.6522,1.6522,1.6522,1.6522,1.6522,1.6522,1.6522,1.6522,1.6522,1.6522,1.6522,1.6522,1.6522,1.6471,1.6258,1.6208,1.6208,1.6208,1.6358,1.6522,1.6522,1.6522,1.6622,1.6974,1.7049,1.7238,1.776,1.8111,1.8407,1.8625,0.0,1.9339,1.899,1.9466,1.9781,1.9686,2.062,2.1329,2.142,2.2035,2.2287,2.1886,2.2176,2.2299,2.2297,2.2636,2.3088,2.3653,2.3665,2.3778,2.4004,2.4657,2.4933,2.482,2.5146,2.5416,2.5768,2.6823,2.7954,2.9153,3.022,3.0982,3.1482,3.1482,3.1482,3.164,3.2772,3.3662,3.4442,3.5859,3.667,3.7077,2.5303,2.5409,2.5453,2.5306,2.5074,2.4732,2.421,2.3611,2.2787,2.1527,2.1141,2.0689,1.9797,1.969,1.9406,1.865,1.8779,1.838,1.7076,1.7034,1.6879,1.6522,1.668,1.6837,1.7034,1.6837,1.6837,1.7034,1.668,1.6194,1.5588,1.5588,1.5365,1.5017,1.541,1.572,1.5908,1.6337,1.6522,1.6522,1.6522,1.6522,1.6522,1.6522,1.6522,1.6522,1.6522,1.6522,1.6522,1.6522,1.6522,1.6522,1.6522,1.6522,1.6522,1.6522,1.6522,1.6522,1.6522,1.6522,1.6522,1.6522,1.666,1.6785,1.6785,1.6923,1.7162,1.7564,1.7639,1.7752,1.8141,1.8508,1.8727,1.8727,1.9193,1.9436,1.9032,1.9477,1.9643,1.9271,2.0476,2.1236,2.0957,2.178,2.23,2.2052,2.2347,2.2648,2.2836,2.3201,2.3665,2.4243,2.4418,2.4506,2.4506,2.5222,2.5511,2.5335,2.5699,2.5862,2.5929,2.7373,2.8414,2.9066,3.0524,3.1278,3.1482,3.1482,3.1482,3.1655,3.3329,3.4274,3.4929,3.6816,3.7652,3.7939,2.5303,2.5409,2.5395,2.5053,2.4719,2.4269,2.3585,2.3038,2.23,2.1161,2.0996,2.0681,1.9782,1.969,1.969,1.9675,1.9207,1.8688,1.8145,1.7076,1.6522,1.6522,1.6993,1.7034,1.6522,1.7034,1.7034,1.6522,1.6522,1.6182,1.5588,1.5588,1.5588,1.5588,1.5588,1.5952,1.6522,1.6522,1.6522,1.6522,1.6522,1.6522,1.6522,1.6522,1.6522,1.6522,1.6522,1.6522,1.6522,1.6522,1.6522,1.6522,1.6522,1.6522,1.6522,1.6522,1.6522,1.6522,1.6522,1.6522,1.6522,1.6522,1.6961,1.7388,1.7388,1.7815,1.8204,1.8216,1.8216,1.8216,1.8229,1.8229,1.8229,1.8229,1.8681,1.8983,1.8983,1.9484,1.9811,1.9811,2.0326,2.0891,2.1443,2.1995,2.2548,2.3027,2.3078,2.3389,2.3966,2.4004,2.4255,2.4808,2.5322,2.5598,2.5598,2.5598,2.5887,2.6533,2.6533,2.6533,2.6521,2.7351,2.8182,2.9066,2.995,3.0777,3.1482,3.1482,3.1482,3.17,3.3849,3.4707,3.5041,3.7937,3.8531,3.8024,2.537,2.5409,2.5356,2.5111,2.4725,2.4229,2.3605,2.3059,2.2283,2.1156,2.0991,2.0674,1.9792,1.969,1.9564,1.9161,1.8987,1.8527,1.7612,1.6879,1.6522,1.6522,1.6637,1.668,1.6522,1.668,1.668,1.6522,1.6522,1.6423,1.6238,1.6238,1.6238,1.6238,1.6238,1.6324,1.6522,1.6522,1.6522,1.6522,1.6522,1.6522,1.6522,1.6522,1.6522,1.6522,1.6522,1.6522,1.6522,1.6522,1.6522,1.6522,1.6522,1.6522,1.6522,1.6522,1.6522,1.6522,1.6522,1.681,1.7124,1.7124,1.725,1.7488,1.7865,1.8091,1.8317,1.8694,1.907,1.9447,1.9861,1.9924,1.9924,1.9924,2.0075,2.0175,2.0175,2.0639,2.0978,2.0978,2.1481,2.1882,2.2046,2.2573,2.2962,2.3065,2.3078,2.3389,2.3966,2.4004,2.4418,2.5335,2.5523,2.5787,2.6201,2.6201,2.6289,2.6533,2.6533,2.6533,2.6521,2.7986,2.8748,2.9066,3.0524,3.1278,3.1482,3.1482,3.1796,3.2398,3.3509,3.4859,3.6317,3.7716,3.8734,3.9462,2.539,2.5422,2.5348,2.5027,2.479,2.4436,2.388,2.3414,2.27,2.1575,2.1245,2.0757,1.9822,1.969,1.9579,1.9241,1.8833,1.8327,1.7653,1.6909,1.6522,1.6522,1.6522,1.6522,1.6522,1.6522,1.6522,1.6522,1.6522,1.6522,1.6522,1.6522,1.6522,1.6522,1.6522,1.6522,1.6522,1.6522,1.6522,1.6522,1.6522,1.6522,1.6522,1.6522,1.6522,1.6522,1.6522,1.6522,1.6522,1.6522,1.6522,1.6522,1.6522,1.6672,1.6861,1.6861,1.7011,1.7187,1.7187,1.7438,1.7765,1.7978,1.8028,1.8179,1.8706,1.902,1.9334,1.9886,2.025,2.0577,2.0928,2.0991,2.0991,2.0991,2.0991,2.0991,2.0991,2.128,2.1493,2.1493,2.197,2.2309,2.2309,2.2811,2.3078,2.3078,2.3552,2.3954,2.4305,2.4519,2.5034,2.5912,2.5937,2.6101,2.6533,2.6533,2.6533,2.6533,2.6533,2.6658,2.704,2.8363,2.9192,2.958,3.1234,3.1928,3.1928,3.1928,3.2131,3.267,3.3646,3.5001,3.6561,3.7884,3.9073,4.007,2.5619,2.5652,2.5549,2.5059,2.5028,2.4917,2.4455,2.3922,2.3243,2.2224,2.158,2.0824,1.9822,1.969,1.969,1.969,1.8712,1.8078,1.8106,1.7118,1.6522,1.6522,1.6522,1.6522,1.6522,1.6522,1.6522,1.6522,1.6522,1.6522,1.6522,1.6522,1.6522,1.6522,1.6522,1.6522,1.6522,1.6522,1.6522,1.6522,1.6522,1.6522,1.6522,1.6522,1.6522,1.6522,1.6522,1.6522,1.6522,1.6572,1.6597,1.6609,1.666,1.7036,1.7451,1.7451,1.7815,1.8216,1.8267,1.8317,1.848,1.9032,1.9208,1.9359,1.9786,2.0288,2.0869,2.138,2.1531,2.1556,2.1556,2.1556,2.1556,2.1556,2.1556,2.1556,2.1556,2.1606,2.1631,2.1631,2.2121,2.246,2.246,2.2962,2.3228,2.3228,2.4243,2.4845,2.4895,2.5335,2.5862,2.6508,2.6533,2.6546,2.6596,2.6546,2.6533,2.6533,2.6533,2.6905,2.7736,2.862,2.9532,3.0444,3.1871,3.2542,3.2602,3.2542,3.2556,3.2836,3.4171,3.523,3.6206,3.8271,3.9462,4.007,2.7443,2.7281,2.6976,2.6464,2.5955,2.5451,2.4927,2.3752,2.2726,2.2152,2.1197,2.0303,1.9756,1.969,1.969,1.969,1.8726,1.811,1.8092,1.7118,1.6522,1.6522,1.6522,1.6522,1.6522,1.6522,1.6522,1.6522,1.6522,1.6522,1.6522,1.6522,1.6522,1.6522,1.6522,1.6522,1.6522,1.6522,1.6522,1.6522,1.6522,1.6522,1.6522,1.6522,1.6522,1.6522,1.6522,1.6522,1.6584,1.7049,1.7187,1.7262,1.7702,1.7928,1.8028,1.8028,1.8116,1.8292,1.8731,1.9145,1.9597,2.0162,2.0639,2.0878,2.0552,2.063,2.0869,2.138,2.1832,2.2133,2.2133,2.2133,2.2133,2.2133,2.2133,2.2133,2.2133,2.251,2.2774,2.2774,2.3288,2.364,2.364,2.413,2.4456,2.4456,2.4682,2.4996,2.541,2.5536,2.5862,2.6508,2.6533,2.6666,2.7105,2.6747,2.6533,2.6533,2.6533,2.6905,2.7736,2.862,2.9743,3.1036,3.2048,3.2811,3.3245,3.2721,3.3154,3.4155,3.4548,3.5836,3.7551,3.8619,3.9462,4.007,2.804,2.7836,2.7458,2.69,2.6545,2.6068,2.5262,2.443,2.3619,2.2808,2.1971,2.1116,2.0273,2.0192,2.005,1.9717,1.9265,1.8737,1.8194,1.7377,1.681,1.6522,1.6522,1.6522,1.6522,1.6522,1.6522,1.6522,1.6522,1.6522,1.6522,1.6522,1.6522,1.6522,1.6522,1.6522,1.6522,1.6522,1.6522,1.6522,1.6522,1.6522,1.6522,1.6522,1.6522,1.6559,1.6835,1.7099,1.7375,1.7677,1.7777,1.7827,1.8116,1.8392,1.8643,1.8894,1.9158,1.9497,2.0049,2.0401,2.0677,2.0978,2.128,2.1481,2.1455,2.1443,2.1694,2.251,2.2912,2.3201,2.3464,2.3502,2.3427,2.3163,2.3339,2.3414,2.315,2.359,2.3941,2.3941,2.4205,2.4393,2.4393,2.487,2.5096,2.4845,2.531,2.5598,2.5598,2.585,2.6151,2.6521,2.6716,2.6992,2.7281,2.7256,2.7243,2.7243,2.7442,2.8024,2.8861,2.9993,3.1194,3.2306,3.3106,3.3649,3.3933,3.3589,3.3696,3.4115,3.4494,3.532,3.6519,3.7934,3.916,4.007,2.8509,2.8269,2.7866,2.7233,2.7075,2.6691,2.5598,2.5208,2.4639,2.3555,2.2879,2.2121,2.0985,2.0771,2.0466,1.9917,1.9775,1.9339,1.842,1.7741,1.7162,1.6685,1.6572,1.6559,1.666,1.6572,1.6522,1.6522,1.6522,1.6522,1.6522,1.6522,1.6522,1.6522,1.6522,1.6522,1.6522,1.6522,1.6522,1.6522,1.6622,1.666,1.6672,1.6773,1.681,1.6873,1.735,1.7815,1.8216,1.8317,1.8342,1.838,1.8568,1.8945,1.9409,1.9936,2.0426,2.0928,2.1481,2.1631,2.1656,2.1744,2.1769,2.192,2.2472,2.2523,2.2749,2.3791,2.4067,2.428,2.4745,2.482,2.4669,2.4217,2.4519,2.4657,2.4205,2.4531,2.482,2.482,2.4895,2.4996,2.5096,2.5485,2.5561,2.5134,2.595,2.6251,2.5774,2.6289,2.6672,2.6672,2.713,2.7469,2.7557,2.7921,2.816,2.8235,2.8913,2.9564,3.0197,3.1575,3.2737,3.3694,3.4247,3.4547,3.4637,3.4532,3.4267,3.3879,3.4463,3.4814,3.5269,3.7275,3.8868,4.007,3.0187,2.9817,2.927,2.8485,2.8023,2.7351,2.6118,2.5,2.4094,2.3465,2.2475,2.1768,2.1582,2.1036,2.0654,2.0556,1.9677,1.9067,1.891,1.7964,1.735,1.7262,1.6785,1.6748,1.725,1.6773,1.6522,1.6522,1.6522,1.6522,1.6522,1.6522,1.6522,1.6522,1.6522,1.6522,1.6522,1.6522,1.6522,1.6559,1.7061,1.7262,1.7313,1.779,1.7978,1.799,1.8066,1.8141,1.8279,1.8756,1.892,1.9083,2.0037,2.0388,2.0605,2.1104,2.1317,2.1493,2.2046,2.2196,2.2309,2.2786,2.2852,2.3062,2.364,2.3389,2.3213,2.3866,2.4381,2.4732,2.4808,2.482,2.4795,2.472,2.477,2.4795,2.472,2.477,2.482,2.482,2.5222,2.5686,2.6189,2.637,2.6382,2.6251,2.6445,2.6496,2.6352,2.6866,2.7168,2.7168,2.7708,2.8222,2.8699,2.831,2.8348,2.8812,3.0539,3.1116,3.0754,3.1775,3.2986,3.4352,3.4442,3.4816,3.5325,3.4726,3.4772,3.526,3.5393,3.5864,3.6646,3.8172,3.9337,4.007,3.036,2.9863,2.9232,2.8485,2.7666,2.6775,2.5715,2.4854,2.4126,2.358,2.3081,2.2657,2.2294,2.1671,2.1138,2.0786,2.0306,1.9724,1.9057,1.856,1.8151,1.7865,1.7601,1.7576,1.784,1.7589,1.7463,1.7463,1.6823,1.6522,1.6522,1.6522,1.6522,1.6522,1.6522,1.6522,1.6522,1.6522,1.6522,1.6572,1.7149,1.7388,1.7438,1.799,1.8204,1.8242,1.8555,1.8857,1.9133,1.9371,1.9459,1.9547,2.0024,2.0401,2.0832,2.133,2.1707,2.2071,2.2623,2.3,2.3314,2.3552,2.3853,2.4142,2.4406,2.4481,2.4582,2.4833,2.5084,2.536,2.5674,2.5737,2.5636,2.531,2.5523,2.5624,2.5297,2.5536,2.5737,2.5737,2.5937,2.6176,2.6496,2.6741,2.6917,2.6917,2.6917,2.7055,2.7369,2.7318,2.7419,2.7733,2.8285,2.8687,2.8925,2.9013,2.9441,3.0232,3.1568,3.1958,3.1445,3.3194,3.4421,3.5055,3.5055,3.522,3.5489,3.5175,3.4991,3.4971,3.5413,3.6014,3.6778,3.7906,3.8761,3.9437]},{"header":{"parameterUnit":"m.s-1","parameterCategory":1,"la1":30.6,"la2":28.766,"lo1":-90.7593,"lo2":-88.6598,"dy":0.0162,"dx":0.0183,"nx":116,"ny":114,"refTime":"2024-03-25T12:00:00:Z","depth":0,"parameterNumber":3,"parameterNumberName":"V-component_of_WINDS"},"data":[0.0,0.0,0.0,0.0,0.0,0.0,0.0,0.0,0.0,0.0,0.0,0.0,0.0,0.0,0.0,0.0,0.0,0.0,0.0,0.0,0.0,0.0,0.0,0.0,0.0,0.0,0.0,0.0,0.0,0.0,0.0,0.0,0.0,0.0,0.0,0.0,0.0,0.0,0.0,0.0,0.0,0.0,0.0,0.0,0.0,0.0,0.0,0.0,0.0,0.0,0.0,0.0,0.0,0.0,0.0,0.0,0.0,0.0,0.0,0.0,0.0,0.0,0.0,0.0,0.0,0.0,0.0,0.0,0.0,0.0,0.0,0.0,0.0,0.0,0.0,0.0,0.0,0.0,0.0,0.0,0.0,0.0,0.0,0.0,0.0,0.0,0.0,0.0,0.0,0.0,0.0,0.0,0.0,0.0,0.0,0.0,0.0,0.0,0.0,0.0,0.0,0.0,0.0,0.0,0.0,0.0,0.0,0.0,0.0,0.0,0.0,0.0,0.0,0.0,0.0,0.0,0.0,0.0,0.0,0.0,0.0,0.0,0.0,0.0,0.0,0.0,0.0,0.0,0.0,0.0,0.0,0.0,0.0,0.0,0.0,0.0,0.0,0.0,0.0,0.0,0.0,0.0,0.0,0.0,0.0,0.0,0.0,0.0,0.0,0.0,0.0,0.0,0.0,0.0,0.0,0.0,0.0,0.0,0.0,0.0,0.0,0.0,0.0,0.0,0.0,0.0,0.0,0.0,0.0,0.0,0.0,0.0,0.0,0.0,0.0,0.0,0.0,0.0,0.0,0.0,0.0,0.0,0.0,0.0,0.0,0.0,0.0,0.0,0.0,0.0,0.0,0.0,0.0,0.0,0.0,0.0,0.0,0.0,0.0,0.0,0.0,0.0,0.0,0.0,0.0,0.0,0.0,0.0,0.0,0.0,0.0,0.0,0.0,0.0,0.0,0.0,0.0,0.0,0.0,0.0,0.0,0.0,0.0,0.0,0.0,0.0,0.0,0.0,0.0,0.0,0.0,0.0,0.0,0.0,0.0,0.0,0.0,0.0,0.0,0.0,0.0,0.0,0.0,0.0,0.0,0.0,0.0,0.0,0.0,0.0,0.0,0.0,0.0,0.0,0.0,0.0,0.0,0.0,0.0,0.0,0.0,0.0,0.0,0.0,0.0,0.0,0.0,0.0,0.0,0.0,0.0,0.0,0.0,0.0,0.0,0.0,0.0,0.0,0.0,0.0,0.0,0.0,0.0,0.0,0.0,0.0,0.0,0.0,0.0,0.0,0.0,0.0,0.0,0.0,0.0,0.0,0.0,0.0,0.0,0.0,0.0,0.0,0.0,0.0,0.0,0.0,0.0,0.0,0.0,0.0,0.0,0.0,0.0,0.0,0.0,0.0,0.0,0.0,0.0,0.0,0.0,0.0,0.0,0.0,0.0,0.0,0.0,0.0,0.0,0.0,0.0,0.0,0.0,0.0,0.0,0.0,0.0,0.0,0.0,0.0,0.0,0.0,0.0,0.0,0.0,0.0,0.0,0.0,0.0,0.0,0.0,0.0,0.0,0.0,0.0,0.0,0.0,0.0,0.0,0.0,0.0,0.0,0.0,0.0,0.0,0.0,0.0,0.0,0.0,0.0,0.0,0.0,0.0,0.0,0.0,0.0,0.0,0.0,0.0,0.0,0.0,0.0,0.0,0.0,0.0,0.0,0.0,0.0,0.0,0.0,0.0,0.0,0.0,0.0,0.0,0.0,0.0,0.0,0.0,0.0,0.0,0.0,0.0,0.0,0.0,0.0,0.0,0.0,0.0,0.0,0.0,0.0,0.0,0.0,0.0,0.0,0.0,0.0,0.0,0.0,0.0,0.0,0.0,0.0,0.0,0.0,0.0,0.0,0.0,0.0,0.0,0.0,0.0,0.0,0.0,0.0,0.0,0.0,0.0,0.0,0.0,0.0,0.0,0.0,0.0,0.0,0.0,0.0,0.0,0.0,0.0,0.0,0.0,0.0,0.0,0.0,0.0,0.0,0.0,0.0,0.0,0.0,0.0,0.0,0.0,0.0,0.0,0.0,0.0,0.0,0.0,0.0,0.0,0.0,0.0,0.0,0.0,0.0,0.0,0.0,0.0,0.0,0.0,0.0,0.0,0.0,0.0,0.0,0.0,0.0,0.0,0.0,0.0,0.0,0.0,0.0,0.0,0.0,0.0,0.0,0.0,0.0,0.0,0.0,0.0,0.0,0.0,0.0,0.0,0.0,0.0,0.0,0.0,0.0,0.0,0.0,0.0,0.0,0.0,0.0,0.0,0.0,0.0,0.0,0.0,0.0,0.0,0.0,0.0,0.0,0.0,0.0,0.0,0.0,0.0,0.0,0.0,0.0,0.0,0.0,0.0,0.0,0.0,0.0,0.0,0.0,0.0,0.0,0.0,0.0,0.0,0.0,0.0,0.0,0.0,0.0,0.0,0.0,0.0,0.0,0.0,0.0,0.0,0.0,0.0,0.0,0.0,0.0,0.0,0.0,0.0,0.0,0.0,0.0,0.0,0.0,0.0,0.0,0.0,0.0,0.0,0.0,0.0,0.0,0.0,0.0,0.0,0.0,0.0,0.0,0.0,0.0,0.0,0.0,0.0,0.0,0.0,0.0,0.0,0.0,0.0,0.0,0.0,0.0,0.0,0.0,0.0,0.0,0.0,0.0,0.0,0.0,0.0,0.0,0.0,0.0,0.0,0.0,0.0,0.0,0.0,0.0,0.0,0.0,0.0,0.0,0.0,0.0,0.0,0.0,0.0,0.0,0.0,0.0,0.0,0.0,0.0,0.0,0.0,0.0,0.0,0.0,0.0,0.0,0.0,0.0,0.0,0.0,0.0,0.0,0.0,0.0,0.0,0.0,0.0,0.0,0.0,0.0,0.0,0.0,0.0,0.0,0.0,0.0,0.0,0.0,0.0,0.0,0.0,0.0,0.0,0.0,0.0,0.0,0.0,0.0,0.0,0.0,0.0,0.0,0.0,0.0,0.0,0.0,0.0,0.0,0.0,0.0,0.0,0.0,0.0,0.0,0.0,0.0,0.0,0.0,0.0,0.0,0.0,0.0,0.0,0.0,0.0,0.0,0.0,0.0,0.0,0.0,0.0,0.0,0.0,0.0,0.0,0.0,0.0,0.0,0.0,0.0,0.0,0.0,0.0,0.0,0.0,0.0,0.0,0.0,0.0,0.0,0.0,0.0,0.0,0.0,0.0,0.0,0.0,0.0,0.0,0.0,0.0,0.0,0.0,0.0,0.0,0.0,0.0,0.0,0.0,0.0,0.0,0.0,0.0,0.0,0.0,0.0,0.0,0.0,0.0,0.0,0.0,0.0,0.0,0.0,0.0,0.0,0.0,0.0,0.0,0.0,0.0,0.0,0.0,0.0,0.0,0.0,0.0,0.0,0.0,0.0,0.0,0.0,0.0,0.0,0.0,0.0,0.0,0.0,0.0,0.0,0.0,0.0,0.0,0.0,0.0,0.0,0.0,0.0,0.0,0.0,0.0,0.0,0.0,0.0,0.0,0.0,0.0,0.0,0.0,0.0,0.0,0.0,0.0,0.0,0.0,0.0,0.0,0.0,0.0,0.0,0.0,0.0,0.0,0.0,0.0,0.0,0.0,0.0,0.0,0.0,0.0,0.0,0.0,0.0,0.0,0.0,0.0,0.0,0.0,0.0,0.0,0.0,0.0,0.0,0.0,0.0,0.0,0.0,0.0,0.0,0.0,0.0,0.0,0.0,0.0,0.0,0.0,0.0,0.0,0.0,0.0,0.0,0.0,0.0,0.0,0.0,0.0,0.0,0.0,0.0,0.0,0.0,0.0,0.0,0.0,0.0,0.0,0.0,0.0,0.0,0.0,0.0,0.0,0.0,0.0,0.0,0.0,0.0,0.0,0.0,0.0,0.0,0.0,0.0,0.0,0.0,0.0,0.0,0.0,0.0,0.0,0.0,0.0,0.0,0.0,0.0,0.0,0.0,0.0,0.0,0.0,0.0,0.0,0.0,0.0,0.0,0.0,0.0,0.0,0.0,0.0,0.0,0.0,0.0,0.0,0.0,0.0,0.0,0.0,0.0,0.0,0.0,0.0,0.0,0.0,0.0,0.0,0.0,0.0,0.0,0.0,0.0,0.0,0.0,0.0,0.0,0.0,0.0,0.0,0.0,0.0,0.0,0.0,0.0,0.0,0.0,0.0,0.0,0.0,0.0,0.0,0.0,0.0,0.0,0.0,0.0,0.0,0.0,0.0,0.0,0.0,0.0,0.0,0.0,0.0,0.0,0.0,0.0,0.0,0.0,0.0,0.0,0.0,0.0,0.0,0.0,0.0,0.0,0.0,0.0,0.0,0.0,0.0,0.0,0.0,0.0,0.0,0.0,0.0,0.0,0.0,0.0,0.0,0.0,0.0,0.0,0.0,0.0,0.0,0.0,0.0,0.0,0.0,0.0,0.0,0.0,0.0,0.0,0.0,0.0,0.0,0.0,0.0,0.0,0.0,0.0,0.0,0.0,0.0,0.0,0.0,0.0,0.0,0.0,0.0,0.0,0.0,0.0,0.0,0.0,0.0,0.0,0.0,0.0,0.0,0.0,0.0,0.0,0.0,0.0,0.0,0.0,0.0,0.0,0.0,0.0,0.0,0.0,0.0,0.0,0.0,0.0,0.0,0.0,0.0,0.0,0.0,0.0,0.0,0.0,0.0,0.0,0.0,0.0,0.0,0.0,0.0,0.0,0.0,0.0,0.0,0.0,0.0,0.0,0.0,0.0,0.0,0.0,0.0,0.0,0.0,0.0,0.0,0.0,0.0,0.0,0.0,0.0,0.0,0.0,0.0,0.0,0.0,0.0,0.0,0.0,0.0,0.0,0.0,0.0,0.0,0.0,0.0,0.0,0.0,0.0,0.0,0.0,0.0,0.0,0.0,0.0,0.0,0.0,0.0,0.0,0.0,0.0,0.0,0.0,0.0,0.0,0.0,0.0,0.0,0.0,0.0,0.0,0.0,0.0,0.0,0.0,0.0,0.0,0.0,0.0,0.0,0.0,0.0,0.0,0.0,0.0,0.0,0.0,0.0,0.0,0.0,0.0,0.0,0.0,0.0,0.0,0.0,0.0,0.0,0.0,0.0,0.0,0.0,0.0,0.0,0.0,0.0,0.0,0.0,0.0,0.0,0.0,0.0,0.0,0.0,0.0,0.0,0.0,0.0,0.0,0.0,0.0,0.0,0.0,0.0,0.0,0.0,0.0,0.0,0.0,0.0,0.0,0.0,0.0,0.0,0.0,0.0,0.0,0.0,0.0,0.0,0.0,0.0,0.0,0.0,0.0,0.0,0.0,0.0,0.0,0.0,0.0,0.0,0.0,0.0,0.0,0.0,0.0,0.0,0.0,0.0,0.0,0.0,0.0,0.0,0.0,0.0,0.0,0.0,0.0,0.0,0.0,0.0,0.0,0.0,0.0,0.0,0.0,0.0,0.0,0.0,0.0,0.0,0.0,0.0,0.0,0.0,0.0,0.0,0.0,0.0,0.0,0.0,0.0,0.0,0.0,0.0,0.0,0.0,0.0,0.0,0.0,0.0,0.0,0.0,0.0,0.0,0.0,0.0,0.0,0.0,0.0,0.0,0.0,0.0,0.0,0.0,0.0,0.0,0.0,0.0,0.0,0.0,0.0,0.0,0.0,0.0,0.0,0.0,0.0,0.0,0.0,0.0,0.0,0.0,0.0,0.0,0.0,0.0,0.0,0.0,0.0,0.0,0.0,0.0,0.0,0.0,0.0,0.0,0.0,0.0,0.0,0.0,0.0,0.0,0.0,0.0,0.0,0.0,0.0,0.0,0.0,0.0,0.0,0.0,0.0,0.0,0.0,0.0,0.0,0.0,0.0,0.0,0.0,0.0,0.0,0.0,0.0,0.0,0.0,0.0,0.0,0.0,0.0,0.0,0.0,0.0,0.0,0.0,0.0,0.0,0.0,0.0,0.0,0.0,0.0,0.0,0.0,0.0,0.0,0.0,0.0,0.0,0.0,0.0,0.0,0.0,0.0,0.0,0.0,0.0,0.0,0.0,0.0,0.0,0.0,0.0149,0.0,0.0,0.0,0.0,0.0,0.0,0.0,0.0,0.0,0.0,0.0,0.0,0.0,0.0,0.0,0.0,0.0,0.0,0.0,0.0,0.0,0.0,0.0,0.0,-0.4519,-0.4519,-0.4519,-0.4519,-0.4519,-0.4519,-0.4519,-0.4519,-0.4519,-0.4519,-0.4519,-0.4519,-0.4473,-0.4252,-0.3738,-0.4242,-0.4098,-0.3379,-0.3657,-0.4024,-0.4477,0.0,0.0,0.0,0.0,0.0,0.0,0.0,0.0,0.0,0.0,0.0,0.0,0.0,0.0,0.0,0.0,0.0,0.0,0.0,0.0,0.0,0.0,0.0,0.0,0.0,0.0,0.0,0.0,0.0,0.0,0.0,0.0,0.0,0.0,0.0,0.0,0.0,0.0,0.0,0.0,0.0,0.0,0.0,0.0,0.0,0.0,0.0,0.0,0.0,0.0,0.0,0.0,0.0,0.0,0.0,0.0,0.0,0.0,0.0,0.0,0.0,0.0,0.0,0.0,0.0,0.0,0.0,0.0,0.0,0.0,0.0,-0.0393,0.0,0.0,0.0,0.0,0.0,0.0,0.0,0.0,0.0,0.0,0.0,0.0,0.0,0.0,0.0,0.0,0.0,0.0,0.0,0.0,0.0,-0.4519,-0.4519,-0.4519,-0.4519,-0.4519,-0.4519,-0.4519,-0.4519,-0.4519,-0.4519,-0.4519,-0.4519,-0.4519,-0.4519,-0.4525,-0.4477,-0.448,-0.4504,-0.3822,-0.2581,-0.2862,-0.3512,-0.448,-0.4475,0.0,0.0,0.0,0.0,0.0,0.0,0.0,0.0,0.0,0.0,0.0,0.0,0.0,0.0,0.0,0.0,0.0,0.0,0.0,0.0,0.0,0.0,0.0,0.0,0.0,0.0,0.0,0.0,0.0,0.0,0.0,0.0,0.0,0.0,0.0,0.0,0.0,0.0,0.0,0.0,0.0,0.0,0.0,0.0,0.0,0.0,0.0,0.0,0.0,0.0,0.0,0.0,0.0,0.0,0.0,0.0,0.0,0.0,0.0,0.0,0.0,0.0,0.0,0.3344,0.4028,0.4436,0.3985,0.317,0.2038,0.0608,-0.0131,-0.0505,-0.3032,0.0,0.0,0.0,0.0,0.0,0.0,0.0,0.0,0.0,0.0,0.0,0.0,0.0,0.0,0.0,0.0,0.0,0.0,0.0,-0.4519,-0.4519,-0.4519,-0.4519,-0.4519,-0.4519,-0.4519,-0.4519,-0.4519,-0.4519,-0.4519,-0.4519,-0.4519,-0.4519,-0.4519,-0.4525,-0.448,-0.4498,-0.4398,-0.4201,-0.3364,-0.3544,-0.4492,-0.449,-0.4505,-0.4523,0.0,0.0,0.0,0.0,0.0,0.0,0.0,0.0,0.0,0.0,0.0,0.0,0.0,0.0,0.0,0.0,0.0,0.0,0.0,0.0,0.0,0.0,0.0,0.0,0.0,0.0,0.0,0.0,0.0,0.0,0.0,0.0,0.0,0.0,0.0,0.0,0.0,0.0,0.0,0.0,0.0,-0.0467,-0.1165,0.0,0.0,0.0,0.0,0.0,0.0,0.0,0.0,0.0,0.0,0.0,0.0,0.0,0.2135,0.4865,0.4162,0.4642,0.6331,0.5481,0.503,0.4962,0.4173,0.3049,0.1711,0.0523,0.0,-0.0982,-0.3311,0.0,0.0,0.0,0.0,0.0,0.0,0.0,0.0,0.0,0.0,0.0,0.0,0.0,0.0,0.0,0.0,0.0,0.0,0.0,0.0,0.0,-0.4555,-0.4549,-0.4669,-0.4897,-0.4836,-0.4505,-0.4689,-0.4724,-0.4529,-0.4519,-0.4519,-0.4519,-0.4525,-0.4521,-0.4508,-0.4522,-0.4514,-0.443,-0.2303,-0.2475,-0.4523,-0.4487,-0.3581,-0.1992,-0.1989,0.0,0.0,0.0,0.0,0.0,0.0,0.0,0.0,0.0,0.0,0.0,0.0,0.0,0.0,0.0,0.0,0.0,0.0,0.0,0.0,0.0,0.0,0.0,0.0,0.0,0.0,0.0,0.0,0.0,0.0,0.0,0.0,0.0,0.0,0.0,0.0,0.0,0.0,0.0,0.1001,0.2781,0.4056,0.5357,0.6811,0.0,0.0,0.0,0.0,0.0,0.0,0.0,0.0,0.0,0.2788,0.2806,0.3661,0.542,0.5524,0.6024,0.688,0.6503,0.6008,0.5423,0.4967,0.3637,0.1622,0.0023,-0.1208,-0.2164,-0.3353,-0.398,-0.4372,0.0,0.0,0.0,0.0,-0.8728,-0.9095,0.0,0.0,0.0,0.0,0.0,0.0,0.0,0.0,0.0,0.0,0.0,0.0,-0.4728,-0.4738,-0.4741,-0.4845,-0.5173,-0.5219,-0.485,-0.487,-0.4826,-0.4591,-0.4539,-0.4519,-0.4519,-0.4125,-0.4098,-0.4473,-0.372,-0.3355,-0.33,-0.1029,-0.1191,-0.3413,-0.4185,-0.2843,0.0,0.0,0.0,0.0,0.0,0.0,0.0,0.0,0.0,0.0,0.0,0.0,0.0,0.0,0.0,0.0,0.0,0.0,0.0,0.0,0.0,0.0,0.0,0.0,0.0,0.0,0.0,0.0,0.0,0.0,0.0,0.0,0.0,0.0,0.0,0.0,0.0,0.0,0.0,0.0,0.0,0.4788,0.6515,0.9022,0.8996,0.9358,0.0,0.0,0.0,0.0,0.0,0.0,-0.1685,0.0406,0.2131,0.2905,0.4153,0.5152,0.5902,0.6739,0.7286,0.763,0.7653,0.7135,0.6114,0.547,0.3811,0.1352,-0.0575,-0.2032,-0.3099,-0.347,-0.3813,-0.4248,-0.5561,-0.6268,-0.6592,-0.7243,-0.7723,-0.7911,0.0,0.0,0.0,0.0,0.0,0.0,0.0,0.0,0.0,0.0,0.0,-0.4575,-0.4874,-0.5165,-0.5266,-0.5133,-0.5309,-0.5439,-0.5634,-0.4939,-0.4551,-0.4674,-0.4594,-0.4519,-0.4519,-0.3051,-0.3027,-0.4474,-0.1655,-0.0237,-0.0243,-0.0083,-0.0084,-0.0334,-0.3195,-0.2816,0.0,0.0,0.0,0.0,0.0,0.0,0.0,0.0,0.0,0.0,0.0,0.0,0.0,0.0,0.0,0.0,0.0,0.0,0.0,0.0,0.0,0.0,0.0,0.0,0.0,0.0,0.0,0.0,0.0,0.0,0.0,0.0,0.0,0.0,0.0,0.0,0.0,0.0,0.0,0.0,0.0,0.0,0.0,1.1423,1.0025,0.0,0.0,0.0,0.0,0.5837,0.4683,0.2868,0.0028,0.1042,0.2631,0.4603,0.5598,0.6577,0.7567,0.8251,0.9103,1.0117,0.9488,0.8524,0.7254,0.5208,0.3014,0.0728,-0.114,-0.2465,-0.3333,-0.3788,-0.4132,-0.4481,-0.5649,-0.6268,-0.6494,-0.6551,-0.6817,-0.7057,0.0,0.0,0.0,0.0,0.0,-0.4594,-0.4969,-0.5097,-0.5164,-0.5164,-0.5307,-0.5446,-0.537,-0.5711,-0.6054,-0.6379,-0.6349,-0.6153,-0.5913,-0.5408,-0.502,-0.4975,-0.4686,-0.4481,-0.4494,-0.395,-0.3027,-0.1622,-0.0556,0.0,0.0,0.0,0.0,-0.0084,-0.116,-0.1032,0.0,0.0,0.0,0.0,0.0,0.183,0.0,0.0,0.0,0.0,0.0,0.0,0.0,0.0,0.0,0.0,0.0,0.0,0.0,0.0,0.0,0.0,0.0,0.0,0.0,0.0,0.0,0.0,0.0,0.0,0.0,0.0,0.0,0.0,0.0,0.0,0.0,0.0,0.0,0.0,0.0,0.0,0.0,1.0841,1.0515,0.0,1.0462,0.9413,0.8021,0.6366,0.4634,0.3581,0.3425,0.4041,0.5212,0.6999,0.7554,0.849,0.9935,1.0367,1.0778,1.119,1.0304,0.9159,0.776,0.4594,0.19,-0.041,-0.2608,-0.3567,-0.3716,-0.4776,-0.4991,-0.4698,-0.5091,-0.5441,-0.5716,-0.5716,-0.5998,-0.6253,0.0,0.0,0.0,0.0,0.0,-0.495,-0.5253,-0.5428,-0.5487,-0.5487,-0.5691,-0.5788,-0.5686,-0.6207,-0.6737,-0.7031,-0.6816,-0.6527,-0.6003,-0.5498,-0.5169,-0.5133,-0.4186,-0.3939,-0.4466,-0.4477,-0.2998,0.0,0.0,0.0,0.0,0.0,0.0,0.0,0.0,0.0,0.0,0.0,0.0,0.0,0.0,0.1196,0.3102,0.0,0.0,0.0,0.0,0.0,0.0,0.0,0.0,0.0,0.0,0.0,0.0,0.0,0.0,0.0,0.0,0.0,0.0,0.0,0.0,0.0,0.0,0.0,0.0,0.0,0.0,0.0,0.0,0.0,0.0,0.0,0.0,0.0,0.0,0.0,1.1258,1.1882,1.0943,0.9938,0.9143,0.7868,0.6551,0.5212,0.4999,0.4822,0.4637,0.6224,0.7856,0.9391,0.9676,1.0411,1.1661,1.2024,1.1973,1.1528,1.0386,0.9096,0.7549,0.3828,0.0818,-0.1594,-0.3454,-0.4332,-0.4545,-0.551,-0.5603,-0.5185,-0.5185,-0.5226,-0.5284,-0.5119,-0.5232,-0.5383,0.0,0.0,0.0,0.0,0.0,-0.5483,-0.5305,-0.5428,-0.5542,-0.5496,-0.5482,-0.5555,-0.5789,-0.6617,-0.7074,-0.7104,-0.6753,-0.6337,-0.6051,-0.5286,-0.4925,-0.5071,-0.3305,-0.2994,-0.4312,-0.4386,-0.2953,0.0,0.0,0.0,0.0,0.0,0.0,0.0,0.0,0.0,0.0,0.0,0.0,0.0,0.0,0.0,0.0332,0.0,0.0,0.0,0.0,0.0,0.0,0.0,0.0,0.0,0.0,0.0,0.0,0.0,0.0,0.0,0.0,0.0,0.0,0.0,0.0,0.0,0.0,0.0,0.0,0.0,0.0,0.0,0.0,0.0,0.0,0.0,0.0,0.0,1.5187,1.4911,1.4584,1.4637,1.1295,0.8613,0.7602,0.6134,0.4357,0.2234,0.5577,0.6498,0.3667,0.7457,1.0325,1.1659,1.1922,1.2264,1.2644,1.31,1.2603,1.1205,0.9877,0.8402,0.6685,0.2983,-0.0129,-0.268,-0.3602,-0.4674,-0.5776,-0.5875,-0.5913,-0.5913,-0.5913,-0.5641,-0.5246,-0.4762,-0.4602,-0.4468,0.0,0.0,0.0,-0.422,-0.4892,-0.5483,-0.5305,-0.5859,-0.6146,-0.5789,-0.6197,-0.6474,-0.6321,-0.6997,-0.7516,-0.7628,-0.6922,-0.6454,-0.6337,-0.5382,-0.4753,-0.4662,-0.5023,-0.395,-0.133,-0.1253,-0.0788,0.0,0.0,0.0,0.0,0.0,0.0,0.0,0.0,0.0,0.0,0.0,0.0,0.0,0.0,0.0,0.0067,0.0,0.0,0.0,0.0,0.0,0.0,0.0,0.0,0.0,0.0,0.0,0.0,0.0,0.0,0.0,0.0,0.0,0.0,0.0,0.0,0.0,0.0,0.0,0.0,0.0,0.0,0.0,0.0,0.0,0.0,0.0,1.0363,1.5799,1.5321,1.4462,1.3214,1.1462,0.9887,0.8009,0.5659,0.4417,0.3791,0.3799,0.6373,0.8083,0.8493,1.0995,1.2191,1.1728,1.2795,1.3557,1.3906,1.3555,1.2797,1.1695,1.0892,0.9328,0.7037,0.328,-0.0324,-0.3639,-0.3896,-0.452,-0.5418,-0.6052,-0.6336,-0.6305,-0.6006,-0.5641,-0.5246,-0.4762,-0.4409,-0.4086,0.0,0.0,0.0,-0.421,-0.4892,-0.5483,-0.5305,-0.5752,-0.6055,-0.5804,-0.6313,-0.6636,-0.6517,-0.7146,-0.7556,-0.7451,-0.6793,-0.6278,-0.6023,-0.4694,-0.419,-0.4855,-0.4098,-0.2513,-0.0085,0.0,0.0,0.0,0.0,0.0,0.0,0.0,0.0,0.0,0.0,0.0,0.0,0.0,0.0,0.0,0.0,0.0,0.0,0.0,0.0129,-0.0063,-0.3212,-0.4349,-0.4182,-0.3416,0.0,0.0,0.0,0.0,0.0,0.0,0.0,0.0,0.0,0.0,0.0,0.0,0.0,0.0,0.0,0.0,0.0,0.0,0.0,0.0,0.0,0.0,0.0,0.0,1.0594,1.6529,1.6208,1.5185,1.3365,1.0336,0.9094,0.7496,0.5017,0.4495,0.4648,0.5405,0.8144,1.0224,1.1283,1.286,1.373,1.3789,1.4728,1.5322,1.5482,1.4415,1.3165,1.1754,1.0482,0.8485,0.5774,0.2469,-0.085,-0.4004,-0.4128,-0.4781,-0.5774,-0.6238,-0.6348,-0.6244,0.0,0.0,0.0,0.0,-0.3988,-0.3537,0.0,0.0,0.0,-0.4197,-0.4892,-0.5433,-0.5226,-0.5387,-0.5554,-0.5633,-0.5982,-0.6257,-0.6383,-0.7054,-0.7336,-0.6939,-0.6478,-0.5976,-0.5356,-0.3866,-0.3534,-0.4736,-0.1722,0.0,0.0,0.0,0.0,0.0,0.0,0.0,0.0,0.0,0.0,0.0,0.0,0.0,0.0,0.0,0.0,0.0,0.0,-0.0349,-0.0812,-0.0813,-0.2622,-0.5193,-0.5311,-0.4875,-0.42,-0.4523,0.0,0.0,0.0,0.0,0.0,0.0,0.0,0.0,0.0,0.0,0.0,0.0,0.0,0.0,0.0,0.0,0.0,0.0,0.0,0.0,0.0,0.0,0.0,0.0,1.0275,1.6582,1.7666,1.682,1.4696,1.0939,0.8856,0.708,0.5398,0.5753,0.6425,0.7203,1.0455,1.2539,1.2799,0.0,0.0,0.0,0.0,1.7051,1.6869,1.5176,1.3316,1.1335,0.9167,0.6574,0.3677,0.1068,-0.1507,-0.3902,-0.4192,-0.508,-0.6309,-0.6186,-0.605,-0.5924,-0.6285,-0.5992,-0.5285,-0.4276,-0.3513,-0.3017,0.0,0.0,0.0,-0.4197,-0.4892,-0.5316,-0.4747,-0.5144,-0.5337,-0.4955,-0.5456,-0.5901,-0.5928,-0.6495,-0.6841,-0.6753,-0.622,-0.5578,-0.4735,-0.4787,-0.3726,-0.1121,-0.0348,0.0,0.0,0.0,0.0,0.0,0.0,0.0,0.0,0.0,0.0,0.0,0.0,0.0,0.0,0.0,0.0,0.0,0.0,-0.2306,-0.5732,-0.5738,-0.4811,-0.371,-0.4973,-0.5175,-0.4913,-0.5212,-0.4904,-0.4566,-0.5475,-0.497,0.0,0.0,0.0,0.0,0.0,0.0,0.0,0.0,0.0,0.0,0.0,0.0,0.0,0.0,0.0,0.0,0.0,0.0,0.0,0.2569,1.1127,1.8016,1.9601,1.9085,1.7132,1.3358,0.9237,0.6676,0.6703,0.705,0.8026,0.9878,1.2378,1.4082,1.4718,1.5972,1.6855,1.7242,1.7371,1.6972,1.6036,1.4154,1.2091,0.9877,0.0,0.0,0.2749,0.0212,-0.1816,-0.3291,-0.3746,-0.4433,-0.5282,-0.5262,-0.5517,-0.5896,-0.5875,-0.5402,-0.4761,-0.4545,-0.3851,-0.3017,0.0,0.0,0.0,-0.417,-0.4566,-0.475,-0.456,-0.4787,-0.4901,-0.4728,-0.5209,-0.561,-0.5688,-0.6027,-0.619,-0.6044,-0.5481,-0.471,-0.3699,-0.4485,-0.3489,-0.0173,0.0,0.0,0.0,0.0,0.0,0.0,0.0,0.0,0.0,0.0,0.0,0.0,0.0,0.0,0.0,0.0,0.0,-0.0199,-0.2956,-0.4577,-0.544,-0.6655,-0.6023,-0.4638,-0.5393,-0.5377,-0.5026,-0.5148,-0.5091,-0.4973,-0.5557,-0.5195,-0.4672,0.0,0.0,0.0,0.0,0.0,0.0,0.0,0.0,0.0,0.0,0.0,0.0,0.0,0.0,-1.0166,-0.7156,0.0,0.8981,1.0245,1.5011,1.9016,2.0311,1.7188,1.4006,1.1991,0.9304,0.7785,0.826,0.9425,1.1043,1.3188,1.4847,1.618,1.714,1.7772,1.8095,1.8098,1.8036,1.7324,1.5914,1.4059,1.2097,0.997,0.7653,0.5416,0.3169,-0.0656,-0.2735,-0.3373,-0.3435,-0.3438,-0.3403,-0.36,-0.4199,-0.5059,-0.5487,-0.5292,-0.4739,-0.4567,-0.4004,-0.3207,0.0,0.0,0.0,-0.406,-0.4157,-0.4234,-0.4402,-0.4498,-0.4563,-0.4629,-0.5013,-0.5311,-0.5406,-0.5545,-0.5532,-0.5294,-0.489,-0.4117,-0.2876,-0.3337,-0.2574,-0.0093,0.0,0.0,0.0,0.0,0.0,0.0,0.0,0.0,0.0,0.0,0.0,0.0,0.0,0.0,0.0,0.0,-0.0606,-0.1916,-0.6275,-0.6532,-0.4538,-0.6397,-0.6679,-0.6118,-0.603,-0.5515,-0.4934,-0.5171,-0.5185,-0.5126,-0.5573,-0.5325,-0.4857,-0.4705,-0.2397,0.0,0.0,0.0,0.0,0.0,0.0,0.0,0.0,0.1036,-0.4072,-0.7099,-0.7965,-0.6007,0.1235,1.1386,1.8672,1.8679,1.9357,1.9722,1.9273,1.4634,1.102,1.0302,0.9453,0.9499,1.0908,1.235,1.404,1.6027,1.7247,1.8234,1.9005,1.9122,1.9094,1.8938,1.8632,1.765,1.6006,1.4115,1.2186,1.0273,0.7668,0.5463,0.3567,-0.0682,-0.2748,-0.2869,-0.2617,-0.2093,-0.146,-0.1737,-0.2588,-0.3829,-0.4638,-0.4952,-0.4868,-0.4552,-0.4087,-0.3385,0.0,0.0,0.0,0.0,0.0,-0.42,-0.4217,-0.4379,-0.4525,-0.4539,-0.4769,-0.4921,-0.4802,-0.4928,-0.5003,-0.4972,-0.5186,-0.4629,-0.3188,-0.1429,-0.0359,-0.0,0.0,0.0,0.0,0.0,0.0,0.0,0.0,0.0,0.0,0.0,0.0,0.0,0.0,0.0,0.0,0.0,-0.2726,-0.7199,-0.7798,-0.7606,-0.7007,-0.6831,-0.6691,-0.6373,-0.5973,-0.5348,-0.4947,-0.6257,-0.5541,-0.4515,-0.6451,-0.5686,-0.3662,-0.1892,0.1365,0.4946,0.785,1.1026,1.3637,1.411,1.4272,1.3107,0.0,0.0981,-0.5529,-0.733,-0.8935,-0.5555,0.9037,1.7245,2.1807,2.1801,2.1888,2.0149,1.4945,1.4571,1.3974,1.1671,1.024,1.1283,1.6054,1.5654,1.5666,1.7042,1.8947,1.9698,1.8885,1.9662,1.9919,1.9434,1.8709,1.7549,1.5937,1.3463,1.1333,0.9488,0.724,0.4958,0.2693,0.1357,0.0338,-0.0397,-0.0352,-0.0307,-0.0218,-0.0262,-0.1134,-0.2495,-0.2639,-0.3621,-0.4951,-0.4765,-0.4191,-0.3277,0.0,0.0,0.0,0.0,0.0,-0.4043,-0.417,-0.4247,-0.4368,-0.4508,-0.4572,-0.4629,-0.4565,-0.4616,-0.4822,-0.5216,-0.5137,-0.4367,-0.2681,-0.0925,0.0,0.0,0.0,0.0,0.0,0.0,0.0,0.0,0.0,0.0,0.0,0.0,0.0,0.0,0.0,0.0,-0.0205,-0.3285,-0.5967,-0.8034,-0.7839,-0.7578,-0.725,-0.7282,-0.6893,-0.6434,-0.6373,-0.5891,0.0,-0.6123,-0.6047,-0.5746,-0.6432,-0.5919,-0.3982,0.1493,0.3895,0.5823,1.0676,1.426,1.5983,1.3251,1.3782,1.4534,1.2806,0.1712,-0.8735,-1.0523,-0.7383,-0.0714,1.1049,1.6347,1.8485,1.7225,1.9438,2.0092,1.6563,1.5351,1.4579,1.3884,1.3303,1.4075,1.6941,1.6449,1.6601,1.8283,1.9149,1.9636,1.9731,2.0097,1.9875,1.8956,1.8411,1.7374,1.58,1.3787,1.1953,1.0244,0.8732,0.6301,0.3113,0.2791,0.2409,0.2047,0.2089,0.2087,0.2083,0.2087,0.1152,-0.031,-0.0954,-0.1856,-0.299,-0.4491,-0.3751,-0.1813,0.0,0.0,0.0,0.0,0.0,0.0,0.0,0.0,-0.4446,-0.4649,-0.483,-0.4899,-0.4783,-0.4625,-0.4677,-0.5164,-0.4903,-0.4244,-0.3045,-0.1066,0.0,0.0,0.0,0.0,0.0,0.0,0.0,0.0,0.0,0.0,0.0,0.0,0.0,0.0,0.0,0.0,-0.0309,-0.5679,-0.7952,-0.7886,-0.77,-0.7363,-0.7048,-0.7236,-0.7021,-0.6631,-0.6981,-0.6646,-0.6213,-0.6801,-0.7078,-0.7162,-0.6963,-0.595,-0.376,0.1983,0.5695,0.8997,1.3815,1.695,1.7711,1.294,1.2446,1.1857,0.6891,-0.3644,-1.2779,-1.4172,-0.6754,0.2539,1.0864,1.3718,1.4426,1.3363,1.6922,1.9146,1.7176,1.575,1.4999,1.5236,1.535,1.5724,1.6546,1.6484,1.7058,1.8695,1.8941,1.9207,1.9604,1.9836,1.9483,1.84,1.7884,1.715,1.6093,1.4163,1.2456,1.099,0.9682,0.7199,0.385,0.4316,0.4474,0.4482,0.4539,0.4272,0.3825,0.3836,0.3025,0.1782,0.1011,0.0182,-0.0758,-0.2546,-0.2098,-0.0381,0.0,0.0,0.0,0.0,0.0,0.0,0.0,0.0,0.0,-0.5048,-0.5686,-0.5968,-0.5521,-0.4893,-0.4519,-0.4515,-0.4516,-0.461,-0.4792,-0.1798,0.0,0.0,0.0,0.0,0.0,0.0,0.0,0.0,0.0,0.0,0.0,0.0,0.0,0.0,0.0,0.0,-0.0303,-0.5775,-0.7839,-0.7579,-0.7502,-0.7168,-0.6737,-0.6719,-0.6946,-0.7264,-0.7833,-0.7578,-0.7236,-0.9004,-0.8933,-0.8207,-0.8546,-0.5731,-0.2289,-0.2021,0.6736,1.653,1.7435,1.9082,1.9363,1.4535,1.1677,0.4851,-1.4974,-1.8507,-1.7592,-1.7648,-0.8242,0.2122,0.9103,1.0439,1.107,1.2896,1.5844,1.699,1.4478,1.5281,1.5844,1.5011,1.5208,1.5419,0.0,1.6134,1.6945,1.7779,1.8627,1.8684,1.7734,1.861,1.8789,1.8038,1.7192,1.6851,1.7051,1.4317,1.237,1.1276,0.9168,0.6906,0.471,0.613,0.6832,0.6911,0.6911,0.5933,0.4391,0.4391,0.4049,0.3534,0.3493,0.2497,0.121,0.1755,0.1273,0.0524,0.0,0.0,0.0,0.0,0.0,0.0,0.0,0.0,0.0,0.0,0.0,0.0,0.0,0.0,0.0,0.0,-0.4819,-0.4612,-0.4606,-0.3464,-0.1959,-0.0088,0.0,0.0,0.0,0.0,0.0,0.0,0.0,0.0,0.0,0.0,0.0,0.0,0.0,-0.1988,-0.525,-0.5174,-0.5986,-0.7411,-0.7055,-0.6766,-0.6475,-0.6722,-0.7125,-0.7777,0.0,-0.9903,-0.9565,-1.0245,-1.0286,-1.009,-1.0511,-0.6853,0.0,1.2623,1.7722,1.8335,1.3994,1.2452,1.2238,1.3068,0.8252,-0.0301,-1.4248,-1.8583,-1.9004,-1.6689,-0.4061,0.6647,0.6937,0.5067,0.5218,1.0542,1.3133,1.4395,1.411,1.622,1.7127,1.5307,1.5799,1.6268,1.6268,0.0,0.0,1.6948,1.7225,1.7669,1.8364,1.8789,1.8954,1.8805,1.8427,1.7979,1.7509,1.4959,1.3196,1.2184,0.9287,0.7321,0.6252,0.7028,0.7338,0.7277,0.718,0.6657,0.5805,0.5125,0.4641,0.4371,0.464,0.4228,0.3685,0.4824,0.4971,0.4654,0.0,0.0,0.0,0.0,0.0,0.0,0.0,0.0,0.0,0.0,0.0,0.0,0.0,0.0,0.0,0.0,0.0,-0.4601,-0.4478,-0.4354,-0.3607,-0.2154,-0.1217,-0.0816,-0.0812,-0.0746,-0.0759,-0.0759,-0.0288,0.0,0.0,0.0,0.0,-0.0098,-0.1596,-0.4086,-0.6967,-0.526,-0.5478,-0.6979,-0.6675,-0.6403,-0.6325,-0.7014,-0.7842,0.0,-1.096,-1.1916,-1.2157,-1.1999,-1.2019,-1.1567,-0.8908,-0.5114,0.1349,1.6739,2.0241,1.8,1.2771,1.0013,0.8602,0.8509,0.421,-0.3061,-1.4825,-1.8155,-1.7045,-1.1111,0.0667,0.8566,0.422,0.1544,0.1869,0.7653,1.0436,1.2496,1.4156,1.6455,1.7516,1.6309,1.703,1.75,1.7165,1.689,0.0,1.6616,1.7396,1.7881,1.7846,1.8532,1.8856,1.8666,1.8429,1.811,1.7698,1.5364,1.3461,1.2044,0.9515,0.8327,0.8359,0.8433,0.8393,0.8214,0.7969,0.7472,0.6713,0.6107,0.5596,0.5254,0.5542,0.5471,0.5329,0.6297,0.6646,0.6584,0.0,0.0,0.0,0.0,0.0,0.0,0.0,0.0,0.0,0.0,0.0,0.0,0.0,0.0,0.0,0.0,0.0,0.0,-0.4578,-0.4552,-0.4878,-0.5711,-0.3573,-0.2366,-0.2336,-0.2312,-0.2341,-0.2341,-0.092,-0.0167,-0.0084,-0.0086,-0.0087,-0.026,-0.4337,-0.5843,-0.5467,-0.6086,-0.6364,-0.6336,-0.6384,-0.6359,-0.6397,-0.7576,-0.8948,-1.039,-1.188,-1.3424,-1.4688,-1.41,-1.4005,-1.2637,-0.4099,-0.1152,0.1036,1.0629,1.4803,1.5864,1.3637,1.1693,0.8643,0.1711,-0.0394,-0.4241,-1.7347,-1.7763,-1.2599,-0.2645,0.4736,0.736,0.0705,-0.0378,0.0849,0.4292,0.7844,1.1212,1.4186,1.5876,1.71,1.785,1.8825,1.9081,1.8127,1.8884,0.0,1.6926,0.0,1.9087,1.6376,1.7881,1.8505,1.7792,1.7329,1.729,1.7676,1.5427,1.3188,1.0951,0.9971,0.9978,1.0864,1.041,1.0048,0.9748,0.9338,0.8392,0.7164,0.7176,0.6827,0.632,0.6379,0.6374,0.6396,0.6521,0.6606,0.6606,0.0,0.0,0.0,0.0,0.0,0.0,0.0,0.0,0.0,0.0,0.0,0.0,0.0,0.0,0.0,0.0,0.0,0.0,-0.5237,-0.5043,-0.4941,-0.4804,-0.4673,-0.44,-0.3898,-0.3908,-0.3912,-0.3912,-0.3514,-0.2792,-0.1673,-0.1603,-0.1609,-0.169,-0.2753,-0.4129,-0.5633,-0.6355,-0.6675,-0.6746,-0.7191,-0.7275,-0.7255,-0.8222,-0.9252,-1.0445,-1.2251,-1.3474,-1.4176,-1.4073,-1.4213,-1.2404,-0.1105,-0.4315,-0.8491,1.0948,1.5411,1.3591,1.1573,1.0691,0.8631,0.1731,-0.5939,-1.2626,-1.5966,-1.6045,-1.4134,-0.9705,-0.2748,0.0442,-0.6401,-0.5544,-0.2679,0.0744,0.5316,0.8954,1.0448,1.4367,1.742,1.832,2.0212,2.1055,2.0018,2.0722,0.0,0.0,1.8877,1.8377,1.7984,1.8842,1.9117,1.8676,1.8542,1.8117,1.7339,1.5472,1.3543,1.1579,1.2098,1.2278,1.2108,1.1743,1.1268,1.0722,0.9938,0.9012,0.8071,0.8241,0.8088,0.7815,0.8554,0.8692,0.8553,0.9148,0.9381,0.9291,0.0,0.0,0.0,0.0,0.0,0.0,0.0,0.0,0.0,0.0,0.0,0.0,0.0,0.0,0.0,0.0,0.0,0.0,0.0,-0.5096,-0.4852,-0.4919,-0.4985,-0.4851,-0.4511,-0.4517,-0.4521,-0.4521,-0.4511,-0.4253,-0.382,-0.3383,-0.3209,-0.3235,-0.3385,-0.4183,-0.5409,-0.6417,-0.7268,0.0,0.0,-0.8508,-0.9146,-1.0301,-1.1041,-1.1654,-1.3101,-1.3964,-1.4038,-1.1609,-0.9761,-0.6148,0.7062,0.5964,0.2158,1.4263,1.555,1.2841,1.1726,1.0572,0.8102,0.1626,-0.7957,-1.5728,-1.5457,-1.4242,-1.3637,-1.5313,-1.1015,-0.7863,-1.0917,-0.7212,-0.2895,-0.0404,0.4353,0.8349,1.0099,1.4219,1.7652,1.9246,2.0637,2.1209,2.0566,2.1327,2.1465,2.0511,2.0165,1.9735,1.9123,1.9905,2.0058,1.938,1.9386,1.875,1.7432,1.6063,1.4878,1.3828,1.393,1.3853,1.3466,1.2813,1.2134,1.1357,1.0697,1.0069,0.9509,0.9883,0.993,0.9875,1.0689,1.0919,1.0797,1.0905,1.0785,1.0442,0.0,0.0,0.0,0.0,0.0,0.0,0.0,0.0,0.0,0.0,0.0,0.0,0.0,0.0,0.0,0.0,0.0,0.0,0.0,0.0,-0.4842,-0.5542,-0.4897,-0.4519,-0.4519,-0.4519,-0.4515,-0.4512,-0.4482,-0.489,-0.569,-0.5103,-0.4681,-0.4522,-0.4853,-0.4977,-0.5016,-0.6502,-0.7817,-0.9013,-0.9115,-0.9956,-1.1283,0.0,-1.3097,-1.3192,-1.4037,-1.4621,-1.4239,-0.9182,-0.5018,0.0535,1.4907,1.9899,2.0067,1.784,1.5359,1.33,1.2998,1.0795,0.7204,0.1432,-0.7694,-1.5277,-1.5375,-1.3451,-1.3379,-1.9375,-1.7647,-1.4719,-1.3596,-0.6945,-0.0995,0.1004,0.471,0.8005,0.9968,1.3792,1.7433,2.019,2.0497,2.0453,2.0429,2.1241,2.1481,2.0722,2.1813,2.1705,1.9839,2.0862,2.097,1.9835,1.9788,1.9104,1.7708,1.6992,1.6528,1.6401,1.5536,1.5053,1.4801,1.3669,1.2806,1.2113,1.154,1.1239,1.1223,1.184,1.2115,1.2242,1.2932,1.3121,1.299,1.231,1.1693,1.1015,0.0,0.0,0.0,0.0,0.0,0.0,0.0,0.0,0.0,0.0,-0.6596,-0.5407,0.0,0.0,0.0,0.0,0.0,0.0,0.0,0.0,0.0,-0.5773,-0.4956,-0.4519,-0.4519,-0.4519,-0.4505,-0.4474,-0.4505,-0.456,-0.4761,-0.578,-0.5592,-0.4475,-0.4594,-0.5026,-0.5815,-0.7023,-0.8187,-0.9268,-1.0462,-1.1287,-1.1897,-1.2415,0.0,0.0,-1.4151,-1.4977,-1.5272,-1.2866,-1.0532,-0.606,0.8694,1.6341,1.9084,1.5153,1.4887,1.5439,1.3456,1.0172,0.6119,0.1206,-0.6281,-1.3006,-1.4949,-1.7176,-1.9141,-2.0352,-1.5631,-1.2091,-1.4791,-0.7107,0.1539,0.7253,0.6655,0.468,0.2366,0.8857,1.5524,2.0051,2.0447,2.036,2.0472,2.1273,0.0,0.0,2.1568,2.1113,1.9935,2.0901,2.0996,1.9918,1.9365,1.8611,1.7708,1.7655,1.7269,1.648,1.6741,1.6612,1.6126,1.4359,1.3797,1.4014,1.2349,0.0,1.3077,1.3733,1.4282,1.4763,1.5393,1.5409,1.4936,1.4336,1.3721,1.3072,0.0,0.0,0.0,0.0,0.0,0.0,0.0,-0.7413,-0.8057,-0.8046,-0.6835,-0.6041,-0.6211,-0.5175,-0.4519,0.0,0.0,0.0,0.0,0.0,0.0,-0.5832,-0.5011,-0.4519,-0.4519,-0.4519,-0.4501,-0.4522,0.0,-0.5584,-0.5612,-0.6258,-0.6673,-0.6668,-0.5441,-0.5375,-0.6284,-0.8287,-0.9603,-1.0539,-1.2628,-1.3386,-1.3228,-1.3408,0.0,0.0,-1.484,-1.5894,-1.5767,-0.8699,-0.2598,0.365,1.2979,1.7652,1.8838,1.4472,1.4767,1.5958,1.3561,1.0869,0.647,-0.2987,-0.7234,-0.9959,-1.3331,-1.6066,-1.8066,-1.8652,-1.57,-1.3548,-1.5277,-0.9081,-0.3021,-0.0942,0.3984,0.7653,0.7973,1.3225,1.7882,2.0159,2.0359,2.0346,2.0438,2.0834,2.1066,2.1079,2.1288,2.1128,2.0508,2.0937,2.1185,2.1153,2.0013,1.9417,1.942,1.9021,1.8593,1.8172,1.7531,1.6957,1.6353,1.4903,1.4356,1.4575,1.3957,1.4167,1.5008,1.5647,1.6058,1.6342,1.6683,1.6469,1.5879,1.4993,1.4043,1.312,0.0,0.0,0.0,0.0,0.0,0.0,0.0,-0.7182,-0.7838,-0.755,-0.7012,-0.6827,-0.7239,-0.5694,-0.4591,0.0,0.0,0.0,0.0,0.0,0.0,0.0,-0.4901,-0.4519,-0.4519,0.0,0.0,-0.4522,-0.6228,0.0,0.0,0.0,0.0,0.0,-0.6482,-0.6177,-0.7389,-0.9718,-1.1146,0.0,0.0,-1.5013,-1.446,0.0,0.0,0.0,0.0,-1.6327,-1.5698,-0.1837,0.7516,1.3828,1.6535,1.7673,1.7293,1.3585,1.4079,1.5494,1.4076,1.2341,0.7494,-0.6736,-0.8433,-0.7734,-1.2081,-1.415,-1.5508,-1.6758,-1.5918,-1.5159,-1.5814,-1.0265,-0.6129,-0.7819,0.0843,0.9574,1.467,1.7761,1.9682,2.0243,2.0297,2.0479,2.0912,2.078,0.0,2.0759,2.095,2.1091,2.1198,2.1007,2.1295,2.2207,2.0944,2.054,2.1118,2.0261,1.9767,1.966,1.8232,1.7275,1.6645,1.5692,1.5262,1.5369,1.57,1.6248,1.6894,1.7356,1.7625,1.7746,1.78,1.7395,1.6634,1.5596,1.4367,1.311,0.0,0.0,0.0,0.0,0.0,0.0,0.0,-0.6496,-0.7404,-0.8021,-0.7703,-0.7525,-0.7856,-0.6088,-0.4765,0.0,0.0,0.0,0.0,0.0,0.0,0.0,0.0,0.0,0.0,0.0,0.0,-0.4522,-0.7253,0.0,0.0,0.0,0.0,0.0,0.0,-0.7607,-0.9913,-1.0915,0.0,0.0,0.0,0.0,0.0,0.0,0.0,0.0,0.0,-1.5324,-1.4747,0.525,1.2535,1.2826,1.0598,1.1082,1.2215,1.0658,1.1757,1.389,1.5674,1.4583,0.9176,-0.6413,-0.8433,-0.7836,-1.2542,-1.3978,-1.4766,-1.6406,-1.4824,-1.4082,-1.7179,-0.8384,-0.0719,-0.0914,0.0097,0.4301,1.4034,1.5683,1.6971,1.9942,2.0295,2.0946,2.2594,2.2057,2.1587,2.1585,2.0568,2.0527,2.185,2.12,2.1185,2.2007,2.1653,2.1472,2.1552,2.0667,2.0024,1.9585,1.9014,1.8482,1.792,1.7274,1.7274,1.7746,1.7261,1.7666,0.0,1.8712,1.9043,1.9479,1.9479,1.8841,1.784,1.722,1.5954,1.4514,0.0,0.0,0.0,0.0,0.0,0.0,-0.5396,-0.6381,-0.7125,-0.7302,-0.7593,-0.7877,-0.8091,-0.7119,-0.6079,-0.5203,0.0,0.0,0.0,0.0,0.0,0.0,0.0,0.0,0.0,0.0,-0.535,-0.7085,-0.6519,0.0,0.0,0.0,0.0,0.0,0.0,-1.004,-1.2712,-1.3539,0.0,0.0,0.0,0.0,0.0,0.0,0.0,0.0,0.0,0.0,-0.4561,1.2063,1.6891,1.5761,1.4625,1.478,1.4956,1.2671,1.2627,1.3476,1.4308,1.3887,1.0427,-0.1204,-0.6487,-0.9379,-1.1477,-1.259,-1.37,-1.5536,-1.5121,-1.4827,-1.6183,-1.2511,-0.7242,-0.1005,0.6981,1.3659,1.7243,1.6327,1.6529,1.9889,2.0349,2.063,0.0,0.0,2.1678,2.1634,2.0973,2.0823,2.1357,2.0752,2.0781,2.1655,2.1366,2.1193,2.1244,2.0616,2.0074,1.9645,1.8797,1.8232,1.7997,1.7464,1.7505,1.8037,1.8168,1.8783,0.0,1.95,1.9645,2.0,1.9449,1.8545,1.7477,1.6944,1.6337,1.5764,0.0,0.0,0.0,0.0,0.0,-0.5336,-0.5251,-0.6067,-0.6699,-0.6587,-0.747,-0.8249,-0.8415,-0.8075,-0.7491,-0.6514,-0.6105,0.0,0.0,0.0,0.0,0.0,0.0,0.0,0.0,0.0,-0.6761,-0.879,-0.675,-0.5333,0.0,0.0,-0.7674,-1.2929,0.0,0.0,0.0,0.0,0.0,0.0,0.0,0.0,0.0,0.0,0.0,0.0,0.0,0.0,0.0,0.0,0.0,1.7057,1.6888,1.682,1.6365,1.4067,1.2763,1.2321,1.353,1.3853,1.1624,0.2323,-0.3661,-0.7841,-1.0084,-1.1342,-1.2693,-1.4939,-1.4956,-1.4772,-1.5303,-1.5403,-1.1027,0.2383,1.3123,1.973,1.962,1.7764,1.7375,1.9988,0.0,2.0636,2.1344,2.2031,2.2211,2.1642,2.1511,2.121,2.0677,2.0317,2.0586,2.1607,2.1302,2.1206,2.1385,2.059,2.0128,2.0085,1.9008,1.8503,1.8503,1.8115,1.8154,1.8541,1.8954,1.9522,0.0,1.9818,1.9874,2.0054,1.9376,1.8659,1.7936,1.7353,1.7068,1.7028,0.0,0.0,0.0,0.0,0.0,0.0,-0.496,-0.5534,-0.5906,-0.6145,-0.7628,-0.872,-0.8965,-0.887,-0.8719,-0.8556,-0.6921,0.0,0.0,0.0,0.0,0.0,0.0,0.0,0.0,0.0,-0.8797,-0.8793,-0.8747,-0.7285,-0.4529,-0.4918,-0.7756,-1.2484,0.0,0.0,0.0,0.0,0.0,0.0,0.0,0.0,-1.423,0.0,0.0,0.0,0.0,0.0,0.0,0.0,0.0,0.0,0.0,1.4521,1.437,1.3611,1.1287,0.9891,1.422,1.5377,1.2892,0.257,-0.0051,-0.1866,-0.8587,-1.057,-1.184,-1.4808,-1.3992,-1.329,-1.5067,-1.5401,-0.8685,1.1903,1.6695,1.8418,2.0064,1.9697,1.9507,2.0227,2.0307,2.1212,2.3534,2.4011,2.3463,2.1725,2.2036,0.0,1.9903,2.0055,2.0743,2.1958,2.1714,2.1807,2.2265,2.0701,2.0272,2.0959,2.0104,1.969,1.969,1.969,1.969,1.969,1.969,1.969,0.0,1.969,1.969,1.9726,1.969,1.9782,1.9785,1.9123,1.8557,1.8249,0.0,0.0,0.0,0.0,0.0,0.0,0.0,-0.6481,-0.6945,-0.7191,-0.8081,-0.894,-0.9417,-0.8921,-0.8639,-0.8983,-0.8344,0.0,0.0,0.0,0.0,0.0,0.0,0.0,0.0,-0.8325,-0.7854,-0.5864,-0.5882,-0.4351,-0.1441,-0.153,-0.6228,-1.446,-1.3735,-1.5043,0.0,0.0,0.0,0.0,0.0,-1.4661,-1.5303,0.0,0.0,0.0,0.0,0.0,0.0,0.0,0.0,0.0,0.0,0.0,0.0,1.4839,1.4098,1.3129,1.217,1.1113,0.8625,0.172,0.0,-0.0571,-0.2721,-0.88,-1.4277,-1.521,-1.4937,-1.2561,-0.6067,-0.0458,0.5874,1.4061,1.5745,1.6095,1.6319,1.8555,2.0274,2.0481,2.0464,2.0944,0.0,0.0,2.2416,2.2416,2.2353,2.1751,2.0476,2.0981,2.1024,2.046,2.0662,2.0866,2.1059,2.0791,2.0623,2.0516,2.0261,1.9965,1.9711,2.0311,2.0277,1.9726,2.0,2.0124,2.0089,1.9803,1.9874,2.0089,1.9818,1.9782,1.9937,2.0062,2.0568,2.1272,0.0,0.0,0.0,0.0,0.0,0.0,0.0,-0.6721,-0.7289,-0.7547,-0.8258,-0.8991,-0.9466,-0.8831,-0.8611,-0.9137,-0.8869,0.0,0.0,0.0,0.0,0.0,0.0,0.0,-1.0316,-0.8053,-0.5536,-0.2823,-0.1746,-0.0794,-0.0,-0.1234,-0.545,-1.2193,-1.4154,-1.6063,0.0,0.0,0.0,0.0,-1.396,-1.4006,-1.4599,0.0,0.0,0.0,0.0,0.0,0.0,0.0,0.0,0.0,0.0,0.0,0.0,0.0,1.5214,1.4089,0.8043,0.8527,0.9949,0.6634,0.5803,0.5474,0.419,-0.3101,-0.9589,-0.9603,-0.96,-0.6705,0.2724,0.8817,1.3058,1.5075,1.5292,1.511,1.4867,1.7579,0.0,2.0488,0.0,0.0,0.0,2.1718,2.2092,2.2192,2.2246,2.1975,2.1227,2.1191,2.0934,2.0358,2.049,2.0656,2.0766,2.0809,2.0797,2.0797,2.0483,2.0261,2.0208,2.0565,2.0532,2.0174,2.0246,2.0314,0.0,1.9874,2.0005,2.0401,1.9924,2.0326,2.1188,2.085,2.1759,2.3211,0.0,0.0,0.0,0.0,0.0,0.0,0.0,-0.6426,-0.711,-0.7304,-0.812,-0.8811,-0.903,-0.8617,-0.851,-0.903,0.0,0.0,0.0,0.0,0.0,0.0,0.0,0.0,-1.2512,-0.7101,-0.2943,-0.0262,0.2108,0.2042,-0.0384,-0.3896,-0.6089,-0.7377,-1.36,-1.6435,-1.6442,-1.5124,-1.3969,-1.3013,-1.2757,-1.2662,0.0,0.0,0.0,0.0,0.0,0.0,0.0,0.0,0.0,0.0,0.0,0.0,0.0,0.0,0.0,0.0,0.0,0.8032,1.5395,1.539,1.5402,1.4538,1.1264,0.5504,0.0,0.0589,0.0561,0.2865,1.0511,1.2768,1.397,1.5498,1.5661,1.5575,1.5571,1.7035,0.0,0.0,2.1111,0.0,2.0309,2.1771,2.2374,2.1363,2.1921,2.2205,2.199,2.0912,2.059,2.1186,2.1075,2.1085,2.1213,2.0816,2.0936,2.1582,2.0765,2.0583,2.0926,2.0583,2.0616,0.0,2.0516,2.0314,2.0212,1.9899,2.0139,2.0647,2.0004,2.1242,2.3149,2.1447,2.2276,2.4169,0.0,0.0,0.0,0.0,0.0,0.0,0.0,0.0,0.0,0.0,-0.7643,-0.7809,-0.7876,-0.7555,-0.7497,0.0,0.0,0.0,0.0,0.0,0.0,0.0,0.0,0.0,-0.9333,-1.025,-0.8184,-0.3044,-0.4873,-0.4976,-0.3577,-1.0514,-1.3024,-1.1947,-1.555,-1.6644,-1.5789,-1.5314,-1.4408,-1.3299,-1.3252,-1.3213,0.0,0.0,0.0,0.0,1.236,1.3765,0.0,0.0,0.0,0.0,0.0,0.0,0.0,0.0,1.4198,1.3348,1.0904,0.0,1.5395,1.5399,1.5405,1.4907,0.0,1.0763,0.8435,0.6314,0.5883,0.7359,1.2144,1.3693,1.532,1.8602,1.9246,1.8863,1.7504,1.8832,0.0,1.9617,2.0824,2.106,1.9526,2.1443,2.2623,2.2242,2.2262,2.2145,2.1789,2.1564,2.0753,1.9304,2.1135,2.1923,2.1505,2.1654,2.169,2.1582,2.1383,2.0991,2.0483,2.1415,2.115,2.005,2.0599,2.0465,1.9884,2.028,2.0572,2.0692,2.0543,2.1443,2.2778,2.2202,2.2995,2.4461,0.0,0.0,0.0,0.0,0.0,0.0,0.0,0.0,0.0,0.0,0.0,-0.8029,-0.7943,-0.796,0.0,0.0,0.0,0.0,0.0,0.0,0.0,0.0,-1.1785,-1.0824,-0.9361,-0.9388,-0.7691,-0.4121,-0.5112,-0.5115,-0.4308,-0.781,-1.1031,-1.385,-1.5021,-1.5366,-1.507,-1.4463,-1.3682,-1.2863,-1.2982,0.0,0.0,0.0,0.0,0.0,1.3396,1.435,0.0,1.5287,1.5399,1.538,0.0,0.0,0.0,0.0,1.4392,1.3904,1.3903,1.4438,1.4901,1.458,1.4482,1.4161,1.2939,1.1252,0.9276,0.6971,0.7186,0.8943,1.2711,1.417,1.6033,1.9692,2.04,1.9848,1.8103,0.0,1.9373,1.9277,2.0355,2.0871,0.0,2.1794,2.27,2.2436,2.1991,2.1751,2.176,2.1399,2.1022,2.0625,2.185,2.2028,2.106,2.1919,2.2214,2.1928,2.1688,2.146,2.1244,2.1554,2.1291,2.0599,2.0665,2.0603,2.0451,2.0618,2.1066,2.156,2.0946,2.1838,2.3407,2.267,2.3405,2.4855,0.0,0.0,0.0,0.0,0.0,0.0,0.0,0.0,0.0,0.0,0.0,0.0,0.0,0.0,0.0,0.0,0.0,0.0,0.0,0.0,0.0,-1.1156,-1.0518,-1.0186,-1.022,-0.8112,-0.639,-0.5136,-0.401,-0.413,-0.5274,-0.4564,-0.7867,-1.4337,-1.3487,-1.3572,-1.4322,-1.332,-1.2644,-1.2279,-1.2409,0.0,0.0,0.0,0.0,0.0,0.0,0.0,0.0,1.5369,1.5369,1.5355,1.524,0.0,0.0,0.0,0.0,0.0,1.3867,1.3766,1.3752,1.3683,1.3415,1.2918,1.2005,0.9849,0.7622,0.6131,0.6835,0.8707,1.196,1.3959,1.6026,1.8916,1.9909,1.9865,1.8632,1.8632,1.8864,1.9116,2.0101,0.0,2.1198,2.2292,2.2747,2.2155,2.1721,2.1507,2.1599,2.1033,2.1273,2.2575,2.2549,2.1907,2.0651,2.2002,2.2563,2.2282,2.1823,2.1764,2.2077,2.1323,2.1118,2.1259,2.0601,0.0,2.1055,2.0903,2.1515,2.2428,2.141,2.2334,2.4128,2.2918,2.3575,2.5105,0.0,0.0,0.0,0.0,0.0,0.0,0.0,0.0,0.0,0.0,0.0,0.0,0.0,0.0,0.0,0.0,0.0,0.0,0.0,0.0,0.0,-0.9367,-1.0612,-1.0487,-0.8619,-1.2669,-1.2875,-0.8948,-1.0446,-1.1317,-1.1613,-1.6001,-1.6889,-1.4727,-1.2854,-1.2712,-1.3785,-1.3099,-1.2706,-1.249,-1.2085,0.0,0.0,0.0,0.0,0.0,0.0,0.0,0.0,1.5226,1.5235,1.5239,1.5207,0.0,0.0,0.0,0.0,0.0,1.1008,1.044,1.1162,1.4183,1.3467,1.2008,1.1843,1.0644,0.9484,0.9205,0.7888,0.7202,0.8494,1.1975,1.4738,1.5146,1.8082,2.0598,0.0,0.0,2.1387,1.9122,0.0,2.1727,1.967,2.215,2.316,2.1331,2.2407,2.2407,2.0792,2.1272,2.1382,2.0888,2.1931,2.226,2.1766,2.2387,2.2563,2.2282,2.1823,2.146,2.1197,2.1071,2.0632,2.0015,0.0,2.015,2.0023,2.1105,2.1665,2.1874,2.2233,2.296,2.3634,2.2896,2.3432,2.4592,0.0,0.0,0.0,0.0,0.0,0.0,0.0,0.0,0.0,0.0,0.0,0.0,0.0,0.0,0.0,0.0,0.0,0.0,0.0,-0.6012,-0.5381,-0.266,-0.6813,-0.9004,-0.8564,-1.3751,-1.5543,-1.3691,-1.7781,-1.8976,-1.7341,-1.7644,-1.6836,-1.5071,-1.2733,-1.1883,-1.2177,-1.1895,-1.1522,-1.1173,0.0,0.0,0.0,0.0,0.0,0.0,0.0,0.0,0.0,0.0,1.4817,1.4757,1.4352,0.0,0.0,0.0,0.0,0.0,0.9042,0.873,0.9126,1.083,1.0465,1.0068,1.1478,1.02,0.8709,0.8727,0.8543,0.8718,0.9808,1.2681,1.5474,1.7297,0.0,2.1058,2.122,2.1433,2.1099,0.0,0.0,2.005,1.9771,2.1963,2.3381,2.3327,2.3026,2.2364,2.1266,2.0721,2.0272,1.9853,2.1394,2.2162,2.2011,2.2064,2.2181,2.2282,2.1823,2.1491,2.1306,2.0846,2.0382,2.0035,0.0,2.0298,2.0797,2.1051,2.159,2.2218,2.2158,2.2532,2.3101,2.3161,2.3705,2.4389,0.0,0.0,0.0,0.0,0.0,0.0,0.0,0.0,0.0,0.0,0.0,0.0,0.0,0.0,0.0,0.0,0.0,0.0,0.0,-0.2183,-0.0889,0.2095,-0.3066,-0.6801,-0.8528,-1.4014,-1.7267,-1.8098,-2.271,-2.4012,-2.2128,-1.892,-1.623,-1.4046,-1.238,-1.1285,-1.0677,-1.0666,-1.0377,-0.9861,0.0,0.0,0.0,0.0,0.0,0.0,0.0,0.0,0.0,0.0,0.0,0.0,0.0,0.0,0.0,0.952,0.816,0.7652,0.7842,0.7898,0.7897,0.7894,0.7738,0.8113,1.0132,0.8966,0.7446,0.7438,0.8996,1.0816,1.2434,1.408,0.0,1.9526,2.0578,2.1119,2.1492,2.1313,2.1233,2.1457,1.998,1.9323,2.0216,2.1453,2.2747,2.4024,2.2988,2.1988,2.1254,2.0241,1.953,1.9176,2.0657,2.1555,2.1768,2.1463,2.1628,2.2135,2.1568,2.129,2.1259,2.0516,2.0158,2.0158,1.9839,2.0273,2.1216,2.1021,2.1545,2.2428,2.2218,2.2458,2.2993,2.3586,2.3948,2.4184,0.0,0.0,0.0,0.0,0.0,0.0,0.0,0.0,0.0,0.0,0.0,-0.8906,0.0,0.0,0.0,0.0,0.0,0.0,0.0,-0.1399,-0.0088,0.0179,-0.1453,-0.4004,-0.752,-1.462,-1.9248,-2.1275,-2.2352,-2.3761,-2.5357,-2.5052,-1.9694,-1.0339,-1.1334,-1.1119,-0.9972,-0.9966,-0.994,-0.938,-0.3299,0.0,0.0,0.0,0.0,0.0,0.0,0.0,0.0,0.0,0.0,0.0,0.0,0.0,1.1408,0.8741,0.7373,0.6868,0.7693,0.7899,0.79,0.7898,0.7293,0.6742,0.694,0.6826,0.668,0.6669,0.9336,1.2451,1.5034,1.5335,1.605,1.8588,1.9121,2.0537,2.4406,0.0,2.3769,2.4816,2.3469,2.188,2.0451,2.0403,2.0535,2.065,2.169,2.1477,1.9574,2.0296,2.0185,1.8878,1.9511,2.0249,2.1053,2.0739,2.0936,2.1658,2.0797,2.0366,2.0382,1.9929,1.9747,1.9747,1.9711,1.9735,1.9929,2.1126,2.168,2.1874,2.3011,2.349,2.3621,2.4142,2.4032,2.3709,0.0,0.0,0.0,0.0,0.0,0.0,0.0,0.0,0.0,0.0,0.0,-0.799,-0.864,-0.8225,-0.761,0.0,0.0,0.0,-0.091,0.104,0.2473,0.326,0.1415,-0.1018,-0.4024,-1.3831,-1.9442,-2.0343,-2.3171,-2.362,-2.1792,-1.915,-1.5429,-1.099,-1.1533,-1.1515,-1.1034,-1.0247,-0.8786,-0.6631,-0.1899,0.2482,0.0,0.0,0.0,0.0,0.0,0.0,0.0,0.0,0.8895,0.9055,0.9995,0.9674,0.8756,0.7757,0.7239,0.705,0.7383,0.7674,0.7901,0.7908,0.9381,1.0655,0.9973,0.9843,0.9836,0.9826,1.0886,1.2485,1.4808,1.5224,1.604,1.8659,1.9529,2.0807,2.3484,2.4319,2.4041,2.2395,2.1628,2.0999,2.035,1.9922,1.9678,1.9681,2.0145,2.0103,1.9338,1.9403,1.9128,1.8393,1.8861,1.9403,1.994,1.9857,2.0131,2.0797,2.0483,2.0314,2.028,1.9874,1.969,1.969,1.969,1.9929,2.0333,2.0408,2.0946,2.1784,2.2682,2.3266,2.3638,2.3837,2.3752,2.3638,0.0,0.0,0.0,0.0,0.0,0.0,0.0,0.0,-0.681,0.0,0.0,0.0,0.0,-0.6911,-0.5727,0.0,0.0,0.0,0.1106,0.2472,0.3347,0.3615,0.1471,-0.126,-0.4504,-1.29,-1.8488,-2.0976,-2.4135,-2.2574,-1.655,-1.4265,-1.245,-1.1078,-1.1586,-1.1575,-1.111,-0.9781,-0.7364,-0.4083,0.058,0.3893,0.0,0.0,0.0,0.0,0.0,0.0,0.0,0.0,0.8848,0.8862,0.8549,0.8066,0.7504,0.7118,0.702,0.7007,0.6999,0.7241,0.7548,0.7825,1.0081,1.2065,1.1418,1.1079,1.114,1.2107,1.2616,1.3263,1.4538,1.5005,1.5808,0.0,1.8872,2.0241,2.1988,2.3093,2.2868,2.0573,2.0301,2.0305,2.0307,1.9869,1.9617,1.962,1.9417,1.93,1.9285,1.8644,1.8088,1.7713,1.8082,1.8501,1.8953,1.8982,1.9397,2.0124,2.0124,2.0124,2.0089,1.9854,1.969,1.969,1.969,1.9944,2.0378,2.0124,2.0797,2.2054,2.2503,2.3056,2.3595,2.3595,2.3595,2.3595,0.0,0.0,0.0,0.0,0.0,0.0,-0.5251,-0.583,-0.6392,-0.6937,-0.6979,0.0,0.0,0.0,0.0,0.0,-0.0329,0.0,0.1855,0.2528,0.2019,0.0083,-0.1976,-0.5296,-1.0003,-1.1976,-1.6522,-2.3889,-2.4943,-2.0236,-1.0234,-1.222,-1.1988,-0.9945,-1.1213,-1.1082,-0.9811,-0.8261,-0.5658,-0.2004,0.4884,0.7661,0.7689,0.0,0.0,0.0,0.0,0.0,0.0,0.0,0.8743,0.8863,0.8665,0.8505,0.8167,0.6962,0.6609,0.6604,0.6591,0.6612,0.6842,0.774,0.8831,0.9789,1.0081,0.9528,0.9812,1.284,1.4415,1.5088,1.4634,1.4931,1.5262,1.5245,1.6747,1.8561,2.0354,2.0441,2.0296,2.0291,2.0298,2.0297,2.0289,2.0295,2.0304,2.0292,1.9674,1.9306,1.9306,1.8151,1.7262,1.6814,1.706,1.7517,1.8192,1.8207,1.8692,1.969,1.969,1.969,1.969,1.969,1.969,1.969,1.969,1.969,1.9735,2.0423,2.1485,2.2709,2.2724,2.3056,2.3595,2.3595,2.3595,2.3595,0.0,0.0,0.0,0.0,0.0,0.0,-0.5226,-0.583,-0.6264,-0.6435,-0.6764,0.0,0.0,0.0,0.0,0.0,0.0,0.2107,0.2026,0.2023,0.1402,0.004,-0.2224,-0.615,-1.1938,-1.4295,-1.5765,-1.6383,-1.049,-0.6039,-0.3138,-0.6219,-0.8552,-1.0202,-1.058,-1.0435,-0.9487,-0.3082,0.1555,0.4654,0.4973,0.5792,0.6786,0.0,0.0,0.0,0.0,0.0,0.0,0.0,0.0,0.0,0.8627,0.8411,0.8102,0.765,0.7084,0.6603,0.6597,0.739,0.8916,1.1816,1.126,1.0636,1.3126,1.3504,1.4259,1.758,1.8545,1.8487,1.7565,1.8149,0.0,1.7777,1.875,1.9795,2.0372,2.0376,2.0301,2.0298,2.0308,2.0115,1.9639,1.959,1.9601,1.9604,1.9412,1.8992,1.8294,1.7466,1.6992,1.6955,1.6709,1.699,1.7846,1.7861,1.8459,1.969,1.969,1.969,1.969,1.969,1.969,1.969,1.969,1.969,1.9735,2.0423,2.1216,2.2024,2.2544,2.3056,2.3595,2.3595,2.3334,2.2965,0.0,0.0,0.0,0.0,0.0,0.0,-0.487,-0.526,-0.5384,-0.5139,-0.5411,-0.4967,0.0,0.0,0.0,-0.0044,0.1476,0.2223,0.1805,0.1601,0.0974,-0.0194,-0.1488,-0.3055,-0.4943,-0.6421,-0.675,-0.5868,0.0149,0.2723,0.206,-0.0103,-0.2914,-0.6245,-0.6954,-0.7935,-0.8417,0.0795,0.5853,0.7561,0.6067,0.5689,0.599,0.0,0.0,0.0,0.0,0.0,0.0,0.0,0.0,0.0,0.8731,0.8579,0.8364,0.8001,0.7711,0.7562,0.7782,0.9582,1.1948,1.4217,1.343,1.2667,1.4731,1.5205,1.6168,1.9593,1.9591,1.9024,1.9249,1.9465,0.0,1.9375,1.988,2.0308,2.0353,2.0335,2.031,2.0305,2.005,1.9728,1.9333,1.9288,1.9127,1.8731,1.8689,1.8431,1.7838,1.6905,1.6433,1.6512,1.6243,1.6499,1.7294,1.7563,1.8253,1.9301,1.9555,1.969,1.969,1.969,1.969,1.969,1.969,1.969,1.972,2.0139,2.0707,2.1335,2.1739,2.2443,2.3221,2.2949,2.279,2.2649,0.0,0.0,-0.6007,-0.548,0.0,-0.4478,-0.4522,-0.443,-0.4101,-0.3453,-0.3274,-0.2884,0.0,0.0,0.0,0.0,0.1009,0.1535,0.1169,0.1236,0.0728,-0.0497,0.0,0.2333,0.6611,0.6713,0.6304,0.5533,0.6825,0.6727,0.5292,0.4979,0.309,-0.0068,-0.1904,-0.4405,-0.6623,0.3125,0.7451,0.7776,0.7546,0.6693,0.555,0.5975,0.0,0.0,0.0,0.0,0.0,0.0,0.0,0.0,0.8888,0.8891,0.8795,0.8221,0.8488,0.9084,0.9597,1.2172,1.4807,1.5148,1.5202,1.5192,1.5201,1.5206,1.6106,1.93,1.8359,1.7605,1.9669,1.9254,1.8946,1.9985,2.0235,2.0254,2.0158,2.0092,2.0084,2.0107,1.9696,1.9303,1.9068,1.8879,1.8461,1.7718,1.7584,1.7555,1.7597,1.6387,1.5698,1.579,1.5807,1.6084,1.6697,1.7354,1.8059,1.8717,1.9375,1.969,1.969,1.969,1.969,1.969,1.969,1.969,1.969,1.969,2.0094,2.0722,2.0722,2.1485,2.2551,2.1917,2.203,2.2426,0.0,0.0,-0.6136,-0.605,0.0,0.0,-0.5522,-0.45,-0.3417,-0.268,-0.1489,-0.0438,0.0353,0.1277,0.0,0.0088,0.0366,0.0461,0.0076,0.0636,0.0642,-0.0103,0.1761,0.3295,0.4304,0.4346,0.5264,0.7198,0.6277,0.5636,0.5229,0.2432,0.0739,-0.0066,-0.1903,-0.3093,-0.3461,0.1578,0.5595,0.8409,0.6519,0.6328,0.713,0.6622,0.6622,0.0,0.0,0.0,0.0,0.0,0.0,0.0,0.8722,0.8903,0.8947,0.9223,0.9421,0.9607,0.9925,1.0584,1.1875,1.4665,1.5279,1.5196,1.5211,1.5206,1.5593,1.7016,1.742,1.7676,1.8177,1.8441,1.8679,1.8929,1.9726,1.9995,1.9081,1.8559,1.8374,1.8697,1.9528,1.9275,1.7211,1.5594,1.5245,1.6607,1.5919,1.5667,1.6191,1.5271,1.5046,1.5779,1.5797,1.6084,1.6697,1.7354,1.8059,1.8717,1.9375,1.969,1.969,1.969,1.969,1.969,1.969,1.969,1.969,1.969,2.0094,2.0722,2.0722,2.1201,2.1883,2.1757,2.1478,2.1208,0.0,0.0,0.0,0.0,0.0,0.0,0.0,0.0,-0.3002,-0.1414,-0.0486,0.062,0.2186,0.1643,0.0,0.0,-0.1644,-0.1045,0.0193,0.271,0.3577,0.229,0.3131,0.366,0.3829,0.4962,0.6613,0.8742,0.7918,0.5887,0.2715,-0.0033,-0.1286,-0.135,-0.2282,-0.172,0.0,0.1814,0.4325,0.7001,0.6307,0.6378,0.6934,0.7026,0.6913,0.671,0.6754,0.0,0.0,0.0,0.0,0.0,0.0,0.0,0.9351,1.1659,1.1217,1.0028,1.0152,1.0798,1.2066,1.4668,1.5276,1.5236,1.5211,1.5206,1.533,1.5772,1.6542,1.7234,1.7626,1.7959,1.8178,1.8178,1.8659,1.8852,1.8254,1.7876,1.7625,1.7549,1.7944,1.7752,1.6516,1.4586,1.3952,1.5274,1.436,1.4071,1.4782,1.4557,1.4633,1.5116,1.5575,1.5963,1.6278,1.6891,1.7399,1.7742,1.8747,1.9375,1.969,1.969,1.969,1.969,1.969,1.969,1.969,1.969,1.9899,2.0176,1.9937,2.0397,2.1155,2.0609,2.0557,2.0758,0.0,0.0,0.0,0.0,0.0,0.0,0.0,0.0,0.0,-0.0885,-0.0354,0.0799,0.3334,0.1654,-0.0758,0.0,0.0,0.0,0.0809,0.4894,0.6484,0.4905,0.3948,0.3683,0.4158,0.6193,0.814,0.9916,1.0595,0.7886,0.1987,-0.0887,-0.2397,-0.2711,-0.3022,-0.1333,0.1788,0.2376,0.3611,0.5309,0.6235,0.6589,0.6644,0.7411,0.7279,0.6705,0.6706,0.7446,0.8698,1.0503,0.0,0.0,0.0,0.0,0.9744,1.3273,1.241,1.0305,1.0296,1.1786,1.3621,1.4887,1.5248,1.5265,1.522,1.5206,1.5189,1.5189,1.5772,1.6484,1.7157,1.7273,1.7273,1.7273,1.7388,1.7484,1.7471,1.7405,1.7153,1.66,1.6053,1.5762,1.586,1.4309,1.3515,1.3968,1.3083,1.2867,1.3636,1.407,1.435,1.4468,1.5323,1.5799,1.5799,1.6383,1.6712,1.6726,1.8041,1.9046,1.969,1.969,1.969,1.969,1.969,1.969,1.969,1.969,1.969,1.9639,1.9207,1.9637,2.0413,1.9462,1.9753,2.0565,0.0,0.0,0.0,0.0,0.0,0.0,0.0,0.0,0.0,0.0,-0.1735,0.0262,0.3283,0.2375,0.0178,-0.3293,-0.1666,0.004,0.125,0.0,0.0,0.5405,0.373,0.329,0.4327,0.5202,0.7014,0.9885,1.3322,1.3371,1.0065,0.295,-0.1182,-0.2754,-0.4269,-0.3837,-0.1773,0.1349,0.3703,0.5286,0.5455,0.6683,0.8392,0.7907,0.7625,0.7552,0.7541,0.9133,1.0972,0.9063,0.8424,0.0,0.0,0.0,0.9757,1.054,1.0555,1.0292,1.0292,1.2588,1.5017,1.5155,1.5202,1.5204,1.5207,1.5206,1.5189,1.5189,1.5285,1.5407,1.5503,1.5541,1.5541,1.5541,1.6176,1.6612,1.6495,1.6491,1.6307,1.5882,1.5111,1.4374,1.3763,1.3261,1.2931,1.2835,1.247,1.2545,1.3235,1.3648,1.4143,1.471,1.5411,1.5799,1.5799,1.6383,1.6712,1.6726,1.8041,1.9046,1.969,1.969,1.969,1.969,1.969,1.969,1.969,1.969,1.969,1.969,1.9603,1.9683,1.9815,1.9749,1.9812,1.9943,0.0,0.0,0.0,0.0,0.0,0.0,0.0,0.0,0.0,0.0,0.0,0.0086,0.1429,0.2333,0.2152,0.0582,0.0769,0.1819,0.3897,0.4362,0.4644,0.4772,0.3242,0.2914,0.4153,0.5763,0.7424,0.9177,1.2722,1.3844,1.2626,0.9142,0.4937,0.0199,-0.2593,-0.3415,-0.2523,0.0095,0.2217,0.3919,0.4909,0.589,0.6857,0.7463,0.8458,0.945,0.9069,0.9215,0.9665,0.9966,1.0088,1.0239,1.1139,0.0,0.0,0.0,1.0015,1.0292,1.0824,1.2022,1.3225,1.3673,1.4132,1.447,1.4463,1.4852,1.5189,1.5189,1.5189,1.5189,1.5189,1.5189,1.5189,1.5189,1.5466,1.5637,1.5586,1.5374,1.5165,1.498,1.4774,1.4278,1.3379,1.3474,1.3228,1.2427,1.2271,1.2266,1.2408,1.3314,1.3944,1.4229,1.5259,1.5799,1.5799,1.6054,1.6353,1.6726,1.7667,1.8493,1.9151,1.951,1.969,1.969,1.969,1.969,1.969,1.969,1.953,1.9207,1.893,1.9009,1.9228,1.8663,1.9058,1.9786,0.0,0.0,0.0,0.0,0.0,0.0,0.0,0.0,0.0,0.0,0.0,-0.1106,-0.0088,0.0,0.0,0.0,0.2771,0.3352,0.564,0.5065,0.4546,0.4329,0.3038,0.2782,0.384,0.593,0.7559,0.8702,1.1851,1.3399,1.3401,1.359,1.0828,0.5561,0.2393,0.0598,0.0,0.0942,0.2111,0.3474,0.4778,0.5258,0.5363,0.6841,0.8526,1.0118,1.0318,0.9747,0.9233,1.1461,1.2219,1.235,1.3155,1.3912,0.0,0.0,0.0,1.0287,1.126,1.1451,1.1609,1.2599,1.3224,1.3632,1.3767,1.4343,1.4926,0.0,1.5195,1.5183,1.5165,1.5177,1.5183,1.5146,1.5075,1.4966,1.4868,1.4585,1.4428,1.4482,1.4588,1.4314,1.3476,1.3683,1.338,1.219,1.2102,1.2079,1.2066,1.3166,1.3885,1.4049,1.5199,1.5724,1.5559,1.5559,1.5934,1.6726,1.7369,1.8041,1.8732,1.9269,1.9479,1.9479,1.9479,1.9479,1.9479,1.9369,1.9043,1.865,1.8263,1.8491,1.8891,1.808,1.8662,1.9748,0.0,0.0,0.0,0.0,0.0,0.0,0.0,0.0,0.0,0.0,0.0,-0.4078,-0.039,0.1639,0.2744,0.276,0.367,0.4429,0.4853,0.5113,0.5085,0.4704,0.3499,0.0,0.3521,0.4709,0.6533,0.8971,1.1946,1.3401,1.3424,1.4118,1.4241,1.3792,1.1888,0.9581,0.7064,0.564,0.508,0.5163,0.5256,0.526,0.5295,0.6275,0.7166,0.8205,1.0776,1.1668,1.1763,1.2922,1.3322,1.3322,1.3379,1.3912,1.4471,0.0,0.0,0.0,1.1302,1.1459,1.1613,1.2936,1.3015,1.2892,1.3406,1.3747,1.4195,1.5025,1.5207,1.5152,1.5035,1.5101,1.5171,1.5035,1.4995,1.4877,1.4481,1.4412,1.4482,1.4739,1.445,1.4084,1.3723,1.342,1.2867,1.1893,1.1826,1.2096,1.2711,1.3421,1.4094,1.4722,1.5439,1.5499,1.4857,1.4842,1.5485,1.6726,1.7369,1.8041,1.8698,1.8877,1.893,1.893,1.893,1.893,1.8893,1.838,1.8185,1.8145,1.8106,1.8491,1.8989,1.8963,1.9317,1.9798,0.0,0.0,0.0,0.0,0.0,0.0,0.0,0.0,0.0,0.0,0.0,0.0,0.0,0.0132,0.1808,0.1813,0.3454,0.4495,0.4423,0.4958,0.4792,0.3643,0.3246,0.3021,0.2973,0.3389,0.4851,0.74,1.0234,1.1721,1.1926,1.1579,1.142,1.1464,1.2399,1.1915,1.0167,0.7837,0.6832,0.6736,0.5709,0.3906,0.2146,0.4709,0.6054,0.6791,0.8546,1.0298,1.1866,1.2242,1.2829,1.3394,1.341,1.3566,1.3479,1.19,1.0381,0.9388,1.0111,1.0226,1.0389,1.1488,1.175,1.1931,1.2685,1.3372,1.3926,1.4246,1.4718,1.5047,1.495,1.5011,1.5047,1.4942,1.4847,1.471,1.4434,1.4614,1.4787,1.4811,1.5199,1.5014,1.3827,1.3807,1.3313,1.1901,1.1805,1.2089,1.2771,1.3436,1.4109,1.4767,1.5454,1.5679,1.5454,1.5439,1.565,1.6129,1.6756,1.7238,1.7553,1.8036,1.8318,1.838,1.8027,1.8066,1.838,1.8185,1.7907,1.7585,1.7585,1.7728,1.7971,1.7971,1.8545,1.9309,0.0,0.0,0.0,-1.4137,0.0,-1.3967,-1.4084,-1.4,-1.3344,-1.1742,0.0,0.0,0.0,0.0,0.0654,0.1685,0.3345,0.421,0.3923,0.46,0.4359,0.2951,0.2625,0.2402,0.2236,0.2516,0.3471,0.5123,0.7853,0.9704,1.0682,0.9718,0.9375,0.9646,1.1289,1.2137,1.2228,1.0398,0.9174,0.8352,0.7269,0.4442,0.1055,0.2798,0.4365,0.5785,0.6924,0.9489,1.234,1.2336,1.2798,1.3396,1.341,1.2699,1.1564,0.9918,0.907,0.8842,0.9654,0.9624,0.9719,1.121,1.133,1.1287,1.2021,1.2985,1.3657,1.3404,1.4237,1.497,1.4859,1.4909,1.4942,1.485,1.4708,1.4515,1.4271,1.4407,1.4617,1.4861,1.5354,1.5198,1.403,1.4249,1.3833,1.2246,1.2134,1.2546,1.343,1.3675,1.4214,1.5124,1.5364,1.5574,1.5799,1.5589,1.5589,1.5814,1.6262,1.6644,1.6918,1.7261,1.7564,1.7787,1.7271,1.7353,1.7827,1.7626,1.7353,1.7034,1.7034,1.7311,1.7664,1.7664,1.8355,1.9284,-1.2626,-1.3026,-1.3174,-1.3782,-1.3901,-1.4019,-1.4406,-1.4149,-1.3683,-1.3065,0.0,0.0,0.0,0.0,0.0,0.2481,0.3399,0.3658,0.3332,0.399,0.3881,0.2737,0.1771,0.1233,0.1171,0.2054,0.2463,0.2332,0.4966,0.7478,0.976,0.8835,0.8698,0.9272,0.9291,1.0781,1.3273,1.3329,1.204,0.9947,0.9957,0.7044,0.2514,0.1003,0.2489,0.5509,0.6489,0.9652,1.3407,1.34,1.3312,1.3231,1.3362,1.1356,0.8951,0.8913,0.8688,0.8723,0.0,0.0,0.0,1.2253,1.1893,1.1046,1.1532,1.2663,1.3398,1.2642,1.3804,1.4889,1.4653,1.4738,1.4822,1.468,1.4508,1.4283,1.3938,1.3739,1.3973,1.4945,1.4808,1.4537,1.4288,1.4582,1.424,1.2876,1.2816,1.34,1.4719,1.4199,1.4453,1.5769,1.5184,1.5154,1.5784,1.5169,1.5141,1.577,1.5987,1.6354,1.685,1.6569,1.6784,1.7229,1.671,1.6795,1.7229,1.671,1.6522,1.6522,1.6522,1.7187,1.8154,1.8191,1.8857,1.9761,-1.1386,-1.2341,-1.3174,-1.3782,-1.3901,-1.3934,-1.4052,-1.3967,-1.3589,0.0,0.0,0.0,-0.8146,-0.2705,0.1496,0.319,0.3989,0.4051,0.322,0.3792,0.3733,0.2737,0.1206,-0.0268,-0.1581,-0.0066,0.0691,0.067,0.2425,0.4597,0.7103,0.7834,0.8303,0.8518,0.8856,0.9549,1.0509,1.1686,1.1793,1.1217,1.142,0.865,0.4855,0.8936,1.108,1.1935,1.2209,1.2777,1.3409,1.3398,1.125,0.9127,1.2385,1.2052,1.0283,0.9213,0.9118,0.9452,0.9898,0.0,0.0,0.0,0.0,0.0,1.2462,1.3114,1.3297,1.2456,1.3144,1.3689,1.2946,1.3335,1.3684,1.3497,1.4023,1.4304,1.3821,1.3704,1.3836,1.4324,1.494,1.486,1.3693,1.4188,1.3959,0.0,1.3313,1.4021,1.4347,1.4932,1.5424,1.5784,1.5619,1.5619,1.5799,1.5619,1.5461,1.5285,1.5338,1.5567,1.5878,1.583,1.61,1.671,1.6552,1.6595,1.671,1.6552,1.6522,1.6522,1.6522,1.671,1.7087,1.7903,1.8392,1.8756,-1.1193,-1.1936,-1.2771,-1.396,-1.4066,-1.3907,-1.3644,-1.3782,-1.3542,0.0,0.0,0.0,-0.5308,-0.0426,0.2751,0.3314,0.4134,0.4229,0.3231,0.3895,0.4043,0.3434,0.1925,0.0431,-0.0995,-0.0717,-0.0063,0.0933,0.1373,0.2595,0.4538,0.6076,0.7119,0.7717,0.8192,0.8873,0.9756,1.1109,1.222,1.2982,1.2338,1.0555,0.8664,1.235,1.4053,1.4316,0.0,0.0,1.2962,1.363,1.2001,1.0156,1.2781,1.2903,1.1829,1.0662,1.0275,1.023,1.0179,0.9888,1.0034,1.1658,0.0,0.0,1.2749,1.3366,1.3458,1.2453,1.2603,1.2752,1.2206,1.2307,1.2662,1.3287,1.3818,1.4064,1.3745,1.3626,1.363,1.3782,1.4137,1.4139,1.3552,1.3925,1.3964,1.3451,1.3667,1.3899,1.4038,1.5161,1.5799,1.5799,1.5799,1.5799,1.5799,1.561,1.5359,1.5104,1.4752,1.4801,1.5168,1.5231,1.5567,1.6183,1.6421,1.6522,1.6522,1.6522,1.6522,1.6522,1.6522,1.681,1.73,1.7965,1.8493,1.8957,0.0,-1.1842,-1.2342,-1.4118,-1.4318,-1.3973,-1.3271,-1.352,-1.3361,0.0,-1.0672,-0.7155,-0.0742,0.1956,0.3255,0.3142,0.4064,0.4291,0.3444,0.4188,0.461,0.4486,0.3501,0.255,0.1657,0.0,0.0061,0.1965,0.134,0.1485,0.2365,0.4054,0.554,0.6848,0.7474,0.8632,1.0175,1.13,1.2895,1.4532,1.2909,1.2484,1.2812,1.2807,1.3455,1.3999,1.1025,1.0765,1.2101,1.3854,1.4179,0.0,1.384,1.3618,1.3212,1.2511,1.1712,1.101,1.0736,1.0476,1.0549,1.1728,1.217,0.0,1.2735,1.346,1.375,1.2585,1.2244,1.2138,1.2046,1.1728,1.1981,1.3604,1.3772,1.3693,1.3682,1.3511,1.3408,1.3416,1.2968,1.2938,1.3564,1.3724,1.4067,1.4782,1.3876,1.349,1.3945,1.5124,1.5799,1.5799,1.5799,1.577,1.5712,1.5329,1.5074,1.4968,1.4246,1.4172,1.4646,1.484,1.5178,1.5731,1.6283,1.6522,1.6522,1.6522,1.6522,1.6522,1.6522,1.7174,1.8129,1.8179,1.8844,1.9723,-1.2586,-1.2896,-1.3157,-1.4033,-1.4511,-1.4386,-1.3293,-1.2936,-1.2401,-1.1409,-0.909,-0.5756,-0.0909,0.0854,0.2262,0.3678,0.4208,0.435,0.4048,0.4689,0.506,0.4953,0.5192,0.4853,0.3811,0.2571,0.1422,0.0425,0.1449,0.1927,0.1947,0.3196,0.4478,0.5784,0.733,0.8605,0.9683,1.1476,1.2598,1.3121,1.3188,1.3359,1.3567,1.3407,1.35,1.3512,1.2122,1.0994,1.0558,1.3145,1.3868,1.363,0.0,0.0,0.0,1.2445,0.0,1.1495,1.1597,1.1463,1.1538,0.0,0.0,0.0,1.3365,1.3697,1.3689,1.2811,1.2608,1.2393,1.1742,1.2056,1.2697,1.3507,1.368,1.363,1.3482,1.3427,1.3412,1.3394,1.3305,1.307,1.2628,1.3685,1.4042,1.3166,1.3649,1.4316,1.497,1.5503,1.5799,1.5799,1.5799,1.561,1.5225,1.5165,1.4783,1.4117,1.4,1.4002,1.4243,1.4689,1.5178,1.5731,1.6283,1.6522,1.6522,1.6522,1.6522,1.6522,1.6522,1.6936,1.7601,1.8041,1.8618,1.9246,-1.2822,-1.3212,-1.3289,-1.3598,-1.3604,-1.3344,-1.2728,-1.2377,-1.1872,-1.1084,-0.9413,-0.6428,-0.1606,0.1513,0.3457,0.4057,0.4543,0.4777,0.4643,0.5411,0.5826,0.5792,0.6277,0.608,0.5119,0.4066,0.2819,0.1333,0.1907,0.2062,0.1824,0.2762,0.3924,0.5283,0.7132,0.8508,0.9586,1.1557,1.2675,1.3077,1.2882,1.3064,1.3407,1.304,1.3134,1.3395,1.2959,1.2252,1.1773,1.3582,1.401,0.0,1.3594,1.3393,1.3176,0.0,1.264,1.2314,0.0,0.0,0.0,1.2942,0.0,0.0,0.0,1.3328,1.3447,1.3611,1.3327,1.2931,1.2523,1.2779,1.3143,1.346,1.3528,1.351,1.3409,1.3395,1.3396,1.3404,1.3403,1.3256,1.2884,1.3544,1.3606,1.2678,1.3912,1.4692,1.4557,1.5342,1.5799,1.5799,1.558,1.5359,1.5104,1.469,1.431,1.3901,1.3648,1.3753,1.4097,1.4664,1.5178,1.5731,1.6283,1.6522,1.6522,1.6522,1.6522,1.6522,1.6522,1.6873,1.7451,1.8003,1.8555,1.9058,-1.2238,-1.2794,-1.2916,-1.283,-1.2265,-1.1792,-1.1827,-1.1642,-1.1255,-1.0555,-0.9299,-0.6719,-0.2033,0.2177,0.4584,0.436,0.4854,0.5189,0.5207,0.595,0.6397,0.6496,0.685,0.6634,0.571,0.4866,0.3953,0.2937,0.2388,0.2013,0.1824,0.2949,0.4088,0.5253,0.7175,0.8731,1.0002,1.1589,1.28,1.3542,1.2686,1.2789,1.3432,1.2793,1.3025,1.3691,1.3542,1.342,1.3427,1.419,1.4232,1.3945,1.3944,1.3694,0.0,0.0,0.0,0.0,0.0,0.0,0.0,0.0,0.0,1.3511,0.0,0.0,0.0,1.4052,0.0,0.0,0.0,0.0,0.0,1.3616,0.0,0.0,0.0,1.3363,0.0,1.339,1.3407,1.3396,1.3396,1.3312,1.3034,1.2569,1.396,1.4506,1.384,1.4932,1.5664,1.5799,1.5359,1.5074,1.4982,1.4246,1.3835,1.3769,1.3505,1.3622,1.411,1.4765,1.5279,1.5731,1.6283,1.6522,1.6522,1.6522,1.6522,1.6522,1.6522,1.6873,1.7438,1.789,1.8455,1.9033,-1.0215,-1.1344,-1.187,-1.1589,-1.0925,-1.0433,-1.0424,-1.0387,-0.993,-0.8683,-0.6386,-0.3879,-0.1295,0.1138,0.3172,0.47,0.4777,0.5015,0.5581,0.5826,0.6089,0.6403,0.6746,0.6419,0.5374,0.4833,0.4339,0.3837,0.2517,0.183,0.1866,0.4379,0.5657,0.5889,0.7949,0.9805,1.1384,1.1652,1.2648,1.3984,1.3399,1.3893,0.0,1.3838,1.4024,1.4707,1.3819,1.342,1.3406,0.0,1.4201,1.4235,0.0,1.4107,1.3329,1.3396,0.0,0.0,0.0,0.0,0.0,0.0,1.3379,0.0,0.0,0.0,1.2955,1.2838,0.0,0.0,0.0,0.0,0.0,0.0,0.0,0.0,1.3396,1.3191,1.3121,1.3379,1.3396,1.3396,1.3412,1.2973,1.2565,1.2271,1.2764,1.329,1.378,1.4513,1.5199,1.5784,1.5359,1.4937,1.4564,1.4117,1.3682,1.3301,1.3758,1.4022,1.4123,1.5167,1.563,1.5731,1.6283,1.6522,1.6522,1.6522,1.6522,1.6522,1.6522,1.6873,1.7388,1.7451,1.8129,1.8983,-0.982,-1.0595,-1.0999,-1.1509,-1.0839,-1.0185,-1.0205,-0.9406,-0.8245,-0.6647,-0.4499,-0.2048,0.0811,0.3833,0.5676,0.5807,0.577,0.5805,0.0,0.5873,0.5949,0.6337,0.6401,0.6068,0.5248,0.4554,0.4033,0.3695,0.2776,0.2652,0.3291,0.5659,0.7086,0.7677,0.8766,0.9901,1.1065,1.1787,1.2444,1.3063,1.3807,1.4492,0.0,1.3846,1.3952,1.4662,1.4225,1.404,1.4018,0.0,1.4369,0.0,0.0,0.0,0.0,1.4039,0.0,0.0,0.0,0.0,0.0,0.0,0.0,0.0,1.3114,0.0,1.2909,0.0,0.0,0.0,0.0,0.0,0.0,0.0,1.4116,0.0,0.0,0.0,1.3066,1.3363,0.0,0.0,1.3511,1.2812,1.2332,1.2226,1.2561,1.3077,1.3765,1.4438,1.5124,1.5784,1.5134,1.4658,1.4501,1.4164,1.3909,1.3709,1.4299,1.4727,1.5054,1.548,1.5869,1.6183,1.6421,1.6522,1.6522,1.6522,1.6522,1.6522,1.6522,1.666,1.6923,1.7262,1.7877,1.8593,-0.9307,-0.9713,-1.0031,-1.0809,-1.0417,-0.9904,-0.9603,-0.8423,-0.6906,-0.4993,-0.274,-0.0255,0.2644,0.5663,0.7281,0.6711,0.6513,0.6342,0.0,0.0,0.6103,0.6017,0.6089,0.5687,0.476,0.4209,0.3779,0.3488,0.3192,0.3628,0.4851,0.6693,0.8122,0.9148,0.9928,1.0703,1.1447,1.2525,1.2925,1.2936,1.4164,1.4699,1.4699,1.396,1.4022,1.4488,1.4429,1.4441,1.4501,1.4467,1.4606,0.0,1.5176,0.0,1.4619,0.0,0.0,0.0,1.3701,0.0,0.0,0.0,0.0,0.0,0.0,0.0,0.0,0.0,0.0,0.0,0.0,0.0,1.4866,1.4023,0.0,1.3652,0.0,1.2662,0.0,0.0,0.0,0.0,0.0,1.2609,1.2185,1.2102,1.2372,1.2897,1.3765,1.4259,1.4875,1.5595,1.4876,1.452,1.4555,1.4249,1.416,1.4324,1.4865,1.5304,1.5706,1.5856,1.6132,1.6522,1.6522,1.6522,1.6522,1.6522,1.6522,1.6522,1.6522,1.6609,1.681,1.7225,1.7827,1.848,-0.8146,-0.8462,-0.8756,-0.8797,-0.9199,-0.9133,-0.8041,-0.7384,-0.6179,-0.3867,-0.0865,0.1789,0.0,0.0,0.0,0.0,0.0,0.6159,0.6294,0.0,0.6679,0.5388,0.588,0.5387,0.36,0.3841,0.3836,0.3488,0.3727,0.4636,0.6175,0.7407,0.8587,0.975,1.1655,1.284,1.3454,1.4136,1.4433,1.4426,1.4481,1.4399,1.4264,0.0,1.459,1.4464,1.4219,0.0,0.0,1.5152,1.4851,0.0,0.0,0.0,0.0,0.0,0.0,0.0,0.0,0.0,0.0,1.3413,0.0,0.0,0.0,0.0,1.3896,0.0,0.0,0.0,0.0,1.5229,1.4845,1.3801,1.3091,0.0,0.0,0.0,0.0,0.0,0.0,0.0,0.0,1.2205,1.2086,0.0,1.182,1.2418,1.3735,1.3825,1.4237,1.5091,1.4721,1.455,1.4699,1.4313,1.4362,1.489,1.5404,1.568,1.5718,1.6245,1.6497,1.6522,1.6522,1.6522,1.6522,1.6522,1.6522,1.6522,1.6522,1.6861,1.735,1.7375,1.8078,1.8958,-0.9501,-0.9466,-0.9688,-0.9755,-0.9597,-0.911,-0.8054,-0.6725,-0.5014,0.0,-0.0086,0.0,0.0,0.6573,0.7368,0.0,0.0,0.6839,0.6704,0.6662,0.0,0.0,0.0,0.5456,0.0,0.451,0.4521,0.4237,0.5128,0.6008,0.6881,0.842,0.971,1.0803,1.1681,1.2403,1.3008,1.3407,1.3673,0.0,0.0,1.4271,1.4024,0.0,1.4259,1.4078,1.3997,1.4123,0.0,1.4849,1.4889,1.494,1.618,1.5651,1.4841,1.6007,1.546,0.0,0.0,0.0,1.4026,1.4678,0.0,0.0,0.0,0.0,0.0,0.0,0.0,0.0,0.0,1.4062,1.3763,1.3396,1.2914,1.2613,0.0,1.2984,0.0,0.0,0.0,0.0,0.0,0.0,0.0,0.0,1.1805,0.0,1.3347,1.3394,1.3796,1.4679,1.4659,1.4666,1.4691,1.5031,1.5229,1.5429,1.5969,1.6233,1.6245,1.6434,1.6522,1.6522,1.6522,1.6522,1.6522,1.6522,1.6522,1.6522,1.6522,1.7099,1.789,1.7513,1.8078,1.8971,-1.1327,-1.0925,-1.0546,-0.9843,-0.9279,-0.8545,-0.7419,-0.6496,0.0,0.0,0.1062,0.0,0.5977,0.0,0.7729,0.0,0.7666,0.7378,0.7237,0.6917,0.0,0.6594,0.6392,0.0,0.0,0.5531,0.559,0.5235,0.6617,0.751,0.7955,0.9404,1.0641,1.1615,1.2071,1.2612,1.3143,1.3467,1.3659,0.0,0.0,1.4222,0.0,0.0,1.4349,1.4276,0.0,1.4528,1.4887,1.4825,1.4862,1.5103,1.6098,1.5705,1.5189,1.6661,1.6221,1.5392,1.5849,1.5231,0.0,1.5245,1.4483,0.0,1.3864,0.0,0.0,0.0,0.0,0.0,0.0,0.0,1.3575,1.3528,1.2917,1.2497,0.0,1.3098,0.0,0.0,0.0,0.0,0.0,0.0,0.0,0.0,0.0,0.0,0.0,1.3205,1.3625,1.4283,1.4559,1.4725,1.4754,1.5386,1.5793,1.5994,1.6346,1.6522,1.6522,1.6522,1.6522,1.6522,1.6522,1.6522,1.6522,1.6522,1.6522,1.6534,1.6748,1.7388,1.8166,1.7802,1.8211,1.8814,-1.3488,-1.2617,-1.1151,-0.9114,-0.8316,-0.7516,0.0,0.0,-0.5326,0.0,0.2388,0.4729,0.5946,0.6586,0.7319,0.8277,0.7969,0.7721,0.7794,0.7637,0.0,0.0,0.7024,0.6594,0.5845,0.0,0.0,0.6503,0.8169,0.9113,0.9303,1.0354,1.1306,1.2142,1.2885,1.3468,1.3927,1.4307,1.4362,1.4149,1.4023,1.4278,1.4796,1.483,1.4947,1.5062,1.4964,1.5468,1.6045,1.5193,1.4882,1.5003,1.5745,1.582,1.5883,1.7349,1.7248,1.6695,1.6707,1.592,1.5119,1.5173,1.4879,0.0,0.0,0.0,1.4615,0.0,0.0,0.0,0.0,0.0,1.4166,1.4038,1.3041,1.2148,1.1839,1.2334,1.2347,0.0,0.0,0.0,0.0,0.0,0.0,0.0,0.0,0.0,0.0,1.3212,1.3601,1.3855,1.4414,1.4754,1.4903,1.5442,1.6007,1.6522,1.6522,1.6522,1.6522,1.6522,1.6522,1.6522,1.6522,1.6522,1.6522,1.6547,1.6559,1.6622,1.72,1.7765,1.8242,1.8279,1.8461,1.8501,-1.5683,-1.3718,-1.1532,-0.9991,-0.9067,-0.8095,0.0,0.0,0.0,0.0,0.1304,0.3552,0.5371,0.6651,0.7489,0.786,0.7763,0.0,0.0,0.0,0.0,0.7129,0.758,0.7373,0.6336,0.772,0.0,0.7963,0.9647,1.0421,1.0351,1.1298,1.1962,1.2355,1.3093,1.3606,1.3927,1.4162,1.4065,1.3789,1.4356,1.4572,1.4636,0.0,1.5765,1.6177,1.5617,1.5649,1.6008,1.6143,1.5942,1.5831,1.6939,1.6516,1.5843,1.7069,1.6918,1.6386,1.6694,1.6031,1.5422,1.6192,1.5304,1.4405,0.0,0.0,0.0,0.0,0.0,0.0,0.0,0.0,0.0,1.2914,1.3052,1.3134,1.3048,0.0,0.0,1.368,0.0,0.0,0.0,0.0,0.0,0.0,0.0,0.0,1.2239,1.3107,1.3559,1.3391,1.4332,1.4879,1.4916,1.5831,1.6371,1.6522,1.6522,1.6522,1.6522,1.6522,1.6522,1.6522,1.6522,1.6522,1.6547,1.6986,1.7162,1.7212,1.7777,1.8329,1.8869,1.9246,1.9086,1.8602,-1.6485,-1.4592,-1.251,-1.0954,0.0,0.0,-0.6422,-0.573,0.0,-0.1044,0.1271,0.0,0.519,0.6553,0.7515,0.7957,0.7812,0.0,0.823,0.0,0.0,0.7675,0.7862,0.7671,0.7056,0.8308,0.0,0.8674,1.0386,1.1018,1.0631,1.1674,1.2177,1.2293,1.2956,1.3438,1.3783,1.3899,1.4199,1.4606,1.4658,1.4996,0.0,1.5917,1.6525,1.7117,1.6712,1.6642,1.6724,1.6723,1.6509,1.6385,1.7093,1.666,1.6058,1.7014,1.6897,1.65,1.6744,1.6271,1.5873,1.6433,1.5738,1.4927,1.5045,1.4886,1.4525,0.0,1.3714,1.3695,0.0,0.0,0.0,1.2689,1.3031,1.3229,0.0,0.0,0.0,0.0,1.2058,0.0,0.0,0.0,0.0,0.0,0.0,0.0,0.0,1.327,1.3782,1.3596,1.4664,1.5229,1.5229,1.6333,1.6773,1.6522,1.6522,1.6522,1.6522,1.6522,1.6522,1.6522,1.6522,1.6522,1.6559,1.7137,1.7388,1.7463,1.8254,1.8894,1.9434,1.9974,1.9514,1.8437,-1.6293,-1.5109,0.0,0.0,0.0,0.0,0.0,-0.4946,0.0,-0.0468,0.0,0.394,0.5248,0.6465,0.7484,0.8262,0.0,0.8094,0.8877,0.825,0.8087,0.8565,0.8098,0.7871,0.7901,0.8743,0.9116,0.0,1.0645,1.1184,1.0673,1.1816,1.2308,1.2287,1.294,1.3446,1.3848,1.3848,1.4607,1.5738,1.506,1.5561,1.6716,1.6817,1.7236,1.7811,1.7811,1.7811,1.771,1.705,1.6851,1.683,1.6792,1.6575,1.6443,1.7019,1.6952,1.6712,1.6686,1.6448,1.6246,1.6246,1.6011,1.562,1.4996,1.4526,1.4213,1.4098,1.379,1.3605,0.0,0.0,0.0,1.3004,0.0,0.0,0.0,0.0,0.0,0.0,0.0,0.0,0.0,0.0,0.0,0.0,0.0,0.0,0.0,0.0,1.4085,1.4085,1.5053,1.5655,1.5806,1.6785,1.7049,1.6635,1.6559,1.6522,1.6522,1.6522,1.6522,1.6522,1.6522,1.6559,1.6672,1.725,1.7576,1.7802,1.8756,1.9409,1.9861,2.0363,1.9732,1.8427,-1.5223,0.0,0.0,0.0,0.0,-0.8297,-0.6306,-0.535,-0.3771,-0.0739,0.2868,0.5178,0.5215,0.6648,0.7666,0.7802,0.8096,0.0,0.0,0.0,0.0,0.9463,0.8963,0.8755,0.8857,0.9283,0.9533,0.9551,1.0643,1.1279,1.1503,1.2532,1.3078,1.322,1.4425,1.5009,1.5086,1.5193,0.0,1.5296,1.6025,1.6479,1.6766,1.7371,1.7693,1.7811,1.7811,1.7811,1.7794,1.7659,1.7608,1.7563,1.7279,1.7146,1.7035,1.6612,1.6421,1.6328,1.6067,1.5926,1.5885,1.5885,1.5856,1.5682,1.5154,1.4991,1.4736,1.4083,1.3872,1.3717,1.3378,0.0,0.0,0.0,0.0,0.0,0.0,0.0,0.0,0.0,0.0,1.139,0.0,0.0,0.0,0.0,0.0,0.0,0.0,0.0,1.4085,0.0,1.4714,1.5454,0.0,0.0,1.6861,1.7225,1.6748,1.6522,1.6522,1.6522,1.6522,1.6522,1.6522,1.6785,1.7275,1.7827,1.8581,1.9397,1.9597,1.9723,1.9811,1.9911,1.9909,1.9796,0.0,0.0,0.0,0.0,0.0,0.0,0.0,-0.4422,0.0,0.0241,0.2768,0.4884,0.6417,0.767,0.8572,0.905,0.8875,0.8931,0.9419,0.9409,0.9588,1.008,0.985,0.9761,0.9835,0.9979,1.0183,1.0442,1.1114,1.1544,1.1723,1.262,1.3133,1.3297,1.4472,1.5298,1.5778,0.0,0.0,1.6519,1.6652,1.6936,1.7304,1.7659,1.7811,1.7789,1.7595,1.7549,1.7572,1.7726,1.7681,1.7526,1.7344,1.706,1.6722,1.6394,1.6163,1.6011,1.5856,1.5799,1.5799,1.5799,1.561,1.5389,1.5165,1.4783,1.4374,1.4,1.3702,1.3459,1.3232,1.3198,0.0,0.0,0.0,0.0,0.0,0.0,0.0,0.0,0.0,0.0,0.0,0.0,0.0,0.0,0.0,0.0,0.0,0.0,1.4513,0.0,0.0,0.0,1.6509,0.0,1.6961,1.6936,1.6647,1.6522,1.6522,1.6522,1.6522,1.6534,1.6835,1.7124,1.7451,1.8292,1.9095,1.9798,1.9798,1.9987,2.0288,2.0577,2.0667,2.05,0.0,-1.4756,0.0,0.0,-0.9204,0.0,-0.5961,-0.328,-0.0742,0.12,0.3112,0.5137,0.7438,0.8468,0.9313,1.0029,0.9522,0.9487,1.0351,1.0119,1.0298,1.1023,1.0929,1.0935,1.1038,1.0931,1.095,0.0,1.1564,1.1792,1.1844,1.2691,1.3345,1.3806,1.4609,0.0,0.0,0.0,1.6392,1.7653,1.713,1.727,1.7811,1.7811,1.7811,1.7766,1.7415,1.7296,1.7344,1.7526,1.7408,1.7175,1.7126,1.6722,1.6301,1.6219,1.6011,1.5799,1.5799,1.5799,1.5799,1.5799,1.5448,1.5074,1.4982,1.4406,1.3868,1.3769,1.3459,1.3198,1.3198,1.3198,0.0,0.0,0.0,0.0,0.0,0.0,0.0,0.0,0.0,0.0,1.0293,0.0,0.0,0.0,0.0,0.0,1.3361,0.0,0.0,0.0,0.0,1.6459,1.6697,0.0,1.7024,1.6697,1.6572,1.6584,1.6697,1.6697,1.676,1.6898,1.735,1.7614,1.7802,1.8781,1.951,1.9987,1.9987,2.0338,2.0891,2.133,2.1293,2.0818,0.0,0.0,0.0,0.0,0.0,0.0,-0.625,-0.2748,0.0174,0.1116,0.5276,0.7873,0.7088,0.821,0.9023,0.9121,0.9375,0.9796,1.0372,1.0683,1.1475,1.2808,1.2394,1.2355,1.2856,1.237,1.1865,0.0,1.1587,1.1866,1.2165,1.3234,1.4541,1.6003,0.0,0.0,0.0,1.6995,1.7188,1.7368,1.7597,1.7743,1.7811,1.7811,1.7811,1.7766,1.7415,1.7296,1.7272,1.6993,1.6866,1.6789,1.6474,1.634,1.6246,1.5926,1.5827,1.5799,1.5799,1.5799,1.5799,1.5799,1.5448,1.5013,1.4627,1.4214,1.3769,1.3357,1.3232,1.3198,1.3198,1.3198,1.3396,0.0,0.0,0.0,0.0,0.0,1.3442,1.1902,0.0,0.0,0.0,1.0894,0.0,0.0,1.1756,0.0,0.0,0.0,0.0,1.558,1.5718,1.6271,1.7287,1.6835,1.6835,1.73,1.6773,1.6798,1.73,1.73,1.7576,1.8053,1.8103,1.8405,1.892,1.9497,2.0075,2.0643,2.0643,2.0928,2.1418,2.1468,2.1293,2.0877,0.0,0.0,0.0,0.0,0.0,0.0,0.0,-0.2096,0.0878,0.3321,0.6371,0.8319,0.8396,0.9245,1.0023,1.0627,1.0531,1.0783,1.1625,1.2036,1.2659,1.355,1.3604,1.3727,1.3946,1.3744,1.3493,0.0,0.0,0.0,0.0,1.4104,0.0,0.0,0.0,1.6301,1.6815,1.6926,1.7224,1.7595,1.7743,1.7811,1.7811,1.7811,1.7681,1.7455,1.7126,1.6876,1.6644,1.6313,1.6313,1.6474,1.634,1.6163,1.5983,1.5856,1.5799,1.5799,1.5799,1.5799,1.5741,1.5448,1.5074,1.4627,1.4214,1.3802,1.3425,1.3232,1.3198,1.3198,1.3198,1.3198,1.3421,0.0,0.0,0.0,0.0,0.0,0.0,0.0,0.0,1.141,0.0,1.0809,0.0,0.0,0.0,0.0,0.0,0.0,0.0,1.617,0.0,1.6572,1.7375,1.681,1.6635,1.6861,1.6986,1.7162,1.7388,1.7727,1.8179,1.8719,1.9032,1.9484,2.0049,2.0589,2.0953,2.1154,2.1154,2.1493,2.1926,2.1369,2.1344,2.136,-1.3585,0.0,-1.1849,0.0,-0.8041,-0.6428,-0.4885,-0.2042,0.1214,0.4843,0.6698,0.8054,0.9076,0.9972,1.0802,1.1505,1.1356,1.1641,1.2614,1.2948,1.3444,1.4214,1.4533,0.0,1.4876,1.4876,1.4876,1.4876,1.4831,0.0,0.0,0.0,0.0,0.0,1.5755,1.6274,1.6815,1.6917,1.7288,1.7811,1.7811,1.7726,1.7658,1.7658,1.7455,1.7117,1.6987,1.6674,1.6277,1.6124,1.6214,1.6397,1.6197,1.5983,1.5799,1.5799,1.5799,1.5799,1.5799,1.5933,1.5906,1.5268,1.4955,1.4658,1.4026,1.3547,1.3248,1.3446,1.3596,1.3722,1.3722,1.3584,1.3709,1.445,0.0,0.0,0.0,0.0,0.0,0.0,1.2291,1.1921,1.1281,1.1467,0.0,0.0,0.0,0.0,0.0,0.0,0.0,0.0,0.0,0.0,1.7124,1.6722,1.6609,1.6773,1.7187,1.7551,1.789,1.843,1.8982,1.9522,1.971,2.0225,2.0928,2.1154,2.1443,2.1732,2.1732,2.2171,2.268,2.1789,2.1678,2.1742,-1.2994,-1.2211,-1.1098,-0.9082,-0.7419,-0.6375,-0.6191,-0.2771,0.1122,0.4802,0.6229,0.7355,0.8586,1.0079,1.1019,1.1008,1.1505,1.2175,1.3026,1.3094,1.371,0.0,0.0,1.5329,1.577,1.577,1.577,1.577,0.0,0.0,1.4907,0.0,1.5329,1.5799,1.6136,1.6474,1.6815,1.715,1.7502,1.7811,1.7811,1.7595,1.732,1.732,1.7101,1.6859,1.7174,1.6874,1.6339,1.6593,1.6697,1.6592,1.5993,1.5799,1.5799,1.5799,1.5799,1.5799,1.5799,1.6248,1.6441,1.5384,1.5312,1.52,1.4152,1.3547,1.3348,1.3972,1.4513,1.489,1.489,1.445,1.4437,1.5492,0.0,0.0,0.0,0.0,0.0,1.4125,1.4543,1.4438,1.3477,1.3249,0.0,0.0,0.0,0.0,0.0,0.0,0.0,1.6497,1.6522,0.0,1.6522,1.6522,1.681,1.7375,1.7388,1.7953,1.8983,1.9547,2.01,2.0668,2.0049,2.0439,2.1443,2.0957,2.1317,2.2297,2.2297,2.2987,2.3842,2.2831,2.2278,2.1887,-1.1589,-1.0468,-0.9438,-0.8835,-0.7125,-0.5996,-0.6425,-0.2368,0.1871,0.4899,0.683,0.8112,0.8651,1.0079,1.1169,0.0,1.2224,1.2948,0.0,1.4173,1.4648,1.5074,1.5418,1.5639,1.5799,1.5799,1.5799,1.5799,0.0,0.0,0.0,1.6001,1.6428,1.6912,1.7479,1.7789,1.7885,1.8012,1.7952,1.7811,1.7811,1.7595,1.7296,1.7296,1.6952,1.6479,1.6561,1.6611,1.6608,1.6667,1.701,1.7339,1.7176,1.7101,1.7101,1.7101,1.7101,1.7101,1.7101,1.6891,1.656,1.592,1.5312,1.4672,1.404,1.3844,1.3984,1.4538,1.479,1.4916,1.4916,1.4765,1.489,1.558,1.5392,0.0,0.0,0.0,0.0,1.4185,1.3962,1.3732,1.3447,1.3668,0.0,0.0,0.0,0.0,0.0,0.0,0.0,0.0,1.7099,0.0,1.7099,1.7488,1.7576,1.7388,1.8141,1.8869,1.9572,2.0137,2.0542,2.0756,2.1267,2.1719,2.2071,2.2272,2.256,2.2874,2.2874,2.3339,2.3791,2.2173,2.1756,2.176,-1.0187,-0.9304,-0.8469,-0.7617,-0.6526,-0.5349,-0.4267,-0.1156,0.2351,0.5884,0.7548,0.8762,0.9736,1.1025,0.0,1.1808,1.2983,1.3929,1.4472,1.5089,1.5542,1.5679,1.5965,1.6024,1.5799,1.5799,0.0,1.5799,1.5889,1.5912,1.5912,1.6217,1.6727,1.7408,1.7977,1.8443,1.8788,1.8651,1.8432,1.82,1.7912,1.7526,1.7134,1.7394,1.7067,1.6523,1.7028,1.7152,1.7085,1.7085,1.7518,1.8011,1.7772,1.8041,1.8358,1.7832,1.7518,1.7324,1.7324,1.7025,1.6545,1.5877,1.5407,1.4929,1.4353,1.4462,1.4802,1.5155,1.5341,1.5492,1.5492,1.5329,1.5367,1.5919,1.5831,1.5768,1.5969,0.0,0.0,0.0,0.0,0.0,0.0,1.4613,1.4755,0.0,0.0,0.0,0.0,0.0,0.0,1.7375,1.7589,1.7689,1.7689,1.8028,1.8141,1.8016,1.9108,1.9952,2.0489,2.0822,2.1091,2.1305,2.1794,2.2234,2.2636,2.2774,2.2949,2.3103,2.3376,2.3542,2.3579,2.2273,2.1893,2.1815,-0.8835,-0.8521,-0.7829,0.0,-0.5673,0.0,-0.0609,0.073,0.2911,0.752,0.8404,0.9406,1.1489,1.2721,1.3008,1.2102,0.0,0.0,0.0,1.5966,1.6381,1.674,1.6786,1.6502,1.5948,1.5888,1.5844,1.5799,1.5799,1.5799,1.5799,1.5917,1.6525,1.7527,1.7896,1.8621,1.9512,1.9102,1.892,1.8802,1.8097,1.7419,1.6907,1.7486,1.729,1.6876,1.81,1.8238,1.7757,1.7757,1.8223,1.8672,1.8059,1.8702,1.9435,1.8223,1.7354,1.6846,1.6846,1.6786,1.647,1.5472,1.567,1.589,1.5028,1.5325,1.5787,1.5812,1.6158,1.6522,1.6552,1.6137,1.5919,1.6434,1.6082,1.5932,1.6446,0.0,0.0,0.0,0.0,0.0,1.6471,1.6008,1.5908,0.0,0.0,0.0,0.0,0.0,1.7458,1.7388,1.7953,1.8242,1.8204,1.8279,1.8593,1.9108,2.0175,2.0985,2.159,2.1555,2.1832,2.2284,2.1807,2.2184,2.3027,2.2585,2.2686,2.3251,2.3791,2.3744,2.3329,2.2899,2.2364,2.1886,0.0,0.0,-0.6072,-0.5592,-0.5132,-0.3738,-0.0499,0.2985,0.5942,0.7828,0.954,1.0904,1.1601,1.3684,1.4791,1.4222,1.5217,1.5984,1.6089,1.6857,1.7347,1.7458,1.7458,1.7384,1.7266,1.6741,1.6263,1.5799,1.5799,1.5799,1.5829,1.715,1.8091,1.8667,1.95,1.9882,1.9866,1.9448,1.8956,1.8401,1.7955,1.7561,1.7143,1.6784,1.6659,1.6756,1.707,1.7712,1.8463,1.8463,1.8912,1.9435,1.9271,1.9435,1.963,1.9316,1.8747,1.8238,1.8238,1.7473,1.6636,1.638,1.6191,1.6085,1.6096,1.6218,1.6428,1.6818,1.6705,1.6637,1.7034,1.668,1.6371,1.6497,1.6409,1.6371,1.6497,1.6409,1.6371,0.0,1.6409,1.6371,1.6509,1.638,1.6337,0.0,0.0,0.0,1.7162,1.8151,1.8313,1.7446,1.8329,1.8631,1.8204,1.9007,1.971,2.0275,2.0592,2.0986,2.1526,2.1914,2.2184,2.2334,2.2623,2.2899,2.3065,2.2927,2.3276,2.3803,2.3941,2.3977,2.3904,2.3024,2.2364,2.1886,-0.6416,-0.5873,-0.5382,-0.5117,-0.4757,-0.3469,-0.0443,0.429,0.7756,0.8313,1.0374,1.21,1.2992,1.4562,1.5622,1.5618,1.6264,1.6784,1.7107,1.7763,1.8179,1.8179,1.8179,1.7996,1.7697,1.7099,1.6635,1.6298,1.6066,1.6172,1.6682,1.7854,1.8791,1.9492,2.023,2.075,2.0988,2.0251,1.9663,1.9241,1.8547,1.805,1.7712,1.7636,1.7624,1.7637,1.7951,1.8553,1.9106,1.8807,1.9151,1.963,1.9331,1.9435,1.969,1.969,1.9016,1.8253,1.8253,1.7296,1.6338,1.6637,1.6811,1.697,1.713,1.7186,1.7315,1.7599,1.7422,1.7229,1.7312,1.7076,1.6795,1.6552,1.6522,1.6522,1.6522,1.6522,1.6522,1.6522,1.6522,1.6522,1.6522,1.6522,1.6622,1.6886,1.7377,0.0,1.8145,1.9508,1.9615,1.8201,1.9226,1.9659,1.9334,2.0501,2.1577,2.2517,2.2485,2.2562,2.2824,2.3101,2.3025,2.2711,2.294,2.3078,2.309,2.3427,2.3715,2.4054,2.4531,2.4202,2.3467,2.3187,2.2338,2.1298,-0.571,-0.5496,-0.5167,-0.4588,-0.4144,-0.2901,-0.0221,0.5051,0.8789,0.8961,1.1072,1.3103,1.4687,1.5365,1.5952,1.6552,1.7023,1.7483,1.805,1.8579,1.8852,1.8852,1.8768,1.8514,1.7996,1.7379,1.7004,1.6904,1.6441,1.6749,1.7812,1.8377,1.9151,2.0102,2.0513,2.1178,2.1961,2.0862,2.0381,2.0199,1.9206,1.8578,1.833,1.8805,1.8867,1.8777,1.9331,1.96,1.96,1.9031,1.9226,1.9585,1.9031,1.9226,1.969,1.969,1.8822,1.7817,1.7712,1.6847,1.6069,1.6697,1.7445,1.8021,1.8036,1.8115,1.8224,1.8224,1.8185,1.7947,1.7504,1.7353,1.7105,1.6595,1.6522,1.6522,1.6522,0.0,1.6547,1.6635,1.6647,1.6685,1.676,1.6773,1.7018,1.7631,1.8552,1.9243,1.9506,2.1005,2.1192,1.9784,2.0631,2.1103,2.114,2.2233,2.3396,2.4675,2.4577,2.4447,2.4395,2.4326,2.3936,2.3263,2.3263,2.3253,2.3366,2.3916,2.4167,2.433,2.5234,2.445,2.2871,2.3369,2.2264,2.0566,-0.4952,-0.468,-0.4629,-0.4532,-0.2391,-0.0277,0.0989,0.5457,0.9124,1.0245,1.2186,1.3992,1.5297,1.6008,1.6582,1.7105,1.7666,1.7993,1.8071,1.9023,1.9525,1.9525,1.9097,1.9016,1.9375,1.8302,1.7469,1.6904,1.6818,1.7305,1.8315,1.9277,2.0019,2.0513,2.0927,2.0977,2.0747,2.0226,1.9766,1.9371,1.8903,1.8673,1.8594,1.811,1.8242,1.8717,1.8822,1.9211,1.9675,1.957,1.96,1.9675,1.957,1.96,1.969,1.969,1.9151,1.8433,1.7832,1.713,1.6712,1.7369,1.8067,1.8628,1.8708,1.8783,1.8779,1.8779,1.8419,1.8066,1.7987,1.7626,1.7105,1.6595,1.6522,1.6522,1.6522,0.0,1.6697,1.7187,1.725,1.7438,1.789,1.794,1.8185,1.8805,1.8988,1.9771,2.136,2.226,2.28,2.2953,2.2569,2.2652,2.3255,2.3454,2.3861,2.4518,2.451,2.4464,2.4319,2.4297,2.4157,2.3866,2.3866,2.413,2.4569,2.4657,2.4958,2.536,2.5523,2.4677,2.3414,2.3492,2.2264,2.0566,-0.4622,-0.4519,-0.4522,-0.4487,-0.2003,0.0942,0.3765,0.7219,0.9747,1.0605,1.2781,1.4573,1.5499,1.6139,1.671,1.7229,1.7544,1.7907,1.8496,1.9244,1.969,1.969,1.9442,1.9169,1.8855,1.831,1.7863,1.7539,1.7541,1.8204,1.9448,2.021,2.0758,2.1147,2.1309,2.1296,2.1042,2.04,1.9997,1.9765,1.9386,1.9226,1.9196,1.8897,1.8972,1.9226,1.9226,1.9435,1.969,1.969,1.969,1.969,1.969,1.969,1.969,1.969,1.9226,1.8553,1.7876,1.7727,1.7832,1.8179,1.8747,1.9265,1.931,1.9332,1.9332,1.9332,1.9132,1.8855,1.8574,1.8106,1.7544,1.7034,1.668,0.0,1.6879,1.7251,1.7678,1.8243,1.8341,1.8552,1.9176,1.8885,1.9048,1.998,2.0761,2.1664,2.2814,2.3824,2.464,2.5255,2.423,2.4012,2.4717,2.5398,2.5869,2.6191,2.6553,2.6497,2.5994,2.554,2.5236,2.5084,2.4608,2.4582,2.4845,2.5121,2.5385,2.5557,2.5369,2.4555,2.3441,2.2925,2.1821,2.0566,-0.4512,-0.4519,-0.4473,-0.449,-0.1445,0.2382,0.648,0.8738,1.0344,1.1303,1.3334,1.4971,1.5732,1.6238,1.668,1.7076,1.7353,1.7827,1.865,1.9332,1.969,1.969,1.9566,1.908,1.8145,1.8106,1.8167,1.8302,1.8292,1.9051,2.0483,2.0829,2.1213,2.1582,2.1582,2.1491,2.1259,2.0567,2.0246,2.0124,1.9803,1.969,1.969,1.969,1.969,1.969,1.969,1.969,1.969,1.969,1.969,1.969,1.969,1.969,1.969,1.969,1.9331,1.8792,1.81,1.8328,1.8702,1.8702,1.9196,1.969,1.969,1.969,1.969,1.969,1.969,1.953,1.9006,1.8574,1.8106,1.7585,0.0,1.7229,1.7676,1.8309,1.894,1.9446,1.9541,1.9845,2.064,2.0248,2.0433,2.1713,2.2729,2.3615,2.4349,2.5304,2.6138,2.6797,2.5784,2.5597,2.6287,2.7292,2.7842,2.809,2.8577,2.8414,2.7717,2.7018,2.654,2.6268,2.555,2.5266,2.5234,2.5636,2.5799,2.577,2.5202,2.4409,2.3379,2.2456,2.1543,2.0576,-0.4512,-0.4525,-0.448,-0.448,0.0275,0.5082,0.8086,0.9242,1.0638,1.3145,1.4193,1.5152,1.6293,1.6466,1.6522,1.6552,1.7463,1.8066,1.8145,1.9132,1.969,1.969,1.9207,1.8688,1.8106,1.809,1.8324,1.8855,1.8849,1.954,2.0959,2.0991,2.1213,2.1582,2.1582,2.1165,2.0366,2.0348,2.0089,1.9747,1.9711,1.969,1.969,1.969,1.969,1.969,1.969,1.969,1.969,1.969,1.969,1.969,1.969,1.969,1.969,1.969,1.966,1.9465,1.8807,1.8672,1.8702,1.8702,1.9196,1.969,1.969,1.969,1.969,1.969,1.969,1.953,1.9006,1.8855,1.865,1.8145,0.0,0.0,1.8976,1.9529,2.0182,2.0692,2.0757,2.1213,2.2394,2.2442,2.3,2.4321,2.452,2.5082,2.6311,2.6497,2.6811,2.7535,2.7434,2.7697,2.839,2.8495,2.8823,2.943,2.949,2.9134,2.8323,2.8267,2.7739,2.6812,2.6749,2.6621,2.6408,2.6445,2.6402,2.6321,2.5358,2.4409,2.3423,2.2828,2.1808,2.0625,-0.4515,-0.4477,-0.3916,-0.2055,0.1709,0.5416,0.8306,0.8933,0.9768,1.1648,1.3765,1.5437,1.6392,1.6522,1.6752,1.7422,1.7544,1.8027,1.9043,1.9169,1.9369,1.969,1.9479,1.9169,1.8612,1.893,1.9043,1.8893,1.9244,1.9808,2.055,2.055,2.0781,2.1213,2.0943,2.0601,2.028,2.0035,1.9839,1.969,1.969,1.969,1.969,1.969,1.969,1.969,1.969,1.969,1.969,1.969,1.969,1.969,1.969,1.969,1.969,1.969,1.969,1.963,1.9375,1.9316,1.9316,1.9316,1.9495,1.969,1.969,1.969,1.9809,2.0228,2.0318,2.0363,2.0611,2.0381,2.0088,1.9886,0.0,1.9852,2.0187,2.0784,2.1399,2.196,2.2405,2.2973,2.3789,2.3942,2.4321,2.5177,2.5623,2.6109,2.6572,2.6976,2.7515,2.8188,2.8203,2.8338,2.8607,2.9385,2.9714,2.9579,2.9968,3.0022,2.9643,2.8639,2.8199,2.8153,2.7091,2.6578,2.6533,2.6533,2.6533,2.6314,2.4696,2.4011,2.3782,2.2298,2.16,2.1406,-0.4519,-0.448,-0.3577,-0.0552,0.247,0.5483,0.8336,0.9123,0.9849,1.1266,1.3598,1.5449,1.6392,1.6522,1.6795,1.7544,1.7435,1.7827,1.9132,1.9169,1.9332,1.969,1.953,1.9369,1.9169,1.9369,1.9369,1.9169,1.953,1.9909,2.0314,2.0314,2.0483,2.0764,2.0449,2.0212,2.0089,1.9818,1.969,1.969,1.969,1.969,1.969,1.969,1.969,1.969,1.969,1.969,1.969,1.969,1.969,1.969,1.969,1.969,1.969,1.969,1.969,1.969,1.969,1.969,1.969,1.969,1.9854,2.0004,2.0004,2.0168,2.0453,2.0932,2.1021,2.1156,2.162,2.1385,2.1167,2.1167,2.1037,2.1026,2.1418,2.2015,2.2597,2.2966,2.3555,2.4214,2.4866,2.5165,2.5541,2.6165,2.6632,2.6991,2.7215,2.7649,2.8203,2.8891,2.9101,2.9205,2.9205,3.0058,3.0402,3.0193,3.0627,3.0821,3.0765,2.9354,2.8788,2.8939,2.7484,2.6714,2.6533,2.6533,2.6533,2.6327,2.4438,2.3888,2.4006,2.2231,2.1738,2.1904,-0.4519,-0.448,-0.3569,-0.0547,0.2489,0.5492,0.841,0.9957,1.1301,1.2715,1.3963,1.5164,1.638,1.6522,1.6522,1.6509,1.6993,1.7504,1.8066,1.9132,1.969,1.969,1.9207,1.9169,1.969,1.9169,1.9169,1.969,1.969,1.9894,2.0314,2.0314,2.0314,2.0314,2.0314,2.0054,1.969,1.969,1.969,1.969,1.969,1.969,1.969,1.969,1.969,1.969,1.969,1.969,1.969,1.969,1.969,1.969,1.969,1.969,1.969,1.969,1.969,1.969,1.969,1.969,1.969,1.969,2.0213,2.0722,2.0722,2.1231,2.1695,2.171,2.171,2.171,2.1724,2.1724,2.1724,2.1724,2.2263,2.2724,2.2724,2.3221,2.361,2.361,2.4223,2.4896,2.5555,2.6213,2.6871,2.7565,2.7625,2.7874,2.8562,2.8607,2.8906,2.9564,3.0178,3.0507,3.0507,3.0507,3.0851,3.1482,3.1482,3.1482,3.1467,3.0644,2.9827,2.8939,2.8051,2.7229,2.6533,2.6533,2.6533,2.6364,2.4819,2.4189,2.4083,2.2907,2.2246,2.1953,-0.4473,-0.448,-0.3564,-0.0548,0.4193,0.8461,1.1259,1.2004,1.2415,1.2838,1.4698,1.608,1.6461,1.6522,1.6489,1.651,1.6651,1.7276,1.8559,1.9332,1.969,1.969,1.9566,1.953,1.969,1.953,1.953,1.969,1.969,1.9747,1.9874,1.9874,1.9874,1.9874,1.9874,1.9803,1.969,1.969,1.969,1.969,1.969,1.969,1.969,1.969,1.969,1.969,1.969,1.969,1.969,1.969,1.969,1.969,1.969,1.969,1.969,1.969,1.969,1.969,1.969,2.0034,2.0408,2.0408,2.0557,2.0842,2.1291,2.156,2.1829,2.2278,2.2727,2.3176,2.367,2.3744,2.3744,2.3744,2.3924,2.4044,2.4044,2.4597,2.5001,2.5001,2.56,2.6078,2.6273,2.6901,2.7365,2.761,2.7625,2.7874,2.8562,2.8607,2.9101,3.0193,3.0417,3.0731,3.1225,3.1225,3.133,3.1482,3.1482,3.1482,3.1467,3.0011,2.9254,2.8939,2.7484,2.6714,2.6533,2.6533,2.6094,2.5312,2.4123,2.3623,2.3472,2.2439,2.2363,2.2783,-0.4477,-0.3516,-0.1773,0.1257,0.5666,0.9749,1.2498,1.2912,1.2908,1.2899,1.5015,1.6511,1.6485,1.6522,1.6502,1.6507,1.6883,1.7544,1.8521,1.9281,1.969,1.969,1.969,1.969,1.969,1.969,1.969,1.969,1.969,1.969,1.969,1.969,1.969,1.969,1.969,1.969,1.969,1.969,1.969,1.969,1.969,1.969,1.969,1.969,1.969,1.969,1.969,1.969,1.969,1.969,1.969,1.969,1.969,1.9869,2.0094,2.0094,2.0273,2.0483,2.0483,2.0782,2.1171,2.1425,2.1485,2.1665,2.2293,2.2667,2.3041,2.3699,2.4133,2.4522,2.4941,2.5016,2.5016,2.5016,2.5016,2.5016,2.5016,2.536,2.5615,2.5615,2.6183,2.6587,2.6587,2.7186,2.7625,2.7625,2.8068,2.8547,2.8966,2.922,2.9834,3.0881,3.0911,3.1106,3.1482,3.1482,3.1482,3.1482,3.1482,3.1351,3.097,2.9628,2.8812,2.8441,2.7272,2.6791,2.6791,2.6791,2.6487,2.5755,2.4333,2.3831,2.3743,2.2539,2.2559,2.3135,-0.4172,-0.1906,0.0948,0.3969,0.6882,0.9752,1.2663,1.3124,1.3217,1.3486,1.5251,1.649,1.6485,1.6522,1.6522,1.6522,1.745,1.8078,1.8106,1.9095,1.969,1.969,1.969,1.969,1.969,1.969,1.969,1.969,1.969,1.969,1.969,1.969,1.969,1.969,1.969,1.969,1.969,1.969,1.969,1.969,1.969,1.969,1.969,1.969,1.969,1.969,1.969,1.969,1.969,1.975,1.9779,1.9794,1.9854,2.0303,2.0797,2.0797,2.1231,2.171,2.1769,2.1829,2.2024,2.2682,2.2892,2.3071,2.358,2.4178,2.4761,2.548,2.5659,2.5689,2.5689,2.5689,2.5689,2.5689,2.5689,2.5689,2.5689,2.5749,2.5779,2.5779,2.6363,2.6767,2.6767,2.7365,2.7805,2.7805,2.8891,2.9609,2.9669,3.0193,3.0821,3.1452,3.1482,3.1497,3.1556,3.1497,3.1482,3.1482,3.1482,3.1087,3.0269,2.938,2.8519,2.7775,2.7462,2.7306,2.7356,2.7306,2.7197,2.6828,2.4941,2.4326,2.4421,2.2996,2.2783,2.3135,-0.1438,-0.0476,0.0942,0.3955,0.6894,1.0154,1.4247,1.4842,1.5692,1.8018,1.7242,1.6515,1.6504,1.6522,1.6522,1.6522,1.7234,1.7796,1.8092,1.9095,1.969,1.969,1.969,1.969,1.969,1.969,1.969,1.969,1.969,1.969,1.969,1.969,1.969,1.969,1.969,1.969,1.969,1.969,1.969,1.969,1.969,1.969,1.969,1.969,1.969,1.969,1.969,1.969,1.9765,2.0318,2.0483,2.0572,2.1096,2.1365,2.1485,2.1485,2.159,2.1799,2.2323,2.2817,2.3355,2.4029,2.4597,2.4881,2.4492,2.4477,2.4761,2.548,2.6019,2.6378,2.6378,2.6378,2.6378,2.6378,2.6378,2.6378,2.6378,2.6826,2.7141,2.7141,2.7754,2.8173,2.8173,2.8757,2.9146,2.9146,2.9415,2.9789,3.0283,3.0432,3.0821,3.1452,3.1482,3.1779,3.2302,3.1735,3.1482,3.1482,3.1482,3.1087,3.0269,2.938,2.8722,2.8315,2.7615,2.7532,2.7896,2.7457,2.6372,2.4929,2.4416,2.3495,2.2563,2.2522,2.2783,2.3135,-0.0612,0.1398,0.3615,0.6832,0.9925,1.2714,1.5029,1.5414,1.6082,1.798,1.7243,1.6498,1.649,1.6497,1.6973,1.8147,1.8202,1.8413,1.8922,1.9727,2.0034,1.969,1.969,1.969,1.969,1.969,1.969,1.969,1.969,1.969,1.969,1.969,1.969,1.969,1.969,1.969,1.969,1.969,1.969,1.969,1.969,1.969,1.969,1.969,1.969,1.9735,2.0064,2.0378,2.0707,2.1066,2.1186,2.1246,2.159,2.1919,2.2218,2.2517,2.2832,2.3236,2.3894,2.4313,2.4642,2.5001,2.536,2.56,2.557,2.5555,2.5854,2.6826,2.7305,2.7649,2.7964,2.8008,2.7919,2.7604,2.7814,2.7904,2.759,2.8113,2.8532,2.8532,2.8846,2.9071,2.9071,2.9639,2.9909,2.9609,3.0163,3.0507,3.0507,3.0806,3.1165,3.1467,3.1839,3.2168,3.2512,3.2482,3.2467,3.2467,3.1708,3.0852,3.0017,2.9474,2.8836,2.8331,2.8151,2.8235,2.8473,2.8185,2.7287,2.606,2.5524,2.4846,2.4057,2.3474,2.3182,2.3135,-0.0622,0.2909,0.6497,0.9979,1.3279,1.541,1.5381,1.5828,1.6385,1.6957,1.7085,1.7051,1.7069,1.6745,1.7479,1.983,1.9861,1.9852,2.0102,2.0498,2.0453,1.9884,1.975,1.9735,1.9854,1.975,1.969,1.969,1.969,1.969,1.969,1.969,1.969,1.969,1.969,1.969,1.969,1.969,1.969,1.969,1.9809,1.9854,1.9869,1.9989,2.0034,2.0109,2.0677,2.1231,2.171,2.1829,2.1859,2.1904,2.2128,2.2577,2.3131,2.3759,2.4343,2.4941,2.56,2.5779,2.5809,2.5914,2.5944,2.6123,2.6782,2.6841,2.7111,2.8353,2.8682,2.8936,2.949,2.9579,2.94,2.8861,2.922,2.9385,2.8846,2.9235,2.9579,2.9579,2.9669,2.9789,2.9909,3.0372,3.0462,2.9953,3.0926,3.1285,3.0717,3.133,3.1646,3.1646,3.2332,3.2736,3.2841,3.3275,3.3559,3.3649,3.1971,3.0749,2.9934,2.9573,2.8964,2.8273,2.8737,2.8988,2.9063,2.8976,2.85,2.7928,2.7046,2.6593,2.6217,2.4789,2.3819,2.3135,-0.0725,0.2937,0.6489,1.0017,1.3291,1.5396,1.5385,1.7587,1.9251,1.9343,1.9366,1.9344,1.9347,1.7652,1.7408,1.9678,2.1758,2.2423,2.1187,2.0848,2.0677,2.0572,2.0004,1.9959,2.0557,1.9989,1.969,1.969,1.969,1.969,1.969,1.969,1.969,1.969,1.969,1.969,1.969,1.969,1.969,1.9735,2.0333,2.0572,2.0632,2.1201,2.1425,2.144,2.153,2.162,2.1784,2.2353,2.2547,2.2742,2.3879,2.4298,2.4448,2.5151,2.5405,2.5615,2.6273,2.6452,2.6587,2.7156,2.7355,2.7485,2.8173,2.7874,2.7664,2.8442,2.9056,2.9475,2.9564,2.9579,2.9549,2.946,2.952,2.9549,2.946,2.952,2.9579,2.9579,3.0058,3.0612,3.121,3.1287,3.1302,3.1285,3.1377,3.1437,3.1405,3.2018,3.2377,3.2377,3.3021,3.3634,3.4203,3.3739,3.3784,3.4337,3.2464,3.1252,3.062,2.976,2.9184,2.8825,2.89,2.9214,2.9641,2.9139,2.841,2.7548,2.7281,2.6659,2.5779,2.5027,2.3988,2.3135,0.2323,0.433,0.648,1.0017,1.327,1.5381,1.5375,1.7893,1.98,1.9786,1.98,1.9782,1.9811,1.8922,1.9285,2.1713,2.2951,2.3299,2.2611,2.2415,2.2018,2.1291,2.0976,2.0946,2.1261,2.0961,2.0812,2.0812,2.0049,1.969,1.969,1.969,1.969,1.969,1.969,1.969,1.969,1.969,1.969,1.975,2.0438,2.0722,2.0782,2.144,2.1695,2.1739,2.2113,2.2473,2.2802,2.3086,2.3191,2.3295,2.3864,2.4313,2.4716,2.542,2.5869,2.6303,2.6961,2.741,2.7784,2.8068,2.8427,2.8771,2.9086,2.9175,2.9295,2.9594,2.9894,3.0223,3.0597,3.0672,3.0552,3.0163,3.0417,3.0537,3.0148,3.0432,3.0672,3.0672,3.0911,3.1195,3.1437,3.1869,3.2078,3.2078,3.2078,3.2243,3.2617,3.2557,3.2677,3.3051,3.3709,3.4188,3.4472,3.4577,3.4471,3.4171,3.2833,3.1819,3.1172,3.0151,2.9529,2.9415,2.9415,2.9553,2.9779,2.9515,2.8973,2.8319,2.8549,2.8011,2.6967,2.6052,2.5052,2.4049]}]]